Darstellungsparameter: Aktuell verwendete Einstellungen:
Skalierung der Graphiken ... ?
xyx+y,   Skalierungsfaktor:      Skalierung: Modus: x, Faktor: 1
Darstellungszeitraum ... ?
Vom - - bis: - -   Zeitraum: 19.03.2020 - 16.04.2020
Min/Max/Avg-Anzeige ... ?
Zeige MMA aktuell
Zeige MMA Monat
Zeige MMA alles
Zeige --A aktuell
Zeige --A Monat
Zeige --A alles
Keine MMA-Anzeige
MMA:
Keine MMA-Graphiken
MMA-Basis: 19.03.2020 - 16.04.2020
Quicknavigation für Darstellung... ?
Tage:      1T, 2T, 3T, 5T -1T -2T -3T -5T +1T +2T +3T +5T
Wochen: 1W, 2W, 3W -1W -2W -3W +1W +2W +3W
Monate: 1M, 3M, 6M -1M -3M -6M +1M +3M +6M
Jahre:    1J, 3J, 5J, 10J -1J -3J -5J -10J +1J +3J +5J +10J
Nutze für die Darstellung ... ?
Originaldaten oder Mittelwerte auf ...
Stundenbasis Tagesbasis Wochenbasis
Monatsbasis Jahresbasis      Datenbasis: Original-Daten
Darstellen als:
Statistik (Auto) Statistik J:M      Darstellung:
Zur Graphik,    zurück zur Übersicht aller Sensoren.
 
Tabellarische Datenbersicht: ?
 
Sensor: Nr:Datum:Temp:Feuchte:
Aussen-T/F 1 19-03-2020 00:09:17 8.9 C 39 %
2 19-03-2020 00:19:18 8.9 C 38 %
3 19-03-2020 00:29:18 9 C 38 %
4 19-03-2020 00:39:18 9 C 38 %
5 19-03-2020 00:49:17 9.1 C 38 %
6 19-03-2020 00:59:17 9.1 C 38 %
7 19-03-2020 01:09:18 9 C 38 %
8 19-03-2020 01:19:17 9.1 C 38 %
9 19-03-2020 01:29:17 9 C 38 %
10 19-03-2020 01:39:17 9 C 38 %
11 19-03-2020 01:49:17 8.9 C 38 %
12 19-03-2020 01:59:17 8.8 C 39 %
13 19-03-2020 02:09:18 8.7 C 39 %
14 19-03-2020 02:19:17 8.7 C 39 %
15 19-03-2020 02:29:17 8.6 C 39 %
16 19-03-2020 02:39:17 8.5 C 39 %
17 19-03-2020 02:49:18 8.5 C 39 %
18 19-03-2020 02:59:18 8.5 C 39 %
19 19-03-2020 03:09:18 8.5 C 39 %
20 19-03-2020 03:19:18 8.6 C 39 %
21 19-03-2020 03:29:18 8.5 C 39 %
22 19-03-2020 03:39:17 8.5 C 39 %
23 19-03-2020 03:49:18 8.4 C 39 %
24 19-03-2020 03:59:18 8.4 C 40 %
25 19-03-2020 04:09:18 8.4 C 40 %
Sensor: Nr:Datum:Temp:Feuchte:
Aussen-T/F 26 19-03-2020 04:19:17 8.5 C 40 %
27 19-03-2020 04:29:17 8.5 C 39 %
28 19-03-2020 04:39:17 8.5 C 39 %
29 19-03-2020 04:49:18 8.5 C 39 %
30 19-03-2020 04:59:18 8.5 C 39 %
31 19-03-2020 05:09:18 8.6 C 39 %
32 19-03-2020 05:19:18 8.9 C 38 %
33 19-03-2020 05:29:18 8.7 C 39 %
34 19-03-2020 05:39:18 8.6 C 39 %
35 19-03-2020 05:49:17 8.5 C 39 %
36 19-03-2020 05:59:18 8.4 C 39 %
37 19-03-2020 06:09:18 8.4 C 39 %
38 19-03-2020 06:19:17 8.3 C 40 %
39 19-03-2020 06:29:17 8.2 C 39 %
40 19-03-2020 06:39:17 8.1 C 40 %
41 19-03-2020 06:49:17 8.1 C 40 %
42 19-03-2020 06:59:17 8.2 C 40 %
43 19-03-2020 07:09:17 8.2 C 40 %
44 19-03-2020 07:19:17 8.5 C 40 %
45 19-03-2020 07:29:17 8.7 C 39 %
46 19-03-2020 07:39:18 8.9 C 39 %
47 19-03-2020 07:49:18 9.1 C 38 %
48 19-03-2020 07:59:18 9.4 C 38 %
49 19-03-2020 08:09:18 9.7 C 38 %
50 19-03-2020 08:19:17 9.9 C 37 %
Sensor: Nr:Datum:Temp:Feuchte:
Aussen-T/F 51 19-03-2020 08:29:17 9.9 C 37 %
52 19-03-2020 08:39:17 10.5 C 36 %
53 19-03-2020 08:49:18 10.4 C 36 %
54 19-03-2020 08:59:18 10.2 C 36 %
55 19-03-2020 09:09:17 11.2 C 35 %
56 19-03-2020 09:19:17 11.7 C 35 %
57 19-03-2020 09:29:17 11.5 C 35 %
58 19-03-2020 09:39:18 11.8 C 35 %
59 19-03-2020 09:49:17 11.6 C 35 %
60 19-03-2020 09:59:17 12.4 C 33 %
61 19-03-2020 10:09:18 12.3 C 32 %
62 19-03-2020 10:19:18 13.1 C 31 %
63 19-03-2020 10:29:18 13.5 C 30 %
64 19-03-2020 10:39:17 13.9 C 31 %
65 19-03-2020 10:49:17 14.2 C 30 %
66 19-03-2020 10:59:17 15.4 C 29 %
67 19-03-2020 11:09:17 15.5 C 29 %
68 19-03-2020 11:19:17 16.4 C 26 %
69 19-03-2020 11:29:17 17.7 C 26 %
70 19-03-2020 11:39:17 18.5 C 24 %
71 19-03-2020 11:49:17 15.8 C 26 %
72 19-03-2020 11:59:17 15 C 28 %
73 19-03-2020 12:09:17 15.2 C 28 %
74 19-03-2020 12:19:17 15.5 C 28 %
75 19-03-2020 12:29:17 16.8 C 26 %
Sensor: Nr:Datum:Temp:Feuchte:
Aussen-T/F 76 19-03-2020 12:39:18 18.1 C 22 %
77 19-03-2020 12:49:17 18.6 C 20 %
78 19-03-2020 12:59:17 17.9 C 20 %
79 19-03-2020 13:09:18 20.4 C 20 %
80 19-03-2020 13:19:18 25.8 C 20 %
81 19-03-2020 13:29:18 25.6 C 20 %
82 19-03-2020 13:39:18 19.7 C 20 %
83 19-03-2020 13:49:17 18.8 C 20 %
84 19-03-2020 13:59:17 18.2 C 20 %
85 19-03-2020 14:09:17 18.7 C 20 %
86 19-03-2020 14:19:17 18.9 C 20 %
87 19-03-2020 14:29:17 18.8 C 20 %
88 19-03-2020 14:39:17 18.9 C 20 %
89 19-03-2020 14:49:17 19.3 C 20 %
90 19-03-2020 14:59:17 19.1 C 20 %
91 19-03-2020 15:09:18 18.5 C 20 %
92 19-03-2020 15:19:18 19.1 C 20 %
93 19-03-2020 15:29:18 19.3 C 20 %
94 19-03-2020 15:39:18 19.8 C 20 %
95 19-03-2020 15:49:17 21.8 C 20 %
96 19-03-2020 15:59:18 19.5 C 20 %
97 19-03-2020 16:09:18 19.1 C 20 %
98 19-03-2020 16:20:17 19.1 C 20 %
99 19-03-2020 16:29:17 19.1 C 20 %
100 19-03-2020 16:39:17 19.1 C 20 %
Sensor: Nr:Datum:Temp:Feuchte:
Aussen-T/F 101 19-03-2020 16:49:17 19.1 C 20 %
102 19-03-2020 16:59:17 18.4 C 20 %
103 19-03-2020 17:09:18 17.6 C 20 %
104 19-03-2020 17:19:18 17.3 C 20 %
105 19-03-2020 17:29:18 17 C 20 %
106 19-03-2020 17:39:18 16.8 C 20 %
107 19-03-2020 17:49:18 16.9 C 20 %
108 19-03-2020 17:59:18 16.7 C 20 %
109 19-03-2020 18:09:18 16.3 C 20 %
110 19-03-2020 18:20:17 15.7 C 23 %
111 19-03-2020 18:30:17 13.9 C 29 %
112 19-03-2020 18:40:17 13.5 C 30 %
113 19-03-2020 18:50:17 12.8 C 31 %
114 19-03-2020 18:59:18 12.7 C 31 %
115 19-03-2020 19:09:18 12.3 C 31 %
116 19-03-2020 19:20:17 12.2 C 31 %
117 19-03-2020 19:30:17 11.9 C 32 %
118 19-03-2020 19:40:17 11.7 C 32 %
119 19-03-2020 19:50:17 11.7 C 33 %
120 19-03-2020 19:59:17 11.7 C 33 %
121 19-03-2020 20:09:17 11.7 C 33 %
122 19-03-2020 20:29:17 11.5 C 34 %
123 19-03-2020 20:29:17 11.6 C 34 %
124 19-03-2020 20:39:17 12 C 33 %
125 19-03-2020 20:49:17 11.8 C 34 %
Sensor: Nr:Datum:Temp:Feuchte:
Aussen-T/F 126 19-03-2020 20:59:17 11.5 C 35 %
127 19-03-2020 21:09:18 12 C 33 %
128 19-03-2020 21:20:17 11.4 C 35 %
129 19-03-2020 21:30:17 11.3 C 35 %
130 19-03-2020 21:40:17 10.3 C 36 %
131 19-03-2020 21:50:17 10.7 C 36 %
132 19-03-2020 21:59:18 10.6 C 36 %
133 19-03-2020 22:09:18 10.1 C 37 %
134 19-03-2020 22:19:18 9.7 C 38 %
135 19-03-2020 22:29:18 9.8 C 38 %
136 19-03-2020 22:39:18 9.5 C 39 %
137 19-03-2020 22:49:18 9.4 C 39 %
138 19-03-2020 22:59:18 9.5 C 38 %
139 19-03-2020 23:09:18 9.5 C 38 %
140 19-03-2020 23:20:17 9.4 C 39 %
141 19-03-2020 23:30:17 9.2 C 39 %
142 19-03-2020 23:40:17 9.6 C 38 %
143 19-03-2020 23:50:17 9.1 C 39 %
144 19-03-2020 23:59:18 8.7 C 40 %
145 20-03-2020 00:09:18 8.6 C 40 %
146 20-03-2020 00:19:18 9.3 C 39 %
147 20-03-2020 00:29:18 9.1 C 39 %
148 20-03-2020 00:39:18 9 C 39 %
149 20-03-2020 00:59:17 8.8 C 40 %
150 20-03-2020 01:00:18 8.8 C 40 %
Sensor: Nr:Datum:Temp:Feuchte:
Aussen-T/F 151 20-03-2020 01:10:18 8.7 C 40 %
152 20-03-2020 01:20:17 8.7 C 40 %
153 20-03-2020 01:30:18 8.6 C 40 %
154 20-03-2020 01:40:18 8.4 C 40 %
155 20-03-2020 01:50:17 8.5 C 40 %
156 20-03-2020 02:00:18 8.3 C 40 %
157 20-03-2020 02:10:18 7.9 C 40 %
158 20-03-2020 02:20:17 7.6 C 41 %
159 20-03-2020 02:30:17 7.4 C 41 %
160 20-03-2020 02:40:17 7.4 C 41 %
161 20-03-2020 02:50:17 7.1 C 41 %
162 20-03-2020 03:00:17 7.1 C 42 %
163 20-03-2020 03:10:17 7.1 C 42 %
164 20-03-2020 03:20:17 7.1 C 42 %
165 20-03-2020 03:30:18 7.2 C 42 %
166 20-03-2020 03:40:18 7.3 C 42 %
167 20-03-2020 03:50:17 7.5 C 42 %
168 20-03-2020 04:00:18 7.5 C 42 %
169 20-03-2020 04:10:18 7.7 C 42 %
170 20-03-2020 04:20:18 7.6 C 41 %
171 20-03-2020 04:30:18 7.4 C 42 %
172 20-03-2020 04:40:18 7.2 C 42 %
173 20-03-2020 04:50:17 7 C 42 %
174 20-03-2020 05:00:18 6.9 C 43 %
175 20-03-2020 05:10:18 6.8 C 43 %
Sensor: Nr:Datum:Temp:Feuchte:
Aussen-T/F 176 20-03-2020 05:20:17 6.5 C 43 %
177 20-03-2020 05:30:17 6.2 C 43 %
178 20-03-2020 05:40:17 5.9 C 44 %
179 20-03-2020 05:50:17 5.6 C 44 %
180 20-03-2020 06:00:17 5.4 C 45 %
181 20-03-2020 06:10:17 5.2 C 45 %
182 20-03-2020 06:20:17 5 C 45 %
183 20-03-2020 06:30:17 5.1 C 46 %
184 20-03-2020 06:40:17 5 C 46 %
185 20-03-2020 06:50:17 5 C 46 %
186 20-03-2020 07:00:17 5.1 C 46 %
187 20-03-2020 07:10:17 5.3 C 46 %
188 20-03-2020 07:20:17 5.5 C 46 %
189 20-03-2020 07:30:17 5.6 C 46 %
190 20-03-2020 07:40:17 5.7 C 46 %
191 20-03-2020 07:50:18 5.8 C 46 %
192 20-03-2020 08:00:17 6.3 C 46 %
193 20-03-2020 08:10:17 6.9 C 45 %
194 20-03-2020 08:20:17 7.2 C 43 %
195 20-03-2020 08:30:17 7.1 C 43 %
196 20-03-2020 08:40:17 7.1 C 43 %
197 20-03-2020 08:50:17 7.3 C 43 %
198 20-03-2020 09:00:17 8 C 43 %
199 20-03-2020 09:10:17 8.2 C 42 %
200 20-03-2020 09:20:17 9.6 C 42 %
Sensor: Nr:Datum:Temp:Feuchte:
Aussen-T/F 201 20-03-2020 09:30:17 10 C 40 %
202 20-03-2020 09:40:17 10.2 C 40 %
203 20-03-2020 09:50:17 10.5 C 39 %
204 20-03-2020 10:00:18 10.8 C 39 %
205 20-03-2020 10:10:18 11.2 C 38 %
206 20-03-2020 10:20:18 11.1 C 37 %
207 20-03-2020 10:30:18 11 C 37 %
208 20-03-2020 10:40:18 11.5 C 37 %
209 20-03-2020 10:50:18 12.6 C 36 %
210 20-03-2020 11:00:17 13.1 C 35 %
211 20-03-2020 11:10:18 13.1 C 35 %
212 20-03-2020 11:20:18 14.2 C 33 %
213 20-03-2020 11:30:18 14.5 C 32 %
214 20-03-2020 11:40:18 15.3 C 31 %
215 20-03-2020 11:50:18 14.6 C 32 %
216 20-03-2020 12:00:17 15.6 C 31 %
217 20-03-2020 12:10:17 15.4 C 30 %
218 20-03-2020 12:20:17 15.6 C 30 %
219 20-03-2020 12:30:18 14.4 C 31 %
220 20-03-2020 12:40:18 14.9 C 31 %
221 20-03-2020 12:50:18 14.9 C 31 %
222 20-03-2020 13:00:18 14.9 C 31 %
223 20-03-2020 13:10:18 14.9 C 31 %
224 20-03-2020 13:20:18 14.9 C 31 %
225 20-03-2020 13:30:18 14.9 C 31 %
Sensor: Nr:Datum:Temp:Feuchte:
Aussen-T/F 226 20-03-2020 13:40:18 14.9 C 31 %
227 20-03-2020 13:50:17 16.4 C 26 %
228 20-03-2020 14:00:17 16.2 C 27 %
229 20-03-2020 14:10:17 16.6 C 26 %
230 20-03-2020 14:20:17 16.2 C 27 %
231 20-03-2020 14:30:18 17.4 C 26 %
232 20-03-2020 14:40:18 17.3 C 26 %
233 20-03-2020 14:50:18 17.9 C 25 %
234 20-03-2020 15:00:17 17.9 C 25 %
235 20-03-2020 15:10:17 18.1 C 25 %
236 20-03-2020 15:20:17 17 C 25 %
237 20-03-2020 15:30:18 17.9 C 25 %
238 20-03-2020 15:40:18 18.5 C 25 %
239 20-03-2020 15:50:18 17 C 25 %
240 20-03-2020 16:00:17 16.2 C 26 %
241 20-03-2020 16:10:17 16.1 C 26 %
242 20-03-2020 16:20:17 15.5 C 26 %
243 20-03-2020 16:30:18 15.8 C 26 %
244 20-03-2020 16:40:18 15.3 C 26 %
245 20-03-2020 16:50:18 17 C 25 %
246 20-03-2020 17:00:18 16.1 C 26 %
247 20-03-2020 17:10:18 15.2 C 27 %
248 20-03-2020 17:20:18 14.3 C 28 %
249 20-03-2020 17:30:18 13.9 C 30 %
250 20-03-2020 17:40:18 12.8 C 31 %
Sensor: Nr:Datum:Temp:Feuchte:
Aussen-T/F 251 20-03-2020 17:50:17 12.5 C 31 %
252 20-03-2020 18:00:17 12.4 C 32 %
253 20-03-2020 18:10:17 11.9 C 33 %
254 20-03-2020 18:20:17 11.8 C 34 %
255 20-03-2020 18:30:17 11.6 C 34 %
256 20-03-2020 18:40:17 11.6 C 34 %
257 20-03-2020 18:50:18 11.5 C 34 %
258 20-03-2020 19:00:17 11.5 C 34 %
259 20-03-2020 19:10:17 11.3 C 34 %
260 20-03-2020 19:20:17 11.1 C 34 %
261 20-03-2020 19:30:17 11 C 35 %
262 20-03-2020 19:40:17 10.7 C 35 %
263 20-03-2020 19:50:17 10.6 C 35 %
264 20-03-2020 20:00:17 10.4 C 35 %
265 20-03-2020 20:10:17 10.2 C 35 %
266 20-03-2020 20:20:17 10.3 C 35 %
267 20-03-2020 20:30:17 10.3 C 35 %
268 20-03-2020 20:40:17 10.2 C 35 %
269 20-03-2020 20:50:18 10.3 C 35 %
270 20-03-2020 21:00:18 10.1 C 35 %
271 20-03-2020 21:10:18 9.9 C 35 %
272 20-03-2020 21:20:17 9.5 C 35 %
273 20-03-2020 21:30:17 9.2 C 35 %
274 20-03-2020 21:40:17 9.1 C 35 %
275 20-03-2020 21:50:17 8.7 C 36 %
Sensor: Nr:Datum:Temp:Feuchte:
Aussen-T/F 276 20-03-2020 22:00:17 8.5 C 36 %
277 20-03-2020 22:10:17 8.4 C 36 %
278 20-03-2020 22:20:18 8.3 C 36 %
279 20-03-2020 22:30:17 8.2 C 36 %
280 20-03-2020 22:40:18 8.1 C 36 %
281 20-03-2020 22:50:17 8.1 C 36 %
282 20-03-2020 23:00:18 8 C 35 %
283 20-03-2020 23:10:18 7.9 C 36 %
284 20-03-2020 23:20:17 7.9 C 36 %
285 20-03-2020 23:30:18 7.9 C 35 %
286 20-03-2020 23:40:18 7.8 C 35 %
287 20-03-2020 23:50:18 7.7 C 35 %
288 21-03-2020 00:00:17 7.6 C 34 %
289 21-03-2020 00:10:17 7.6 C 34 %
290 21-03-2020 00:20:17 7.4 C 34 %
291 21-03-2020 00:30:17 7.3 C 34 %
292 21-03-2020 00:40:17 7.3 C 34 %
293 21-03-2020 00:50:17 7.3 C 34 %
294 21-03-2020 01:00:17 7.2 C 33 %
295 21-03-2020 01:10:17 7.1 C 33 %
296 21-03-2020 01:20:17 6.8 C 35 %
297 21-03-2020 01:30:18 6.5 C 35 %
298 21-03-2020 01:40:18 6.2 C 36 %
299 21-03-2020 01:50:17 5.9 C 38 %
300 21-03-2020 02:00:18 5.6 C 39 %
Sensor: Nr:Datum:Temp:Feuchte:
Aussen-T/F 301 21-03-2020 02:10:18 5.3 C 40 %
302 21-03-2020 02:20:17 5.1 C 41 %
303 21-03-2020 02:30:18 4.9 C 43 %
304 21-03-2020 02:40:18 4.9 C 43 %
305 21-03-2020 02:50:18 4.6 C 43 %
306 21-03-2020 03:00:17 4.5 C 43 %
307 21-03-2020 03:10:17 4.4 C 44 %
308 21-03-2020 03:20:17 4.5 C 45 %
309 21-03-2020 03:30:18 4.5 C 45 %
310 21-03-2020 03:40:18 4.4 C 45 %
311 21-03-2020 03:50:17 4.4 C 45 %
312 21-03-2020 04:00:18 4.3 C 45 %
313 21-03-2020 04:10:18 4.2 C 45 %
314 21-03-2020 04:20:17 4.1 C 45 %
315 21-03-2020 04:30:18 4.1 C 45 %
316 21-03-2020 04:40:18 4 C 45 %
317 21-03-2020 04:50:18 3.9 C 46 %
318 21-03-2020 05:00:18 3.9 C 46 %
319 21-03-2020 05:10:18 4 C 46 %
320 21-03-2020 05:20:18 3.9 C 47 %
321 21-03-2020 05:30:18 3.9 C 47 %
322 21-03-2020 05:40:18 3.9 C 47 %
323 21-03-2020 05:50:17 4 C 46 %
324 21-03-2020 06:00:18 4 C 47 %
325 21-03-2020 06:10:18 3.9 C 47 %
Sensor: Nr:Datum:Temp:Feuchte:
Aussen-T/F 326 21-03-2020 06:20:17 4 C 47 %
327 21-03-2020 06:30:18 4 C 47 %
328 21-03-2020 06:40:18 4 C 47 %
329 21-03-2020 06:50:17 4 C 47 %
330 21-03-2020 07:00:17 4.1 C 47 %
331 21-03-2020 07:10:18 4.1 C 47 %
332 21-03-2020 07:20:18 4.1 C 47 %
333 21-03-2020 07:30:18 4.2 C 47 %
334 21-03-2020 07:40:18 4.3 C 47 %
335 21-03-2020 07:50:17 4.3 C 47 %
336 21-03-2020 08:00:18 4.4 C 47 %
337 21-03-2020 08:10:18 4.5 C 47 %
338 21-03-2020 08:20:17 4.5 C 46 %
339 21-03-2020 08:30:17 4.6 C 46 %
340 21-03-2020 08:40:17 4.7 C 46 %
341 21-03-2020 08:50:18 4.8 C 46 %
342 21-03-2020 09:00:18 4.7 C 46 %
343 21-03-2020 09:10:18 4.6 C 45 %
344 21-03-2020 09:20:18 5.2 C 43 %
345 21-03-2020 09:30:18 5.6 C 42 %
346 21-03-2020 09:40:18 5.8 C 41 %
347 21-03-2020 09:50:17 6 C 41 %
348 21-03-2020 10:00:17 6.2 C 41 %
349 21-03-2020 10:10:18 6.4 C 39 %
350 21-03-2020 10:20:18 6.5 C 40 %
Sensor: Nr:Datum:Temp:Feuchte:
Aussen-T/F 351 21-03-2020 10:30:18 6.7 C 39 %
352 21-03-2020 10:40:18 6.7 C 38 %
353 21-03-2020 10:50:17 6.4 C 39 %
354 21-03-2020 11:00:17 6.5 C 37 %
355 21-03-2020 11:10:18 7.1 C 36 %
356 21-03-2020 11:20:18 7.3 C 36 %
357 21-03-2020 11:30:18 8.1 C 34 %
358 21-03-2020 11:40:18 8 C 34 %
359 21-03-2020 11:50:18 8.3 C 32 %
360 21-03-2020 12:00:18 7.8 C 32 %
361 21-03-2020 12:10:18 7.6 C 33 %
362 21-03-2020 12:20:17 7.9 C 31 %
363 21-03-2020 12:30:17 8.7 C 32 %
364 21-03-2020 12:40:17 8.2 C 30 %
365 21-03-2020 12:50:17 7.8 C 31 %
366 21-03-2020 13:00:17 7.9 C 30 %
367 21-03-2020 13:10:17 8.7 C 30 %
368 21-03-2020 13:20:18 8.9 C 28 %
369 21-03-2020 13:30:18 8.5 C 28 %
370 21-03-2020 13:40:18 8.2 C 27 %
371 21-03-2020 13:50:17 8.4 C 27 %
372 21-03-2020 14:00:18 8.6 C 27 %
373 21-03-2020 14:10:18 9.1 C 26 %
374 21-03-2020 14:20:18 8.7 C 27 %
375 21-03-2020 14:30:18 9.1 C 25 %
Sensor: Nr:Datum:Temp:Feuchte:
Aussen-T/F 376 21-03-2020 14:40:18 11.1 C 24 %
377 21-03-2020 14:50:17 9.8 C 23 %
378 21-03-2020 15:00:18 11 C 20 %
379 21-03-2020 15:10:18 10.1 C 20 %
380 21-03-2020 15:20:17 11.2 C 20 %
381 21-03-2020 15:30:17 11.7 C 20 %
382 21-03-2020 15:40:17 9.4 C 20 %
383 21-03-2020 15:50:17 8.6 C 20 %
384 21-03-2020 16:00:18 9.4 C 20 %
385 21-03-2020 16:10:18 9.5 C 20 %
386 21-03-2020 16:20:17 12.1 C 20 %
387 21-03-2020 16:30:17 12 C 20 %
388 21-03-2020 16:40:17 13.3 C 20 %
389 21-03-2020 16:50:17 10.9 C 20 %
390 21-03-2020 17:00:17 9.2 C 20 %
391 21-03-2020 17:10:17 8.9 C 20 %
392 21-03-2020 17:20:17 8.3 C 20 %
393 21-03-2020 17:30:18 7.8 C 20 %
394 21-03-2020 17:40:18 7.8 C 20 %
395 21-03-2020 17:50:17 7.5 C 20 %
396 21-03-2020 18:00:17 7 C 20 %
397 21-03-2020 18:10:17 6.9 C 20 %
398 21-03-2020 18:20:17 6.6 C 21 %
399 21-03-2020 18:30:17 6.4 C 23 %
400 21-03-2020 18:40:17 5.9 C 25 %
Sensor: Nr:Datum:Temp:Feuchte:
Aussen-T/F 401 21-03-2020 18:50:17 5.5 C 27 %
402 21-03-2020 19:00:17 5.5 C 26 %
403 21-03-2020 19:10:17 5.1 C 28 %
404 21-03-2020 19:20:17 4.7 C 30 %
405 21-03-2020 19:30:18 4.4 C 31 %
406 21-03-2020 19:40:18 4.5 C 30 %
407 21-03-2020 19:50:17 4.4 C 29 %
408 21-03-2020 20:00:18 4.1 C 30 %
409 21-03-2020 20:10:18 3.7 C 31 %
410 21-03-2020 20:20:18 3.2 C 33 %
411 21-03-2020 20:30:18 3.7 C 32 %
412 21-03-2020 20:40:18 3.9 C 30 %
413 21-03-2020 20:50:17 3.6 C 31 %
414 21-03-2020 21:00:18 3.3 C 32 %
415 21-03-2020 21:10:18 3 C 32 %
416 21-03-2020 21:20:18 3.4 C 32 %
417 21-03-2020 21:30:18 3.1 C 31 %
418 21-03-2020 21:40:18 2.9 C 32 %
419 21-03-2020 21:50:17 2.6 C 33 %
420 21-03-2020 22:00:17 1.9 C 36 %
421 21-03-2020 22:10:17 2.3 C 34 %
422 21-03-2020 22:20:17 3 C 32 %
423 21-03-2020 22:30:18 2.7 C 32 %
424 21-03-2020 22:40:18 2.3 C 33 %
425 21-03-2020 22:50:18 2.7 C 32 %
Sensor: Nr:Datum:Temp:Feuchte:
Aussen-T/F 426 21-03-2020 23:00:18 2 C 34 %
427 21-03-2020 23:10:18 2.2 C 33 %
428 21-03-2020 23:20:18 1.6 C 35 %
429 21-03-2020 23:30:18 1.7 C 35 %
430 21-03-2020 23:40:18 1.8 C 35 %
431 21-03-2020 23:50:17 1.7 C 35 %
432 22-03-2020 00:00:18 1.4 C 35 %
433 22-03-2020 00:10:18 1.5 C 35 %
434 22-03-2020 00:20:17 0.9 C 37 %
435 22-03-2020 00:30:17 0.7 C 38 %
436 22-03-2020 00:40:17 1.2 C 36 %
437 22-03-2020 00:50:17 0.9 C 37 %
438 22-03-2020 01:00:18 1.5 C 35 %
439 22-03-2020 01:10:18 1.5 C 35 %
440 22-03-2020 01:20:18 1.1 C 35 %
441 22-03-2020 01:30:18 1.1 C 35 %
442 22-03-2020 01:40:18 0.9 C 36 %
443 22-03-2020 01:50:18 1 C 35 %
444 22-03-2020 02:00:18 1 C 35 %
445 22-03-2020 02:10:18 0.1 C 38 %
446 22-03-2020 02:20:17 0.3 C 38 %
447 22-03-2020 02:30:18 0.5 C 37 %
448 22-03-2020 02:40:18 0.5 C 37 %
449 22-03-2020 02:50:18 0.4 C 37 %
450 22-03-2020 03:00:18 0.2 C 37 %
Sensor: Nr:Datum:Temp:Feuchte:
Aussen-T/F 451 22-03-2020 03:10:18 0.7 C 37 %
452 22-03-2020 03:20:18 -0.4 C 38 %
453 22-03-2020 03:30:18 -0.1 C 38 %
454 22-03-2020 03:40:18 -0.4 C 39 %
455 22-03-2020 03:50:17 -0.3 C 39 %
456 22-03-2020 04:00:17 -0.2 C 38 %
457 22-03-2020 04:10:17 0 C 37 %
458 22-03-2020 04:20:17 -0.4 C 38 %
459 22-03-2020 04:30:17 0.3 C 37 %
460 22-03-2020 04:40:17 0.1 C 37 %
461 22-03-2020 04:50:17 -0.2 C 38 %
462 22-03-2020 05:00:18 0.1 C 37 %
463 22-03-2020 05:10:18 -0.3 C 37 %
464 22-03-2020 05:20:17 -0.4 C 37 %
465 22-03-2020 05:30:18 -0.5 C 38 %
466 22-03-2020 05:40:18 -0.7 C 38 %
467 22-03-2020 05:50:17 -1 C 39 %
468 22-03-2020 06:00:17 -1.1 C 39 %
469 22-03-2020 06:10:17 -0.8 C 39 %
470 22-03-2020 06:20:17 0.1 C 37 %
471 22-03-2020 06:30:17 -0.3 C 37 %
472 22-03-2020 06:40:17 -0.4 C 37 %
473 22-03-2020 06:50:18 0 C 36 %
474 22-03-2020 07:00:18 -0.3 C 37 %
475 22-03-2020 07:10:18 -0.2 C 37 %
Sensor: Nr:Datum:Temp:Feuchte:
Aussen-T/F 476 22-03-2020 07:20:18 -0.4 C 37 %
477 22-03-2020 07:30:18 -0.1 C 36 %
478 22-03-2020 07:40:18 -0.2 C 37 %
479 22-03-2020 07:50:17 -0.1 C 36 %
480 22-03-2020 08:00:18 -0.1 C 36 %
481 22-03-2020 08:10:18 0.3 C 36 %
482 22-03-2020 08:20:18 0.3 C 35 %
483 22-03-2020 08:30:18 0.5 C 35 %
484 22-03-2020 08:40:18 0.8 C 35 %
485 22-03-2020 08:50:18 0.4 C 35 %
486 22-03-2020 09:00:18 0.8 C 35 %
487 22-03-2020 09:10:18 1.2 C 32 %
488 22-03-2020 09:20:18 1.6 C 32 %
489 22-03-2020 09:30:18 2.2 C 30 %
490 22-03-2020 09:40:18 2.5 C 27 %
491 22-03-2020 09:50:17 2.8 C 26 %
492 22-03-2020 10:00:18 3.3 C 25 %
493 22-03-2020 10:10:18 3.6 C 25 %
494 22-03-2020 10:20:18 3.9 C 20 %
495 22-03-2020 10:30:18 4.4 C 20 %
496 22-03-2020 10:40:18 4.6 C 20 %
497 22-03-2020 10:50:17 5.2 C 20 %
498 22-03-2020 11:00:18 5.5 C 20 %
499 22-03-2020 11:10:18 6.3 C 20 %
500 22-03-2020 11:20:17 6.5 C 20 %
Sensor: Nr:Datum:Temp:Feuchte:
Aussen-T/F 501 22-03-2020 11:30:18 6.7 C 20 %
502 22-03-2020 11:40:18 6.7 C 20 %
503 22-03-2020 11:50:17 6.5 C 20 %
504 22-03-2020 12:00:18 7 C 20 %
505 22-03-2020 12:10:18 7.4 C 20 %
506 22-03-2020 12:20:18 7.3 C 20 %
507 22-03-2020 12:30:17 6.9 C 20 %
508 22-03-2020 12:40:17 8 C 20 %
509 22-03-2020 12:50:18 8.5 C 20 %
510 22-03-2020 13:00:18 10.1 C 20 %
511 22-03-2020 13:10:18 11.1 C 20 %
512 22-03-2020 13:20:17 11.9 C 20 %
513 22-03-2020 13:30:18 11.6 C 20 %
514 22-03-2020 13:40:18 10.9 C 20 %
515 22-03-2020 13:50:18 10.3 C 20 %
516 22-03-2020 14:00:17 9.6 C 20 %
517 22-03-2020 14:10:17 10.2 C 20 %
518 22-03-2020 14:20:17 12.2 C 20 %
519 22-03-2020 14:30:17 12.6 C 20 %
520 22-03-2020 14:40:17 14.4 C 20 %
521 22-03-2020 14:50:17 14.4 C 20 %
522 22-03-2020 15:00:18 15 C 20 %
523 22-03-2020 15:10:18 14.4 C 20 %
524 22-03-2020 15:20:17 14.7 C 20 %
525 22-03-2020 15:30:17 13.6 C 20 %
Sensor: Nr:Datum:Temp:Feuchte:
Aussen-T/F 526 22-03-2020 15:40:17 13.7 C 20 %
527 22-03-2020 15:50:18 15.4 C 20 %
528 22-03-2020 16:00:18 16.2 C 20 %
529 22-03-2020 16:10:18 14.9 C 20 %
530 22-03-2020 16:20:18 14.1 C 20 %
531 22-03-2020 16:30:18 13.3 C 20 %
532 22-03-2020 16:40:18 13.2 C 20 %
533 22-03-2020 16:50:17 11.7 C 20 %
534 22-03-2020 17:00:17 10.7 C 20 %
535 22-03-2020 17:10:17 9.9 C 20 %
536 22-03-2020 17:20:17 9.7 C 20 %
537 22-03-2020 17:30:17 9.8 C 20 %
538 22-03-2020 17:40:17 9.5 C 20 %
539 22-03-2020 17:50:17 8.9 C 20 %
540 22-03-2020 18:00:18 8.6 C 20 %
541 22-03-2020 18:10:18 8.4 C 20 %
542 22-03-2020 18:20:17 7.9 C 20 %
543 22-03-2020 18:30:17 7.5 C 20 %
544 22-03-2020 18:40:17 7 C 20 %
545 22-03-2020 18:50:17 6.5 C 20 %
546 22-03-2020 19:00:17 5.6 C 20 %
547 22-03-2020 19:10:17 4.9 C 21 %
548 22-03-2020 19:20:17 5.2 C 20 %
549 22-03-2020 19:30:17 4.3 C 26 %
550 22-03-2020 19:40:17 3.8 C 27 %
Sensor: Nr:Datum:Temp:Feuchte:
Aussen-T/F 551 22-03-2020 19:50:18 3.7 C 28 %
552 22-03-2020 20:00:18 3.6 C 28 %
553 22-03-2020 20:10:18 3.6 C 27 %
554 22-03-2020 20:20:17 3.6 C 26 %
555 22-03-2020 20:30:17 3.2 C 26 %
556 22-03-2020 20:40:17 3 C 26 %
557 22-03-2020 20:50:17 2.5 C 30 %
558 22-03-2020 21:00:17 2.9 C 26 %
559 22-03-2020 21:10:17 2.7 C 27 %
560 22-03-2020 21:20:17 2.3 C 30 %
561 22-03-2020 21:30:17 2.2 C 29 %
562 22-03-2020 21:40:17 1.8 C 30 %
563 22-03-2020 21:50:18 1.5 C 31 %
564 22-03-2020 22:00:18 2 C 30 %
565 22-03-2020 22:10:18 2.5 C 26 %
566 22-03-2020 22:20:17 1.8 C 30 %
567 22-03-2020 22:30:17 1.5 C 29 %
568 22-03-2020 22:40:17 1.3 C 31 %
569 22-03-2020 22:50:17 1.4 C 30 %
570 22-03-2020 23:00:17 0.7 C 33 %
571 22-03-2020 23:10:17 1.1 C 30 %
572 22-03-2020 23:20:17 0.8 C 32 %
573 22-03-2020 23:30:18 0.3 C 33 %
574 22-03-2020 23:40:18 0.3 C 34 %
575 22-03-2020 23:50:18 0.6 C 33 %
Sensor: Nr:Datum:Temp:Feuchte:
Aussen-T/F 576 23-03-2020 00:00:18 0.4 C 34 %
577 23-03-2020 00:10:18 0 C 33 %
578 23-03-2020 00:20:17 -0.2 C 33 %
579 23-03-2020 00:30:17 -0.5 C 35 %
580 23-03-2020 00:40:17 -0.7 C 36 %
581 23-03-2020 00:50:18 -1.1 C 36 %
582 23-03-2020 01:00:17 -0.6 C 35 %
583 23-03-2020 01:10:17 -0.7 C 36 %
584 23-03-2020 01:20:17 -0.9 C 35 %
585 23-03-2020 01:30:18 -0.8 C 35 %
586 23-03-2020 01:40:18 -1.1 C 35 %
587 23-03-2020 01:50:18 -0.8 C 35 %
588 23-03-2020 02:00:18 -1.1 C 35 %
589 23-03-2020 02:10:18 -1.4 C 35 %
590 23-03-2020 02:20:17 -1.2 C 35 %
591 23-03-2020 02:30:17 -1.2 C 35 %
592 23-03-2020 02:40:17 -1.2 C 35 %
593 23-03-2020 02:50:17 -1.3 C 35 %
594 23-03-2020 03:00:17 -1.6 C 35 %
595 23-03-2020 03:10:18 -1.9 C 35 %
596 23-03-2020 03:20:18 -1.6 C 35 %
597 23-03-2020 03:30:18 -1.7 C 35 %
598 23-03-2020 03:40:18 -1.9 C 35 %
599 23-03-2020 03:50:18 -1.8 C 35 %
600 23-03-2020 04:00:18 -1.8 C 35 %
Sensor: Nr:Datum:Temp:Feuchte:
Aussen-T/F 601 23-03-2020 04:10:18 -2.1 C 35 %
602 23-03-2020 04:20:17 -1.9 C 35 %
603 23-03-2020 04:30:17 -2 C 35 %
604 23-03-2020 04:40:17 -2.1 C 35 %
605 23-03-2020 04:50:17 -2.7 C 36 %
606 23-03-2020 05:00:18 -2.5 C 36 %
607 23-03-2020 05:10:18 -2.4 C 36 %
608 23-03-2020 05:20:17 -2.3 C 36 %
609 23-03-2020 05:30:18 -2.4 C 35 %
610 23-03-2020 05:40:18 -2.7 C 36 %
611 23-03-2020 05:50:17 -2.7 C 36 %
612 23-03-2020 06:00:18 -2.6 C 36 %
613 23-03-2020 06:10:18 -2.9 C 36 %
614 23-03-2020 06:20:17 -2.6 C 36 %
615 23-03-2020 06:30:18 -2.8 C 36 %
616 23-03-2020 06:40:18 -3.2 C 36 %
617 23-03-2020 06:50:18 -3 C 36 %
618 23-03-2020 07:00:18 -3 C 36 %
619 23-03-2020 07:10:18 -3.1 C 36 %
620 23-03-2020 07:20:18 -2.5 C 35 %
621 23-03-2020 07:30:18 -2.7 C 36 %
622 23-03-2020 07:40:18 -2.6 C 36 %
623 23-03-2020 07:50:18 -1.9 C 34 %
624 23-03-2020 08:00:18 -2 C 35 %
625 23-03-2020 08:10:18 -1.4 C 32 %
Sensor: Nr:Datum:Temp:Feuchte:
Aussen-T/F 626 23-03-2020 08:20:17 -1.1 C 31 %
627 23-03-2020 08:30:18 -0.2 C 27 %
628 23-03-2020 08:40:18 -0.2 C 26 %
629 23-03-2020 08:50:18 -0.3 C 25 %
630 23-03-2020 09:00:18 0 C 23 %
631 23-03-2020 09:10:18 0.2 C 23 %
632 23-03-2020 09:20:18 0.5 C 20 %
633 23-03-2020 09:30:17 0.7 C 20 %
634 23-03-2020 09:40:17 1.5 C 20 %
635 23-03-2020 09:50:18 1.8 C 20 %
636 23-03-2020 10:00:18 2.4 C 20 %
637 23-03-2020 10:10:18 2.7 C 20 %
638 23-03-2020 10:20:18 3 C 20 %
639 23-03-2020 10:30:17 3.8 C 20 %
640 23-03-2020 10:40:17 4.1 C 20 %
641 23-03-2020 10:50:17 4.7 C 20 %
642 23-03-2020 11:00:17 5.5 C 20 %
643 23-03-2020 11:10:17 5.5 C 20 %
644 23-03-2020 11:20:17 6 C 20 %
645 23-03-2020 11:30:18 6.7 C 20 %
646 23-03-2020 11:40:18 6.2 C 20 %
647 23-03-2020 11:50:17 6.3 C 20 %
648 23-03-2020 12:00:18 7 C 20 %
649 23-03-2020 12:10:18 7.4 C 20 %
650 23-03-2020 12:20:18 7.8 C 20 %
Sensor: Nr:Datum:Temp:Feuchte:
Aussen-T/F 651 23-03-2020 12:30:18 7.5 C 20 %
652 23-03-2020 12:40:18 8.1 C 20 %
653 23-03-2020 12:50:18 8.7 C 20 %
654 23-03-2020 13:00:17 10.4 C 20 %
655 23-03-2020 13:10:17 10.7 C 20 %
656 23-03-2020 13:20:17 11.9 C 20 %
657 23-03-2020 13:30:17 11.4 C 20 %
658 23-03-2020 13:40:17 10 C 20 %
659 23-03-2020 13:50:17 9.8 C 20 %
660 23-03-2020 14:00:18 9.2 C 20 %
661 23-03-2020 14:10:18 10.5 C 20 %
662 23-03-2020 14:20:18 12.9 C 20 %
663 23-03-2020 14:30:18 13 C 20 %
664 23-03-2020 14:40:18 14.2 C 20 %
665 23-03-2020 14:50:18 14.3 C 20 %
666 23-03-2020 15:00:18 14.3 C 20 %
667 23-03-2020 15:10:18 14.4 C 20 %
668 23-03-2020 15:20:17 14.7 C 20 %
669 23-03-2020 15:30:17 13.5 C 20 %
670 23-03-2020 15:40:17 14.4 C 20 %
671 23-03-2020 15:50:17 14.1 C 20 %
672 23-03-2020 16:00:17 13.8 C 20 %
673 23-03-2020 16:10:17 14.7 C 20 %
674 23-03-2020 16:20:17 15.3 C 20 %
675 23-03-2020 16:30:18 14.7 C 20 %
Sensor: Nr:Datum:Temp:Feuchte:
Aussen-T/F 676 23-03-2020 16:40:18 14.8 C 20 %
677 23-03-2020 16:50:17 11.4 C 20 %
678 23-03-2020 17:00:18 10.1 C 20 %
679 23-03-2020 17:10:18 9.7 C 20 %
680 23-03-2020 17:20:18 9.4 C 20 %
681 23-03-2020 17:30:18 9 C 20 %
682 23-03-2020 17:40:18 9 C 20 %
683 23-03-2020 17:50:17 8.6 C 20 %
684 23-03-2020 18:00:18 8.3 C 20 %
685 23-03-2020 18:10:18 7.6 C 20 %
686 23-03-2020 18:20:17 7.4 C 20 %
687 23-03-2020 18:30:18 7 C 20 %
688 23-03-2020 18:40:18 5.3 C 20 %
689 23-03-2020 18:50:18 4.4 C 20 %
690 23-03-2020 19:00:18 4.2 C 20 %
691 23-03-2020 19:10:18 4.1 C 20 %
692 23-03-2020 19:20:17 3.7 C 20 %
693 23-03-2020 19:30:18 3.6 C 20 %
694 23-03-2020 19:40:18 3.4 C 20 %
695 23-03-2020 19:50:18 2.7 C 20 %
696 23-03-2020 20:00:17 2.9 C 20 %
697 23-03-2020 20:10:17 2.6 C 20 %
698 23-03-2020 20:20:17 2.5 C 20 %
699 23-03-2020 20:30:18 2.3 C 20 %
700 23-03-2020 20:40:18 2.4 C 20 %
Sensor: Nr:Datum:Temp:Feuchte:
Aussen-T/F 701 23-03-2020 20:50:18 2.3 C 20 %
702 23-03-2020 21:00:18 2.1 C 20 %
703 23-03-2020 21:10:18 0.9 C 27 %
704 23-03-2020 21:20:17 1 C 26 %
705 23-03-2020 21:30:18 1.1 C 28 %
706 23-03-2020 21:40:18 0.7 C 29 %
707 23-03-2020 21:50:18 0.2 C 30 %
708 23-03-2020 22:00:17 -0.4 C 31 %
709 23-03-2020 22:10:18 -0.9 C 35 %
710 23-03-2020 22:20:18 -0.2 C 34 %
711 23-03-2020 22:30:18 -0.9 C 35 %
712 23-03-2020 22:40:18 -0.9 C 35 %
713 23-03-2020 22:50:18 -1.3 C 35 %
714 23-03-2020 23:00:18 -1.4 C 36 %
715 23-03-2020 23:10:18 -1.6 C 36 %
716 23-03-2020 23:20:17 -1.7 C 36 %
717 23-03-2020 23:30:17 -1.7 C 37 %
718 23-03-2020 23:40:17 -1.9 C 37 %
719 23-03-2020 23:50:18 -1.8 C 37 %
720 24-03-2020 00:00:18 -1.9 C 36 %
721 24-03-2020 00:10:18 -2 C 36 %
722 24-03-2020 00:20:17 -2.2 C 36 %
723 24-03-2020 00:30:18 -2.4 C 37 %
724 24-03-2020 00:40:18 -2.4 C 38 %
725 24-03-2020 00:50:18 -2.5 C 38 %
Sensor: Nr:Datum:Temp:Feuchte:
Aussen-T/F 726 24-03-2020 01:00:18 -2.3 C 37 %
727 24-03-2020 01:10:18 -2.6 C 37 %
728 24-03-2020 01:20:18 -2.7 C 38 %
729 24-03-2020 01:30:18 -2.7 C 38 %
730 24-03-2020 01:40:18 -3 C 38 %
731 24-03-2020 01:50:18 -2.5 C 37 %
732 24-03-2020 02:00:18 -2.6 C 38 %
733 24-03-2020 02:10:18 -2.8 C 38 %
734 24-03-2020 02:20:17 -3.1 C 38 %
735 24-03-2020 02:30:17 -3.2 C 38 %
736 24-03-2020 02:40:17 -3.3 C 38 %
737 24-03-2020 02:50:17 -3.2 C 38 %
738 24-03-2020 03:00:17 -3.4 C 38 %
739 24-03-2020 03:10:17 -3.5 C 38 %
740 24-03-2020 03:20:17 -3.6 C 39 %
741 24-03-2020 03:30:17 -3.6 C 38 %
742 24-03-2020 03:40:17 -3.7 C 38 %
743 24-03-2020 03:50:17 -3.9 C 39 %
744 24-03-2020 04:00:18 -3.7 C 39 %
745 24-03-2020 04:10:18 -3.9 C 38 %
746 24-03-2020 04:20:18 -4 C 38 %
747 24-03-2020 04:30:18 -4 C 38 %
748 24-03-2020 04:40:18 -4 C 38 %
749 24-03-2020 04:50:17 -3.9 C 38 %
750 24-03-2020 05:00:17 -4.2 C 38 %
Sensor: Nr:Datum:Temp:Feuchte:
Aussen-T/F 751 24-03-2020 05:10:17 -4.3 C 39 %
752 24-03-2020 05:20:17 -4.2 C 38 %
753 24-03-2020 05:30:18 -4.3 C 38 %
754 24-03-2020 05:40:18 -4.4 C 38 %
755 24-03-2020 05:50:18 -4.6 C 39 %
756 24-03-2020 06:00:17 -4.7 C 39 %
757 24-03-2020 06:10:18 -4.7 C 38 %
758 24-03-2020 06:20:17 -4.7 C 39 %
759 24-03-2020 06:30:18 -4.7 C 38 %
760 24-03-2020 06:40:18 -4.6 C 39 %
761 24-03-2020 06:50:18 -4.4 C 38 %
762 24-03-2020 07:00:18 -4.5 C 39 %
763 24-03-2020 07:10:18 -4.4 C 39 %
764 24-03-2020 07:20:18 -4.3 C 39 %
765 24-03-2020 07:30:18 -4.2 C 39 %
766 24-03-2020 07:40:18 -4 C 39 %
767 24-03-2020 07:50:17 -3.8 C 39 %
768 24-03-2020 08:00:17 -3.7 C 39 %
769 24-03-2020 08:10:17 -3.5 C 38 %
770 24-03-2020 08:20:17 -3.3 C 38 %
771 24-03-2020 08:30:17 -2.5 C 38 %
772 24-03-2020 08:40:17 -2.4 C 37 %
773 24-03-2020 08:50:17 -2 C 37 %
774 24-03-2020 09:00:17 -1.6 C 36 %
775 24-03-2020 09:10:17 -0.7 C 35 %
Sensor: Nr:Datum:Temp:Feuchte:
Aussen-T/F 776 24-03-2020 09:20:17 -0.2 C 34 %
777 24-03-2020 09:30:17 0.4 C 30 %
778 24-03-2020 09:40:17 1 C 27 %
779 24-03-2020 09:50:18 1.7 C 23 %
780 24-03-2020 10:00:18 3 C 20 %
781 24-03-2020 10:10:18 3.3 C 20 %
782 24-03-2020 10:20:17 3.9 C 20 %
783 24-03-2020 10:30:17 4.3 C 20 %
784 24-03-2020 10:40:17 4.7 C 20 %
785 24-03-2020 10:50:17 5.7 C 20 %
786 24-03-2020 11:00:18 5.7 C 20 %
787 24-03-2020 11:10:18 6.4 C 20 %
788 24-03-2020 11:20:17 6.9 C 20 %
789 24-03-2020 11:30:17 7.9 C 20 %
790 24-03-2020 11:40:17 7.2 C 20 %
791 24-03-2020 11:50:18 6.8 C 20 %
792 24-03-2020 12:00:18 7.8 C 20 %
793 24-03-2020 12:10:18 8.6 C 20 %
794 24-03-2020 12:20:17 8.2 C 20 %
795 24-03-2020 12:30:17 8.2 C 20 %
796 24-03-2020 12:40:17 9 C 20 %
797 24-03-2020 12:50:17 9.2 C 20 %
798 24-03-2020 13:00:18 10.4 C 20 %
799 24-03-2020 13:10:18 11.7 C 20 %
800 24-03-2020 13:20:17 12.5 C 20 %
Sensor: Nr:Datum:Temp:Feuchte:
Aussen-T/F 801 24-03-2020 13:30:17 13 C 20 %
802 24-03-2020 13:40:17 11.9 C 20 %
803 24-03-2020 13:50:18 11 C 20 %
804 24-03-2020 14:00:17 10.8 C 20 %
805 24-03-2020 14:10:17 11.3 C 20 %
806 24-03-2020 14:20:17 13.7 C 20 %
807 24-03-2020 14:30:17 12.2 C 20 %
808 24-03-2020 14:40:17 14.4 C 20 %
809 24-03-2020 14:50:18 13.4 C 20 %
810 24-03-2020 15:00:18 13.5 C 20 %
811 24-03-2020 15:10:18 14.1 C 20 %
812 24-03-2020 15:20:18 15.3 C 20 %
813 24-03-2020 15:30:18 14.1 C 20 %
814 24-03-2020 15:40:18 15.4 C 20 %
815 24-03-2020 15:50:18 14.9 C 20 %
816 24-03-2020 16:00:18 14.8 C 20 %
817 24-03-2020 16:10:18 14.8 C 20 %
818 24-03-2020 16:20:18 14.1 C 20 %
819 24-03-2020 16:30:18 13.6 C 20 %
820 24-03-2020 16:40:18 14.3 C 20 %
821 24-03-2020 16:50:18 11.4 C 20 %
822 24-03-2020 17:00:18 10.8 C 20 %
823 24-03-2020 17:10:18 10.4 C 20 %
824 24-03-2020 17:20:18 10.1 C 20 %
825 24-03-2020 17:30:18 9.9 C 20 %
Sensor: Nr:Datum:Temp:Feuchte:
Aussen-T/F 826 24-03-2020 17:40:18 9.6 C 20 %
827 24-03-2020 17:50:17 9.3 C 20 %
828 24-03-2020 18:00:17 9 C 20 %
829 24-03-2020 18:10:17 8.6 C 20 %
830 24-03-2020 18:20:17 8.4 C 20 %
831 24-03-2020 18:30:17 7.6 C 20 %
832 24-03-2020 18:40:18 6.4 C 20 %
833 24-03-2020 18:50:17 5.4 C 20 %
834 24-03-2020 19:00:18 4.9 C 20 %
835 24-03-2020 19:10:18 4.6 C 20 %
836 24-03-2020 19:20:18 4.5 C 20 %
837 24-03-2020 19:30:18 4.1 C 20 %
838 24-03-2020 19:40:18 3.9 C 20 %
839 24-03-2020 19:50:17 3.6 C 20 %
840 24-03-2020 20:00:18 3.6 C 20 %
841 24-03-2020 20:10:18 3.5 C 20 %
842 24-03-2020 20:20:17 3.4 C 20 %
843 24-03-2020 20:30:18 3.4 C 20 %
844 24-03-2020 20:40:18 2.9 C 20 %
845 24-03-2020 20:50:18 2.7 C 20 %
846 24-03-2020 21:00:18 2.7 C 20 %
847 24-03-2020 21:10:18 2.6 C 20 %
848 24-03-2020 21:20:17 2.3 C 20 %
849 24-03-2020 21:30:17 2.3 C 20 %
850 24-03-2020 21:40:17 2.2 C 20 %
Sensor: Nr:Datum:Temp:Feuchte:
Aussen-T/F 851 24-03-2020 21:50:17 2.2 C 20 %
852 24-03-2020 22:00:18 1.7 C 20 %
853 24-03-2020 22:10:18 1.6 C 20 %
854 24-03-2020 22:20:17 1.6 C 20 %
855 24-03-2020 22:30:18 0.3 C 25 %
856 24-03-2020 22:40:18 -0.2 C 30 %
857 24-03-2020 22:50:17 -0.7 C 30 %
858 24-03-2020 23:00:18 -1.2 C 32 %
859 24-03-2020 23:10:18 -1.1 C 31 %
860 24-03-2020 23:20:17 -1.4 C 31 %
861 24-03-2020 23:30:18 -1.7 C 30 %
862 24-03-2020 23:40:18 -0.9 C 30 %
863 24-03-2020 23:50:18 -1.2 C 30 %
864 25-03-2020 00:00:17 -1.6 C 30 %
865 25-03-2020 00:10:17 -1.6 C 31 %
866 25-03-2020 00:20:17 -1.8 C 32 %
867 25-03-2020 00:30:17 -1.8 C 30 %
868 25-03-2020 00:40:18 -1.9 C 31 %
869 25-03-2020 00:50:17 -1.8 C 32 %
870 25-03-2020 01:00:17 -1.6 C 32 %
871 25-03-2020 01:10:18 -1.3 C 31 %
872 25-03-2020 01:20:17 -1.1 C 30 %
873 25-03-2020 01:30:18 -1.1 C 29 %
874 25-03-2020 01:40:18 -0.9 C 28 %
875 25-03-2020 01:50:17 -1.1 C 28 %
Sensor: Nr:Datum:Temp:Feuchte:
Aussen-T/F 876 25-03-2020 02:00:17 -1.1 C 28 %
877 25-03-2020 02:10:18 -1.3 C 27 %
878 25-03-2020 02:20:18 -1.4 C 29 %
879 25-03-2020 02:30:18 -1.6 C 27 %
880 25-03-2020 02:40:18 -1.5 C 27 %
881 25-03-2020 02:50:18 -1.4 C 27 %
882 25-03-2020 03:00:18 -1.4 C 26 %
883 25-03-2020 03:10:18 -1.4 C 26 %
884 25-03-2020 03:20:17 -1.5 C 27 %
885 25-03-2020 03:30:17 -2.3 C 30 %
886 25-03-2020 03:40:17 -2.6 C 31 %
887 25-03-2020 03:50:17 -2.8 C 32 %
888 25-03-2020 04:00:17 -3.1 C 33 %
889 25-03-2020 04:10:17 -3.2 C 34 %
890 25-03-2020 04:20:17 -3.3 C 34 %
891 25-03-2020 04:30:18 -3.3 C 34 %
892 25-03-2020 04:40:18 -3 C 33 %
893 25-03-2020 04:50:17 -3.2 C 33 %
894 25-03-2020 05:00:18 -3 C 32 %
895 25-03-2020 05:10:18 -2.6 C 32 %
896 25-03-2020 05:20:17 -2.3 C 30 %
897 25-03-2020 05:30:17 -2.5 C 30 %
898 25-03-2020 05:40:17 -3.4 C 33 %
899 25-03-2020 05:50:17 -4 C 35 %
900 25-03-2020 06:00:17 -4.4 C 36 %
Sensor: Nr:Datum:Temp:Feuchte:
Aussen-T/F 901 25-03-2020 06:10:17 -4.2 C 36 %
902 25-03-2020 06:20:17 -4.2 C 36 %
903 25-03-2020 06:30:17 -4.4 C 36 %
904 25-03-2020 06:40:17 -4.3 C 36 %
905 25-03-2020 06:50:17 -4.3 C 36 %
906 25-03-2020 07:00:17 -4.3 C 37 %
907 25-03-2020 07:10:17 -4.3 C 37 %
908 25-03-2020 07:20:17 -4.1 C 37 %
909 25-03-2020 07:30:17 -4 C 37 %
910 25-03-2020 07:40:17 -3.8 C 37 %
911 25-03-2020 07:50:17 -3.2 C 36 %
912 25-03-2020 08:00:17 -2.6 C 35 %
913 25-03-2020 08:10:17 -2 C 32 %
914 25-03-2020 08:20:17 -2.7 C 35 %
915 25-03-2020 08:30:17 -2 C 34 %
916 25-03-2020 08:40:17 -1.9 C 34 %
917 25-03-2020 08:50:17 -1.6 C 34 %
918 25-03-2020 09:00:17 -1.5 C 34 %
919 25-03-2020 09:10:17 -1.3 C 35 %
920 25-03-2020 09:20:17 -1 C 35 %
921 25-03-2020 09:30:17 -0.2 C 32 %
922 25-03-2020 09:40:18 0.7 C 29 %
923 25-03-2020 09:50:17 2.1 C 20 %
924 25-03-2020 10:00:18 2.8 C 20 %
925 25-03-2020 10:10:18 3.2 C 20 %
Sensor: Nr:Datum:Temp:Feuchte:
Aussen-T/F 926 25-03-2020 10:20:17 3.6 C 20 %
927 25-03-2020 10:30:17 4.1 C 20 %
928 25-03-2020 10:40:17 4.7 C 20 %
929 25-03-2020 10:50:17 5.1 C 20 %
930 25-03-2020 11:00:17 5.3 C 20 %
931 25-03-2020 11:10:17 5.7 C 20 %
932 25-03-2020 11:20:17 7.2 C 20 %
933 25-03-2020 11:30:18 7.7 C 20 %
934 25-03-2020 11:40:18 7.3 C 20 %
935 25-03-2020 11:50:17 6.8 C 20 %
936 25-03-2020 12:00:17 7.8 C 20 %
937 25-03-2020 12:10:17 8.3 C 20 %
938 25-03-2020 12:20:17 8.4 C 20 %
939 25-03-2020 12:30:17 8.4 C 20 %
940 25-03-2020 12:40:17 8.6 C 20 %
941 25-03-2020 12:50:17 10.3 C 20 %
942 25-03-2020 13:00:17 11.2 C 20 %
943 25-03-2020 13:10:17 12.2 C 20 %
944 25-03-2020 13:20:18 13.8 C 20 %
945 25-03-2020 13:30:18 14.5 C 20 %
946 25-03-2020 13:40:18 12.4 C 20 %
947 25-03-2020 13:50:18 12 C 20 %
948 25-03-2020 14:00:18 11.3 C 20 %
949 25-03-2020 14:10:18 11.1 C 20 %
950 25-03-2020 14:20:17 13.2 C 20 %
Sensor: Nr:Datum:Temp:Feuchte:
Aussen-T/F 951 25-03-2020 14:30:17 13.5 C 20 %
952 25-03-2020 14:40:17 12.7 C 20 %
953 25-03-2020 14:50:17 13.5 C 20 %
954 25-03-2020 15:00:17 13.8 C 20 %
955 25-03-2020 15:10:17 14.1 C 20 %
956 25-03-2020 15:20:18 14.9 C 20 %
957 25-03-2020 15:30:18 14.4 C 20 %
958 25-03-2020 15:40:18 14.4 C 20 %
959 25-03-2020 15:50:17 15 C 20 %
960 25-03-2020 16:00:18 15.3 C 20 %
961 25-03-2020 16:10:18 14.5 C 20 %
962 25-03-2020 16:20:17 15.7 C 20 %
963 25-03-2020 16:30:17 13.8 C 20 %
964 25-03-2020 16:40:17 12.9 C 20 %
965 25-03-2020 16:50:18 12.2 C 20 %
966 25-03-2020 17:00:18 11.9 C 20 %
967 25-03-2020 17:10:18 11.5 C 20 %
968 25-03-2020 17:20:17 11.1 C 20 %
969 25-03-2020 17:30:17 11 C 20 %
970 25-03-2020 17:40:17 10.7 C 20 %
971 25-03-2020 17:50:17 10.5 C 20 %
972 25-03-2020 18:00:18 10.5 C 20 %
973 25-03-2020 18:10:18 10.1 C 20 %
974 25-03-2020 18:20:17 9.6 C 20 %
975 25-03-2020 18:30:18 8.8 C 20 %
Sensor: Nr:Datum:Temp:Feuchte:
Aussen-T/F 976 25-03-2020 18:40:18 7.7 C 20 %
977 25-03-2020 18:50:18 7 C 20 %
978 25-03-2020 19:00:18 6.3 C 20 %
979 25-03-2020 19:10:18 6.1 C 20 %
980 25-03-2020 19:20:17 5.4 C 20 %
981 25-03-2020 19:30:18 5.8 C 20 %
982 25-03-2020 19:40:18 5.1 C 20 %
983 25-03-2020 19:50:17 4.6 C 20 %
984 25-03-2020 20:00:17 4.5 C 20 %
985 25-03-2020 20:10:17 4.1 C 20 %
986 25-03-2020 20:20:17 4 C 20 %
987 25-03-2020 20:30:18 4.7 C 20 %
988 25-03-2020 20:40:18 4.3 C 20 %
989 25-03-2020 20:50:17 3.8 C 20 %
990 25-03-2020 21:00:18 4.6 C 20 %
991 25-03-2020 21:10:18 4.6 C 20 %
992 25-03-2020 21:20:17 4.3 C 20 %
993 25-03-2020 21:30:17 4.3 C 20 %
994 25-03-2020 21:40:17 4 C 20 %
995 25-03-2020 21:50:17 3.6 C 20 %
996 25-03-2020 22:00:17 2.8 C 20 %
997 25-03-2020 22:10:17 2.6 C 20 %
998 25-03-2020 22:20:17 2.6 C 20 %
999 25-03-2020 22:30:18 2.1 C 20 %
1000 25-03-2020 22:40:18 2.3 C 20 %
Sensor: Nr:Datum:Temp:Feuchte:
Aussen-T/F 1001 25-03-2020 22:50:18 2.1 C 20 %
1002 25-03-2020 23:00:18 1.7 C 20 %
1003 25-03-2020 23:10:18 1.7 C 23 %
1004 25-03-2020 23:20:17 1.6 C 23 %
1005 25-03-2020 23:30:18 1.5 C 21 %
1006 25-03-2020 23:40:18 1.8 C 20 %
1007 25-03-2020 23:50:18 1.8 C 20 %
1008 26-03-2020 00:00:18 1.4 C 21 %
1009 26-03-2020 00:10:18 1.2 C 21 %
1010 26-03-2020 00:20:18 1.3 C 21 %
1011 26-03-2020 00:30:18 0.9 C 23 %
1012 26-03-2020 00:40:18 0.9 C 25 %
1013 26-03-2020 00:50:18 1 C 23 %
1014 26-03-2020 01:00:18 0.7 C 25 %
1015 26-03-2020 01:10:18 0.4 C 25 %
1016 26-03-2020 01:20:17 0.5 C 25 %
1017 26-03-2020 01:30:17 0.7 C 25 %
1018 26-03-2020 01:40:17 0.7 C 23 %
1019 26-03-2020 01:50:17 0.7 C 21 %
1020 26-03-2020 02:00:17 0.6 C 23 %
1021 26-03-2020 02:10:17 0.7 C 21 %
1022 26-03-2020 02:20:17 0.7 C 21 %
1023 26-03-2020 02:30:17 0.6 C 21 %
1024 26-03-2020 02:40:18 0.4 C 21 %
1025 26-03-2020 02:50:17 0.3 C 23 %
Sensor: Nr:Datum:Temp:Feuchte:
Aussen-T/F 1026 26-03-2020 03:00:17 0 C 23 %
1027 26-03-2020 03:10:18 0.1 C 23 %
1028 26-03-2020 03:20:18 0 C 23 %
1029 26-03-2020 03:30:18 -0.3 C 25 %
1030 26-03-2020 03:40:18 -0.3 C 27 %
1031 26-03-2020 03:50:17 -0.4 C 27 %
1032 26-03-2020 04:00:17 -0.1 C 26 %
1033 26-03-2020 04:10:17 -0.3 C 25 %
1034 26-03-2020 04:20:17 -0.3 C 26 %
1035 26-03-2020 04:30:18 -0.4 C 26 %
1036 26-03-2020 04:40:18 -0.4 C 26 %
1037 26-03-2020 04:50:17 -0.5 C 26 %
1038 26-03-2020 05:00:18 -0.5 C 27 %
1039 26-03-2020 05:10:18 -0.6 C 27 %
1040 26-03-2020 05:20:17 -0.6 C 28 %
1041 26-03-2020 05:30:17 -0.7 C 28 %
1042 26-03-2020 05:40:18 -0.5 C 28 %
1043 26-03-2020 05:50:17 -0.6 C 28 %
1044 26-03-2020 06:00:18 -0.7 C 29 %
1045 26-03-2020 06:10:18 -0.8 C 28 %
1046 26-03-2020 06:20:18 -0.9 C 28 %
1047 26-03-2020 06:30:18 -1 C 28 %
1048 26-03-2020 06:40:18 -0.9 C 30 %
1049 26-03-2020 06:50:18 -1.1 C 30 %
1050 26-03-2020 07:00:18 -0.8 C 30 %
Sensor: Nr:Datum:Temp:Feuchte:
Aussen-T/F 1051 26-03-2020 07:10:18 -1.1 C 30 %
1052 26-03-2020 07:20:18 -0.6 C 30 %
1053 26-03-2020 07:30:18 -0.4 C 30 %
1054 26-03-2020 07:40:18 0.2 C 27 %
1055 26-03-2020 07:50:17 0.5 C 25 %
1056 26-03-2020 08:00:18 0.3 C 28 %
1057 26-03-2020 08:10:18 0.4 C 28 %
1058 26-03-2020 08:20:18 0.7 C 26 %
1059 26-03-2020 08:30:18 1.4 C 21 %
1060 26-03-2020 08:40:18 1.7 C 21 %
1061 26-03-2020 08:50:17 2.2 C 20 %
1062 26-03-2020 09:00:18 2.3 C 20 %
1063 26-03-2020 09:10:18 2.3 C 20 %
1064 26-03-2020 09:20:18 2.7 C 20 %
1065 26-03-2020 09:30:18 3.2 C 20 %
1066 26-03-2020 09:40:18 3.5 C 20 %
1067 26-03-2020 09:50:18 4.1 C 20 %
1068 26-03-2020 10:00:18 4.4 C 20 %
1069 26-03-2020 10:10:18 4.9 C 20 %
1070 26-03-2020 10:20:18 5 C 20 %
1071 26-03-2020 10:30:18 5.4 C 20 %
1072 26-03-2020 10:40:18 5.9 C 20 %
1073 26-03-2020 10:50:17 6 C 20 %
1074 26-03-2020 11:00:18 6.6 C 20 %
1075 26-03-2020 11:10:18 6.9 C 20 %
Sensor: Nr:Datum:Temp:Feuchte:
Aussen-T/F 1076 26-03-2020 11:20:18 7.3 C 20 %
1077 26-03-2020 11:30:18 8.5 C 20 %
1078 26-03-2020 11:40:18 8.3 C 20 %
1079 26-03-2020 11:50:18 7.3 C 20 %
1080 26-03-2020 12:00:18 8 C 20 %
1081 26-03-2020 12:10:18 9.1 C 20 %
1082 26-03-2020 12:20:17 9.6 C 20 %
1083 26-03-2020 12:30:17 9.6 C 20 %
1084 26-03-2020 12:40:17 9.6 C 20 %
1085 26-03-2020 12:50:17 9.7 C 20 %
1086 26-03-2020 13:00:17 10.4 C 20 %
1087 26-03-2020 13:10:17 10.8 C 20 %
1088 26-03-2020 13:20:18 11.5 C 20 %
1089 26-03-2020 13:30:18 11.5 C 20 %
1090 26-03-2020 13:40:18 12.1 C 20 %
1091 26-03-2020 13:50:18 13 C 20 %
1092 26-03-2020 14:00:18 12 C 20 %
1093 26-03-2020 14:10:18 12.2 C 20 %
1094 26-03-2020 14:20:18 11.9 C 20 %
1095 26-03-2020 14:30:18 14.3 C 20 %
1096 26-03-2020 14:40:18 14.2 C 20 %
1097 26-03-2020 14:50:17 14 C 20 %
1098 26-03-2020 15:00:17 15.3 C 20 %
1099 26-03-2020 15:10:18 14.2 C 20 %
1100 26-03-2020 15:20:18 14 C 20 %
Sensor: Nr:Datum:Temp:Feuchte:
Aussen-T/F 1101 26-03-2020 15:30:18 15.6 C 20 %
1102 26-03-2020 15:40:18 15.6 C 20 %
1103 26-03-2020 15:50:18 16.5 C 20 %
1104 26-03-2020 16:00:18 15.6 C 20 %
1105 26-03-2020 16:10:18 15.3 C 20 %
1106 26-03-2020 16:20:18 12.5 C 20 %
1107 26-03-2020 16:30:18 12.3 C 20 %
1108 26-03-2020 16:40:18 13.9 C 20 %
1109 26-03-2020 16:50:18 12.8 C 20 %
1110 26-03-2020 17:00:18 11.4 C 20 %
1111 26-03-2020 17:10:18 11 C 20 %
1112 26-03-2020 17:20:17 10.9 C 20 %
1113 26-03-2020 17:30:17 11 C 20 %
1114 26-03-2020 17:40:17 11.1 C 20 %
1115 26-03-2020 17:50:17 10.7 C 20 %
1116 26-03-2020 18:00:17 10.5 C 20 %
1117 26-03-2020 18:10:17 10.3 C 20 %
1118 26-03-2020 18:20:18 10.1 C 20 %
1119 26-03-2020 18:30:18 9.8 C 20 %
1120 26-03-2020 18:40:18 9.4 C 20 %
1121 26-03-2020 18:50:17 8.6 C 20 %
1122 26-03-2020 19:00:17 8 C 20 %
1123 26-03-2020 19:10:17 7.4 C 20 %
1124 26-03-2020 19:20:17 6.9 C 21 %
1125 26-03-2020 19:30:17 6.7 C 21 %
Sensor: Nr:Datum:Temp:Feuchte:
Aussen-T/F 1126 26-03-2020 19:40:17 6.4 C 21 %
1127 26-03-2020 19:50:17 6.5 C 21 %
1128 26-03-2020 20:00:17 6.2 C 23 %
1129 26-03-2020 20:10:18 6 C 23 %
1130 26-03-2020 20:20:18 5.7 C 25 %
1131 26-03-2020 20:30:17 5.4 C 26 %
1132 26-03-2020 20:40:17 4.9 C 28 %
1133 26-03-2020 20:50:17 4.9 C 28 %
1134 26-03-2020 21:00:17 4.7 C 29 %
1135 26-03-2020 21:10:17 4.5 C 29 %
1136 26-03-2020 21:20:17 4.5 C 30 %
1137 26-03-2020 21:30:18 4.1 C 30 %
1138 26-03-2020 21:40:18 4.6 C 30 %
1139 26-03-2020 21:50:18 4.6 C 30 %
1140 26-03-2020 22:00:18 4.6 C 30 %
1141 26-03-2020 22:10:18 4.6 C 30 %
1142 26-03-2020 22:20:17 4.5 C 30 %
1143 26-03-2020 22:30:17 4.5 C 30 %
1144 26-03-2020 22:40:17 4.5 C 30 %
1145 26-03-2020 22:50:17 4.4 C 30 %
1146 26-03-2020 23:00:18 4.5 C 30 %
1147 26-03-2020 23:10:18 4.2 C 30 %
1148 26-03-2020 23:20:17 4.2 C 30 %
1149 26-03-2020 23:30:18 3.9 C 31 %
1150 26-03-2020 23:40:18 4 C 30 %
Sensor: Nr:Datum:Temp:Feuchte:
Aussen-T/F 1151 26-03-2020 23:50:18 3.9 C 31 %
1152 27-03-2020 00:00:18 4 C 30 %
1153 27-03-2020 00:10:18 3.9 C 31 %
1154 27-03-2020 00:20:17 4 C 30 %
1155 27-03-2020 00:30:17 4 C 30 %
1156 27-03-2020 00:40:17 3.7 C 32 %
1157 27-03-2020 00:50:18 3.6 C 32 %
1158 27-03-2020 01:00:18 2.7 C 35 %
1159 27-03-2020 01:10:18 2.5 C 36 %
1160 27-03-2020 01:20:17 3 C 35 %
1161 27-03-2020 01:30:18 3.1 C 35 %
1162 27-03-2020 01:40:18 2.7 C 36 %
1163 27-03-2020 01:50:18 3 C 35 %
1164 27-03-2020 02:00:18 2.9 C 35 %
1165 27-03-2020 02:10:18 2.8 C 35 %
1166 27-03-2020 02:20:17 2.7 C 35 %
1167 27-03-2020 02:30:17 2.5 C 36 %
1168 27-03-2020 02:40:17 2.5 C 36 %
1169 27-03-2020 02:50:17 2.6 C 35 %
1170 27-03-2020 03:00:17 2.6 C 35 %
1171 27-03-2020 03:10:17 2.2 C 36 %
1172 27-03-2020 03:20:17 2.5 C 35 %
1173 27-03-2020 03:30:17 2.4 C 35 %
1174 27-03-2020 03:40:17 2.6 C 35 %
1175 27-03-2020 03:50:17 2.4 C 36 %
Sensor: Nr:Datum:Temp:Feuchte:
Aussen-T/F 1176 27-03-2020 04:00:18 2.4 C 35 %
1177 27-03-2020 04:10:18 2.4 C 35 %
1178 27-03-2020 04:20:18 1.4 C 38 %
1179 27-03-2020 04:30:18 1.3 C 38 %
1180 27-03-2020 04:40:18 1.6 C 38 %
1181 27-03-2020 04:50:17 1.8 C 37 %
1182 27-03-2020 05:00:18 1.5 C 38 %
1183 27-03-2020 05:10:18 0.7 C 40 %
1184 27-03-2020 05:20:18 0.4 C 40 %
1185 27-03-2020 05:30:18 0 C 41 %
1186 27-03-2020 05:40:18 0 C 42 %
1187 27-03-2020 05:50:18 -0.1 C 42 %
1188 27-03-2020 06:00:18 -0.5 C 42 %
1189 27-03-2020 06:10:18 -0.6 C 43 %
1190 27-03-2020 06:20:18 -0.4 C 43 %
1191 27-03-2020 06:30:18 -0.4 C 43 %
1192 27-03-2020 06:40:18 -0.3 C 43 %
1193 27-03-2020 06:50:17 -0.3 C 43 %
1194 27-03-2020 07:00:18 -0.2 C 43 %
1195 27-03-2020 07:10:18 -0.1 C 43 %
1196 27-03-2020 07:20:18 0.1 C 43 %
1197 27-03-2020 07:30:18 0.3 C 43 %
1198 27-03-2020 07:40:18 0.8 C 43 %
1199 27-03-2020 07:50:17 1.2 C 41 %
1200 27-03-2020 08:00:17 1.1 C 41 %
Sensor: Nr:Datum:Temp:Feuchte:
Aussen-T/F 1201 27-03-2020 08:10:18 1.9 C 40 %
1202 27-03-2020 08:20:18 1.7 C 40 %
1203 27-03-2020 08:30:18 1.6 C 41 %
1204 27-03-2020 08:40:18 1.9 C 41 %
1205 27-03-2020 08:50:17 2.6 C 39 %
1206 27-03-2020 09:00:18 3 C 38 %
1207 27-03-2020 09:10:18 3.3 C 37 %
1208 27-03-2020 09:20:17 3.6 C 37 %
1209 27-03-2020 09:30:18 4.1 C 36 %
1210 27-03-2020 09:40:18 4.5 C 35 %
1211 27-03-2020 09:50:18 5.3 C 35 %
1212 27-03-2020 10:00:18 5.8 C 34 %
1213 27-03-2020 10:10:18 6.5 C 32 %
1214 27-03-2020 10:20:17 7.6 C 30 %
1215 27-03-2020 10:30:17 8.1 C 28 %
1216 27-03-2020 10:40:17 9.1 C 25 %
1217 27-03-2020 10:50:17 9.3 C 25 %
1218 27-03-2020 11:00:17 10.2 C 20 %
1219 27-03-2020 11:10:17 11 C 20 %
1220 27-03-2020 11:20:17 12.4 C 20 %
1221 27-03-2020 11:30:17 14.5 C 20 %
1222 27-03-2020 11:40:17 14.2 C 20 %
1223 27-03-2020 11:50:17 12.5 C 20 %
1224 27-03-2020 12:00:17 13.4 C 20 %
1225 27-03-2020 12:10:17 13.7 C 20 %
Sensor: Nr:Datum:Temp:Feuchte:
Aussen-T/F 1226 27-03-2020 12:20:17 14.4 C 20 %
1227 27-03-2020 12:30:17 14.1 C 20 %
1228 27-03-2020 12:40:18 14.2 C 20 %
1229 27-03-2020 12:50:18 14.6 C 20 %
1230 27-03-2020 13:00:18 16.6 C 20 %
1231 27-03-2020 13:10:18 15.8 C 20 %
1232 27-03-2020 13:20:17 17.6 C 20 %
1233 27-03-2020 13:30:18 18.8 C 20 %
1234 27-03-2020 13:40:18 16.8 C 20 %
1235 27-03-2020 13:50:18 17.3 C 20 %
1236 27-03-2020 14:00:18 16.9 C 20 %
1237 27-03-2020 14:10:18 17.6 C 20 %
1238 27-03-2020 14:20:18 17.7 C 20 %
1239 27-03-2020 14:30:17 20.4 C 20 %
1240 27-03-2020 14:40:17 18.1 C 20 %
1241 27-03-2020 14:50:17 18.4 C 20 %
1242 27-03-2020 15:00:17 18.5 C 20 %
1243 27-03-2020 15:10:17 18.7 C 20 %
1244 27-03-2020 15:20:17 18.9 C 20 %
1245 27-03-2020 15:30:18 19.4 C 20 %
1246 27-03-2020 15:40:18 18.3 C 20 %
1247 27-03-2020 15:50:17 19.5 C 20 %
1248 27-03-2020 16:00:17 18.5 C 20 %
1249 27-03-2020 16:10:17 18.2 C 20 %
1250 27-03-2020 16:20:17 19.2 C 20 %
Sensor: Nr:Datum:Temp:Feuchte:
Aussen-T/F 1251 27-03-2020 16:30:17 18.3 C 20 %
1252 27-03-2020 16:40:17 18 C 20 %
1253 27-03-2020 16:50:17 17 C 20 %
1254 27-03-2020 17:00:18 16.4 C 20 %
1255 27-03-2020 17:10:18 16.3 C 20 %
1256 27-03-2020 17:20:18 16.1 C 20 %
1257 27-03-2020 17:30:18 16 C 20 %
1258 27-03-2020 17:40:18 15.8 C 20 %
1259 27-03-2020 17:50:18 15.7 C 20 %
1260 27-03-2020 18:00:17 15.4 C 20 %
1261 27-03-2020 18:10:17 15 C 20 %
1262 27-03-2020 18:20:17 14.1 C 20 %
1263 27-03-2020 18:30:18 13.5 C 20 %
1264 27-03-2020 18:40:18 12.9 C 20 %
1265 27-03-2020 18:50:18 12.3 C 20 %
1266 27-03-2020 19:00:18 11.8 C 20 %
1267 27-03-2020 19:10:18 11.5 C 20 %
1268 27-03-2020 19:20:17 11.4 C 20 %
1269 27-03-2020 19:30:17 10.7 C 20 %
1270 27-03-2020 19:40:17 10.7 C 21 %
1271 27-03-2020 19:50:17 10.4 C 23 %
1272 27-03-2020 20:00:18 10.4 C 22 %
1273 27-03-2020 20:10:18 9.2 C 26 %
1274 27-03-2020 20:20:17 8.9 C 28 %
1275 27-03-2020 20:30:17 8.4 C 30 %
Sensor: Nr:Datum:Temp:Feuchte:
Aussen-T/F 1276 27-03-2020 20:40:17 8.1 C 30 %
1277 27-03-2020 20:50:18 7.8 C 31 %
1278 27-03-2020 21:00:17 7.4 C 31 %
1279 27-03-2020 21:10:17 7.3 C 32 %
1280 27-03-2020 21:20:17 7.1 C 32 %
1281 27-03-2020 21:30:17 7 C 32 %
1282 27-03-2020 21:40:17 6.6 C 33 %
1283 27-03-2020 21:50:17 6.6 C 34 %
1284 27-03-2020 22:00:17 6.4 C 34 %
1285 27-03-2020 22:10:17 6.3 C 34 %
1286 27-03-2020 22:20:17 6 C 35 %
1287 27-03-2020 22:30:18 5.8 C 35 %
1288 27-03-2020 22:40:18 5.6 C 35 %
1289 27-03-2020 22:50:18 5.5 C 36 %
1290 27-03-2020 23:00:18 5.6 C 36 %
1291 27-03-2020 23:10:18 5.6 C 36 %
1292 27-03-2020 23:20:17 5.3 C 36 %
1293 27-03-2020 23:30:17 5.2 C 36 %
1294 27-03-2020 23:40:17 5.1 C 36 %
1295 27-03-2020 23:50:17 4.8 C 37 %
1296 28-03-2020 00:00:17 4.8 C 38 %
1297 28-03-2020 00:10:17 4.8 C 39 %
1298 28-03-2020 00:20:17 5 C 37 %
1299 28-03-2020 00:30:18 4.9 C 38 %
1300 28-03-2020 00:40:18 4.7 C 38 %
Sensor: Nr:Datum:Temp:Feuchte:
Aussen-T/F 1301 28-03-2020 00:50:17 4.7 C 38 %
1302 28-03-2020 01:00:17 4.6 C 38 %
1303 28-03-2020 01:10:17 4.4 C 39 %
1304 28-03-2020 01:20:17 4.3 C 39 %
1305 28-03-2020 01:30:17 4.1 C 39 %
1306 28-03-2020 01:40:18 3.9 C 40 %
1307 28-03-2020 01:50:17 3.7 C 41 %
1308 28-03-2020 02:00:18 3.6 C 41 %
1309 28-03-2020 02:10:18 3.3 C 41 %
1310 28-03-2020 02:20:18 3.1 C 41 %
1311 28-03-2020 02:30:17 3.7 C 42 %
1312 28-03-2020 02:40:17 3.7 C 41 %
1313 28-03-2020 02:50:18 3.4 C 41 %
1314 28-03-2020 03:00:18 3.1 C 41 %
1315 28-03-2020 03:10:18 2.9 C 42 %
1316 28-03-2020 03:20:17 2.8 C 43 %
1317 28-03-2020 03:30:18 2.6 C 43 %
1318 28-03-2020 03:40:18 2.1 C 43 %
1319 28-03-2020 03:50:17 2.1 C 44 %
1320 28-03-2020 04:00:18 2.2 C 44 %
1321 28-03-2020 04:10:18 2.1 C 44 %
1322 28-03-2020 04:20:18 1.9 C 45 %
1323 28-03-2020 04:30:18 1.7 C 45 %
1324 28-03-2020 04:40:18 1.8 C 46 %
1325 28-03-2020 04:50:17 1.8 C 46 %
Sensor: Nr:Datum:Temp:Feuchte:
Aussen-T/F 1326 28-03-2020 05:00:18 1.7 C 45 %
1327 28-03-2020 05:10:18 1.6 C 45 %
1328 28-03-2020 05:20:17 1.5 C 45 %
1329 28-03-2020 05:30:18 1.3 C 46 %
1330 28-03-2020 05:40:18 1.2 C 46 %
1331 28-03-2020 05:50:18 1.2 C 46 %
1332 28-03-2020 06:00:18 1.2 C 46 %
1333 28-03-2020 06:10:18 1.3 C 46 %
1334 28-03-2020 06:20:17 1.1 C 46 %
1335 28-03-2020 06:30:17 1.1 C 46 %
1336 28-03-2020 06:40:17 1 C 46 %
1337 28-03-2020 06:50:17 1.2 C 47 %
1338 28-03-2020 07:00:17 1.5 C 47 %
1339 28-03-2020 07:10:17 1.7 C 47 %
1340 28-03-2020 07:20:17 1.9 C 47 %
1341 28-03-2020 07:30:18 1.9 C 46 %
1342 28-03-2020 07:40:18 1.9 C 46 %
1343 28-03-2020 07:50:17 2 C 45 %
1344 28-03-2020 08:00:17 2.2 C 45 %
1345 28-03-2020 08:10:18 2.5 C 45 %
1346 28-03-2020 08:20:18 2.8 C 46 %
1347 28-03-2020 08:30:17 3.2 C 45 %
1348 28-03-2020 08:40:17 3.7 C 44 %
1349 28-03-2020 08:50:18 4 C 43 %
1350 28-03-2020 09:00:18 4.6 C 43 %
Sensor: Nr:Datum:Temp:Feuchte:
Aussen-T/F 1351 28-03-2020 09:10:18 5.1 C 41 %
1352 28-03-2020 09:20:17 5.7 C 41 %
1353 28-03-2020 09:30:18 6.3 C 40 %
1354 28-03-2020 09:40:18 6.9 C 40 %
1355 28-03-2020 09:50:18 7.8 C 38 %
1356 28-03-2020 10:00:18 8.4 C 37 %
1357 28-03-2020 10:10:18 9.5 C 35 %
1358 28-03-2020 10:20:17 10.2 C 32 %
1359 28-03-2020 10:30:17 10.9 C 31 %
1360 28-03-2020 10:40:17 11.6 C 30 %
1361 28-03-2020 10:50:18 12.2 C 29 %
1362 28-03-2020 11:00:18 13.4 C 26 %
1363 28-03-2020 11:10:18 13.6 C 25 %
1364 28-03-2020 11:20:17 15.8 C 20 %
1365 28-03-2020 11:30:17 16.7 C 20 %
1366 28-03-2020 11:40:17 16.4 C 20 %
1367 28-03-2020 11:50:18 15.9 C 20 %
1368 28-03-2020 12:00:17 16.6 C 20 %
1369 28-03-2020 12:10:17 17 C 20 %
1370 28-03-2020 12:20:17 17.7 C 20 %
1371 28-03-2020 12:30:17 17.8 C 20 %
1372 28-03-2020 12:40:17 18.1 C 20 %
1373 28-03-2020 12:50:18 18 C 20 %
1374 28-03-2020 13:00:18 18.6 C 20 %
1375 28-03-2020 13:10:18 19.6 C 20 %
Sensor: Nr:Datum:Temp:Feuchte:
Aussen-T/F 1376 28-03-2020 13:20:18 21.7 C 20 %
1377 28-03-2020 13:30:17 21.1 C 20 %
1378 28-03-2020 13:40:17 20.7 C 20 %
1379 28-03-2020 13:50:18 20.6 C 20 %
1380 28-03-2020 14:00:17 21.1 C 20 %
1381 28-03-2020 14:10:17 21.3 C 20 %
1382 28-03-2020 14:20:17 21.9 C 20 %
1383 28-03-2020 14:30:17 23.7 C 20 %
1384 28-03-2020 14:40:17 24.3 C 20 %
1385 28-03-2020 14:50:17 23.2 C 20 %
1386 28-03-2020 15:00:18 22.4 C 20 %
1387 28-03-2020 15:10:18 19.9 C 20 %
1388 28-03-2020 15:20:18 18.6 C 20 %
1389 28-03-2020 15:30:18 19.6 C 20 %
1390 28-03-2020 15:40:18 22.1 C 20 %
1391 28-03-2020 15:50:18 20.5 C 20 %
1392 28-03-2020 16:00:18 21.1 C 20 %
1393 28-03-2020 16:10:18 21.1 C 20 %
1394 28-03-2020 16:20:18 19.9 C 20 %
1395 28-03-2020 16:30:18 19.6 C 20 %
1396 28-03-2020 16:40:18 19.6 C 20 %
1397 28-03-2020 16:50:18 18.5 C 20 %
1398 28-03-2020 17:00:18 17.9 C 20 %
1399 28-03-2020 17:10:18 17 C 20 %
1400 28-03-2020 17:20:18 16.6 C 20 %
Sensor: Nr:Datum:Temp:Feuchte:
Aussen-T/F 1401 28-03-2020 17:30:18 16.2 C 20 %
1402 28-03-2020 17:40:18 16.2 C 20 %
1403 28-03-2020 17:50:17 15.4 C 20 %
1404 28-03-2020 18:00:18 14.9 C 20 %
1405 28-03-2020 18:10:18 14.6 C 20 %
1406 28-03-2020 18:20:17 14 C 20 %
1407 28-03-2020 18:30:17 13.5 C 20 %
1408 28-03-2020 18:40:17 13.1 C 20 %
1409 28-03-2020 18:50:18 12.6 C 20 %
1410 28-03-2020 19:00:18 12.3 C 20 %
1411 28-03-2020 19:10:18 11.7 C 20 %
1412 28-03-2020 19:20:18 11.7 C 20 %
1413 28-03-2020 19:30:18 11.4 C 20 %
1414 28-03-2020 19:40:18 11.2 C 20 %
1415 28-03-2020 19:50:17 10.8 C 20 %
1416 28-03-2020 20:00:18 10.3 C 20 %
1417 28-03-2020 20:10:18 10.7 C 20 %
1418 28-03-2020 20:20:17 10.5 C 20 %
1419 28-03-2020 20:30:18 10 C 20 %
1420 28-03-2020 20:40:18 9.2 C 20 %
1421 28-03-2020 20:50:17 8.7 C 20 %
1422 28-03-2020 21:00:17 8.8 C 20 %
1423 28-03-2020 21:10:17 9.2 C 20 %
1424 28-03-2020 21:20:17 8.7 C 23 %
1425 28-03-2020 21:30:17 8.1 C 25 %
Sensor: Nr:Datum:Temp:Feuchte:
Aussen-T/F 1426 28-03-2020 21:40:17 8.4 C 23 %
1427 28-03-2020 21:50:17 7.6 C 25 %
1428 28-03-2020 22:00:17 8.3 C 25 %
1429 28-03-2020 22:10:17 8.5 C 21 %
1430 28-03-2020 22:20:17 8.4 C 25 %
1431 28-03-2020 22:30:17 8.3 C 26 %
1432 28-03-2020 22:40:17 7.9 C 26 %
1433 28-03-2020 22:50:17 7.4 C 28 %
1434 28-03-2020 23:00:17 7.3 C 30 %
1435 28-03-2020 23:10:17 7.2 C 30 %
1436 28-03-2020 23:20:18 7.1 C 30 %
1437 28-03-2020 23:30:18 7.1 C 31 %
1438 28-03-2020 23:40:18 6.8 C 32 %
1439 28-03-2020 23:50:17 6.7 C 33 %
1440 29-03-2020 00:00:18 6.5 C 33 %
1441 29-03-2020 00:10:18 6.4 C 33 %
1442 29-03-2020 00:20:17 6.2 C 33 %
1443 29-03-2020 00:30:17 6.5 C 33 %
1444 29-03-2020 00:40:17 6.6 C 33 %
1445 29-03-2020 00:50:18 6.5 C 32 %
1446 29-03-2020 01:00:18 6.3 C 32 %
1447 29-03-2020 01:10:18 6.3 C 32 %
1448 29-03-2020 01:20:17 6.2 C 32 %
1449 29-03-2020 01:30:17 6.1 C 32 %
1450 29-03-2020 01:40:17 6 C 31 %
Sensor: Nr:Datum:Temp:Feuchte:
Aussen-T/F 1451 29-03-2020 01:50:17 6 C 31 %
1452 29-03-2020 02:00:17 5.8 C 31 %
1453 29-03-2020 02:10:17 5.7 C 31 %
1454 29-03-2020 02:20:18 5.4 C 31 %
1455 29-03-2020 02:30:18 5 C 31 %
1456 29-03-2020 02:40:18 4.7 C 32 %
1457 29-03-2020 02:50:18 4.7 C 32 %
1458 29-03-2020 04:00:18 4.6 C 31 %
1459 29-03-2020 04:10:18 4.2 C 32 %
1460 29-03-2020 04:20:17 4.1 C 31 %
1461 29-03-2020 04:30:17 4.3 C 31 %
1462 29-03-2020 04:40:17 4.4 C 31 %
1463 29-03-2020 04:50:18 4.3 C 31 %
1464 29-03-2020 05:00:17 4.4 C 32 %
1465 29-03-2020 05:10:17 4.3 C 32 %
1466 29-03-2020 05:20:17 4.2 C 31 %
1467 29-03-2020 05:30:17 4 C 31 %
1468 29-03-2020 05:40:17 3.8 C 32 %
1469 29-03-2020 05:50:18 3.5 C 32 %
1470 29-03-2020 06:00:18 3.1 C 32 %
1471 29-03-2020 06:10:18 2.8 C 33 %
1472 29-03-2020 06:20:17 2.5 C 33 %
1473 29-03-2020 06:30:18 2.9 C 33 %
1474 29-03-2020 06:40:18 3.2 C 32 %
1475 29-03-2020 06:50:17 3.3 C 33 %
Sensor: Nr:Datum:Temp:Feuchte:
Aussen-T/F 1476 29-03-2020 07:00:18 3.4 C 33 %
1477 29-03-2020 07:10:18 3.5 C 34 %
1478 29-03-2020 07:20:17 3.5 C 35 %
1479 29-03-2020 07:30:17 3.6 C 35 %
1480 29-03-2020 07:40:17 3.7 C 35 %
1481 29-03-2020 07:50:17 3.7 C 35 %
1482 29-03-2020 08:00:18 3.8 C 35 %
1483 29-03-2020 08:10:18 3.8 C 35 %
1484 29-03-2020 08:20:17 4.1 C 33 %
1485 29-03-2020 08:30:17 4.1 C 33 %
1486 29-03-2020 08:40:17 4.3 C 33 %
1487 29-03-2020 08:50:17 4 C 33 %
1488 29-03-2020 09:00:17 4.3 C 33 %
1489 29-03-2020 09:10:17 4.2 C 32 %
1490 29-03-2020 09:20:17 4.1 C 33 %
1491 29-03-2020 09:30:17 4.2 C 33 %
1492 29-03-2020 09:40:17 4.5 C 32 %
1493 29-03-2020 09:50:17 4.8 C 32 %
1494 29-03-2020 10:00:17 5 C 31 %
1495 29-03-2020 10:10:17 5.3 C 31 %
1496 29-03-2020 10:20:17 5.8 C 30 %
1497 29-03-2020 10:30:18 5.6 C 30 %
1498 29-03-2020 10:40:18 6.2 C 30 %
1499 29-03-2020 10:50:17 6.2 C 28 %
1500 29-03-2020 11:00:18 6.5 C 25 %
Sensor: Nr:Datum:Temp:Feuchte:
Aussen-T/F 1501 29-03-2020 11:10:18 6.5 C 25 %
1502 29-03-2020 11:20:18 6 C 25 %
1503 29-03-2020 11:30:18 6.1 C 25 %
1504 29-03-2020 11:40:18 6.2 C 25 %
1505 29-03-2020 11:50:17 6.3 C 25 %
1506 29-03-2020 12:00:17 6.2 C 25 %
1507 29-03-2020 12:10:17 5.6 C 27 %
1508 29-03-2020 12:20:17 5.5 C 27 %
1509 29-03-2020 12:30:17 5.7 C 27 %
1510 29-03-2020 12:40:17 5.8 C 26 %
1511 29-03-2020 12:50:18 6.4 C 26 %
1512 29-03-2020 13:00:18 6.3 C 25 %
1513 29-03-2020 13:10:18 6.1 C 25 %
1514 29-03-2020 13:20:17 6.6 C 23 %
1515 29-03-2020 13:30:17 6.8 C 20 %
1516 29-03-2020 13:40:18 8.1 C 20 %
1517 29-03-2020 13:50:17 8.4 C 20 %
1518 29-03-2020 14:00:18 7.6 C 20 %
1519 29-03-2020 14:10:18 7.5 C 20 %
1520 29-03-2020 14:20:17 7 C 20 %
1521 29-03-2020 14:30:17 6.7 C 20 %
1522 29-03-2020 14:40:17 6.5 C 20 %
1523 29-03-2020 14:50:17 6.7 C 20 %
1524 29-03-2020 15:00:17 7.2 C 20 %
1525 29-03-2020 15:10:17 7.4 C 20 %
Sensor: Nr:Datum:Temp:Feuchte:
Aussen-T/F 1526 29-03-2020 15:20:17 7.4 C 20 %
1527 29-03-2020 15:30:18 7.6 C 20 %
1528 29-03-2020 15:40:18 7.6 C 20 %
1529 29-03-2020 15:50:17 8 C 20 %
1530 29-03-2020 16:00:18 7.4 C 20 %
1531 29-03-2020 16:10:18 7 C 20 %
1532 29-03-2020 16:20:17 6.7 C 20 %
1533 29-03-2020 16:30:18 6.5 C 20 %
1534 29-03-2020 16:40:18 6.6 C 20 %
1535 29-03-2020 16:50:18 6.8 C 20 %
1536 29-03-2020 17:00:18 7 C 20 %
1537 29-03-2020 17:10:18 6.8 C 20 %
1538 29-03-2020 17:20:17 7.4 C 20 %
1539 29-03-2020 17:30:17 7 C 20 %
1540 29-03-2020 17:40:17 7 C 20 %
1541 29-03-2020 17:50:18 6.8 C 25 %
1542 29-03-2020 18:00:18 7.1 C 23 %
1543 29-03-2020 18:10:18 6.5 C 25 %
1544 29-03-2020 18:20:18 6.2 C 25 %
1545 29-03-2020 18:30:18 5.3 C 29 %
1546 29-03-2020 18:40:18 4.4 C 35 %
1547 29-03-2020 18:50:18 4.1 C 36 %
1548 29-03-2020 19:00:18 4 C 36 %
1549 29-03-2020 19:10:18 3.6 C 39 %
1550 29-03-2020 19:20:17 3.6 C 40 %
Sensor: Nr:Datum:Temp:Feuchte:
Aussen-T/F 1551 29-03-2020 19:30:17 3.4 C 40 %
1552 29-03-2020 19:40:17 3.2 C 41 %
1553 29-03-2020 19:50:17 3.1 C 41 %
1554 29-03-2020 20:00:17 3 C 41 %
1555 29-03-2020 20:10:17 3 C 41 %
1556 29-03-2020 20:20:18 2.9 C 42 %
1557 29-03-2020 20:30:18 3 C 41 %
1558 29-03-2020 20:40:18 3.3 C 40 %
1559 29-03-2020 20:50:18 3.5 C 40 %
1560 29-03-2020 21:00:18 3.6 C 39 %
1561 29-03-2020 21:10:18 3.7 C 39 %
1562 29-03-2020 21:20:18 3.7 C 38 %
1563 29-03-2020 21:30:17 3.7 C 37 %
1564 29-03-2020 21:40:17 3.8 C 37 %
1565 29-03-2020 21:50:17 3.8 C 37 %
1566 29-03-2020 22:00:17 3.7 C 37 %
1567 29-03-2020 22:10:17 3.7 C 36 %
1568 29-03-2020 22:20:18 3.7 C 36 %
1569 29-03-2020 22:30:18 3.6 C 36 %
1570 29-03-2020 22:40:18 3.6 C 36 %
1571 29-03-2020 22:50:18 3.6 C 35 %
1572 29-03-2020 23:00:18 3.6 C 35 %
1573 29-03-2020 23:10:18 3.5 C 35 %
1574 29-03-2020 23:20:17 3.4 C 34 %
1575 29-03-2020 23:30:17 3.3 C 33 %
Sensor: Nr:Datum:Temp:Feuchte:
Aussen-T/F 1576 29-03-2020 23:40:17 3.1 C 33 %
1577 29-03-2020 23:50:17 2.9 C 33 %
1578 30-03-2020 00:00:18 2.5 C 34 %
1579 30-03-2020 00:10:18 2.4 C 33 %
1580 30-03-2020 00:20:17 2.4 C 33 %
1581 30-03-2020 00:30:17 1.7 C 35 %
1582 30-03-2020 00:40:17 1 C 36 %
1583 30-03-2020 00:50:17 0.3 C 38 %
1584 30-03-2020 01:00:18 0.2 C 38 %
1585 30-03-2020 01:10:18 0.3 C 38 %
1586 30-03-2020 01:20:17 0.3 C 37 %
1587 30-03-2020 01:30:18 0.5 C 36 %
1588 30-03-2020 01:40:18 -0.1 C 37 %
1589 30-03-2020 01:50:17 -0.3 C 37 %
1590 30-03-2020 02:00:17 -0.8 C 38 %
1591 30-03-2020 02:10:17 -0.9 C 38 %
1592 30-03-2020 02:20:17 -1.5 C 39 %
1593 30-03-2020 02:30:18 -1.7 C 39 %
1594 30-03-2020 02:40:18 -1.6 C 40 %
1595 30-03-2020 02:50:17 -1.6 C 39 %
1596 30-03-2020 03:00:18 -1.7 C 39 %
1597 30-03-2020 03:10:18 -1.3 C 38 %
1598 30-03-2020 03:20:18 -1.7 C 39 %
1599 30-03-2020 03:30:18 -2.2 C 40 %
1600 30-03-2020 03:40:18 -2.1 C 40 %
Sensor: Nr:Datum:Temp:Feuchte:
Aussen-T/F 1601 30-03-2020 03:50:17 -2.1 C 40 %
1602 30-03-2020 04:00:18 -1.9 C 39 %
1603 30-03-2020 04:10:18 -2.2 C 39 %
1604 30-03-2020 04:20:17 -2 C 39 %
1605 30-03-2020 04:30:17 -2.4 C 39 %
1606 30-03-2020 04:40:17 -2.6 C 39 %
1607 30-03-2020 04:50:17 -2.4 C 39 %
1608 30-03-2020 05:00:17 -2.4 C 38 %
1609 30-03-2020 05:10:17 -2.5 C 38 %
1610 30-03-2020 05:20:17 -2.7 C 38 %
1611 30-03-2020 05:30:18 -3 C 39 %
1612 30-03-2020 05:40:18 -3 C 38 %
1613 30-03-2020 05:50:17 -3 C 38 %
1614 30-03-2020 06:00:18 -3 C 38 %
1615 30-03-2020 06:10:18 -3.4 C 38 %
1616 30-03-2020 06:20:17 -3.7 C 39 %
1617 30-03-2020 06:30:17 -3.9 C 40 %
1618 30-03-2020 06:40:17 -4.1 C 40 %
1619 30-03-2020 06:50:17 -3.3 C 39 %
1620 30-03-2020 07:00:17 -3.7 C 40 %
1621 30-03-2020 07:10:17 -3.2 C 39 %
1622 30-03-2020 07:20:17 -3.8 C 39 %
1623 30-03-2020 07:30:18 -4.3 C 40 %
1624 30-03-2020 07:40:18 -4.5 C 40 %
1625 30-03-2020 07:50:17 -4.5 C 40 %
Sensor: Nr:Datum:Temp:Feuchte:
Aussen-T/F 1626 30-03-2020 08:00:18 -3.8 C 40 %
1627 30-03-2020 08:10:18 -3.9 C 40 %
1628 30-03-2020 08:20:18 -4.1 C 40 %
1629 30-03-2020 08:30:18 -3.7 C 39 %
1630 30-03-2020 08:40:18 -3.3 C 39 %
1631 30-03-2020 08:50:17 -3.2 C 38 %
1632 30-03-2020 09:00:18 -3.1 C 38 %
1633 30-03-2020 09:10:18 -2.7 C 37 %
1634 30-03-2020 09:20:18 -2.6 C 37 %
1635 30-03-2020 09:30:18 -2.5 C 37 %
1636 30-03-2020 09:40:18 -2.1 C 37 %
1637 30-03-2020 09:50:18 -2.1 C 37 %
1638 30-03-2020 10:00:18 -1.6 C 36 %
1639 30-03-2020 10:10:18 -1.7 C 37 %
1640 30-03-2020 10:20:17 -1.5 C 37 %
1641 30-03-2020 10:30:17 -1.3 C 36 %
1642 30-03-2020 10:40:17 0.1 C 31 %
1643 30-03-2020 10:50:17 1 C 21 %
1644 30-03-2020 11:00:17 1.1 C 23 %
1645 30-03-2020 11:10:18 2 C 20 %
1646 30-03-2020 11:20:18 2.4 C 20 %
1647 30-03-2020 11:30:18 2.8 C 20 %
1648 30-03-2020 11:40:18 2.9 C 20 %
1649 30-03-2020 11:50:18 3.2 C 20 %
1650 30-03-2020 12:00:18 3.7 C 20 %
Sensor: Nr:Datum:Temp:Feuchte:
Aussen-T/F 1651 30-03-2020 12:10:18 4 C 20 %
1652 30-03-2020 12:20:18 6.4 C 20 %
1653 30-03-2020 12:30:18 7.6 C 20 %
1654 30-03-2020 12:40:18 6.3 C 20 %
1655 30-03-2020 12:50:18 5.1 C 20 %
1656 30-03-2020 13:00:18 6.6 C 20 %
1657 30-03-2020 13:10:18 6.5 C 20 %
1658 30-03-2020 13:20:18 5.6 C 20 %
1659 30-03-2020 13:30:17 5.9 C 20 %
1660 30-03-2020 13:40:17 7 C 20 %
1661 30-03-2020 13:50:17 6.4 C 20 %
1662 30-03-2020 14:00:17 7.1 C 20 %
1663 30-03-2020 14:10:17 8.4 C 20 %
1664 30-03-2020 14:20:18 8.9 C 20 %
1665 30-03-2020 14:30:18 9.5 C 20 %
1666 30-03-2020 14:40:18 9.7 C 20 %
1667 30-03-2020 14:50:18 10.8 C 20 %
1668 30-03-2020 15:00:18 11.3 C 20 %
1669 30-03-2020 15:10:18 11.7 C 20 %
1670 30-03-2020 15:20:17 11.6 C 20 %
1671 30-03-2020 15:30:18 13.5 C 20 %
1672 30-03-2020 15:40:18 13.6 C 20 %
1673 30-03-2020 15:50:18 11.9 C 20 %
1674 30-03-2020 16:00:18 12.9 C 20 %
1675 30-03-2020 16:10:18 13.6 C 20 %
Sensor: Nr:Datum:Temp:Feuchte:
Aussen-T/F 1676 30-03-2020 16:20:17 15.2 C 20 %
1677 30-03-2020 16:30:18 9.9 C 20 %
1678 30-03-2020 16:40:18 13.9 C 20 %
1679 30-03-2020 16:50:18 13.6 C 20 %
1680 30-03-2020 17:00:17 10.1 C 20 %
1681 30-03-2020 17:10:17 13.4 C 20 %
1682 30-03-2020 17:20:18 12.5 C 20 %
1683 30-03-2020 17:30:18 12.6 C 20 %
1684 30-03-2020 17:40:18 11.6 C 20 %
1685 30-03-2020 17:50:18 10.2 C 20 %
1686 30-03-2020 18:00:18 8.7 C 20 %
1687 30-03-2020 18:10:18 7.6 C 20 %
1688 30-03-2020 18:20:18 7.9 C 20 %
1689 30-03-2020 18:30:18 8.2 C 20 %
1690 30-03-2020 18:40:18 7.7 C 20 %
1691 30-03-2020 18:50:18 7.8 C 20 %
1692 30-03-2020 19:00:18 7.3 C 20 %
1693 30-03-2020 19:10:18 7.1 C 20 %
1694 30-03-2020 19:20:17 6.5 C 20 %
1695 30-03-2020 19:30:18 6.3 C 20 %
1696 30-03-2020 19:40:18 5.8 C 20 %
1697 30-03-2020 19:50:17 5 C 20 %
1698 30-03-2020 20:00:18 3.8 C 27 %
1699 30-03-2020 20:10:18 3 C 30 %
1700 30-03-2020 20:20:17 2.8 C 30 %
Sensor: Nr:Datum:Temp:Feuchte:
Aussen-T/F 1701 30-03-2020 20:30:18 3.3 C 31 %
1702 30-03-2020 20:40:18 3.2 C 30 %
1703 30-03-2020 20:50:18 3.3 C 31 %
1704 30-03-2020 21:00:18 4 C 29 %
1705 30-03-2020 21:10:18 4.1 C 29 %
1706 30-03-2020 21:20:18 4.2 C 30 %
1707 30-03-2020 21:30:18 4.3 C 30 %
1708 30-03-2020 21:40:18 4.2 C 30 %
1709 30-03-2020 21:50:18 4.1 C 30 %
1710 30-03-2020 22:00:18 3.7 C 32 %
1711 30-03-2020 22:10:18 3.7 C 33 %
1712 30-03-2020 22:20:17 3.9 C 32 %
1713 30-03-2020 22:30:18 4 C 31 %
1714 30-03-2020 22:40:18 4.1 C 31 %
1715 30-03-2020 22:50:18 4.2 C 31 %
1716 30-03-2020 23:00:18 4.1 C 31 %
1717 30-03-2020 23:10:18 4.2 C 30 %
1718 30-03-2020 23:20:18 4.2 C 31 %
1719 30-03-2020 23:30:18 4.1 C 31 %
1720 30-03-2020 23:40:18 4.2 C 31 %
1721 30-03-2020 23:50:17 4.2 C 31 %
1722 31-03-2020 00:00:18 4.3 C 30 %
1723 31-03-2020 00:10:18 4.3 C 30 %
1724 31-03-2020 00:20:18 4.2 C 31 %
1725 31-03-2020 00:30:18 4.2 C 31 %
Sensor: Nr:Datum:Temp:Feuchte:
Aussen-T/F 1726 31-03-2020 00:40:18 4.2 C 31 %
1727 31-03-2020 00:50:18 4.3 C 31 %
1728 31-03-2020 01:00:18 4.4 C 32 %
1729 31-03-2020 01:10:18 4 C 34 %
1730 31-03-2020 01:20:18 3.8 C 36 %
1731 31-03-2020 01:30:18 3.8 C 36 %
1732 31-03-2020 01:40:18 3.7 C 37 %
1733 31-03-2020 01:50:18 4 C 37 %
1734 31-03-2020 02:00:18 3.9 C 38 %
1735 31-03-2020 02:10:18 3.4 C 39 %
1736 31-03-2020 02:20:17 3.5 C 39 %
1737 31-03-2020 02:30:18 3.7 C 39 %
1738 31-03-2020 02:40:18 3.3 C 40 %
1739 31-03-2020 02:50:18 2.8 C 41 %
1740 31-03-2020 03:00:18 2.5 C 41 %
1741 31-03-2020 03:10:18 2.2 C 42 %
1742 31-03-2020 03:20:17 2.4 C 42 %
1743 31-03-2020 03:30:18 2.3 C 42 %
1744 31-03-2020 03:40:18 2.3 C 43 %
1745 31-03-2020 03:50:18 2.7 C 43 %
1746 31-03-2020 04:00:18 2.9 C 42 %
1747 31-03-2020 04:10:18 3 C 42 %
1748 31-03-2020 04:20:18 3.1 C 42 %
1749 31-03-2020 04:30:17 3.2 C 42 %
1750 31-03-2020 04:40:18 3.2 C 41 %
Sensor: Nr:Datum:Temp:Feuchte:
Aussen-T/F 1751 31-03-2020 04:50:17 3.5 C 41 %
1752 31-03-2020 05:00:18 3.4 C 41 %
1753 31-03-2020 05:10:18 3 C 41 %
1754 31-03-2020 05:20:17 2.8 C 43 %
1755 31-03-2020 05:30:18 2.5 C 43 %
1756 31-03-2020 05:40:18 2.3 C 43 %
1757 31-03-2020 05:50:18 1.9 C 44 %
1758 31-03-2020 06:00:18 1.7 C 44 %
1759 31-03-2020 06:10:18 1.6 C 45 %
1760 31-03-2020 06:20:18 1.5 C 45 %
1761 31-03-2020 06:30:18 1.7 C 45 %
1762 31-03-2020 06:40:18 2 C 45 %
1763 31-03-2020 06:50:18 2.1 C 45 %
1764 31-03-2020 07:00:18 2.2 C 45 %
1765 31-03-2020 07:10:18 2.3 C 45 %
1766 31-03-2020 07:20:18 2.2 C 44 %
1767 31-03-2020 07:30:18 2.1 C 44 %
1768 31-03-2020 07:40:18 1.7 C 45 %
1769 31-03-2020 07:50:17 2 C 45 %
1770 31-03-2020 08:00:18 2.5 C 45 %
1771 31-03-2020 08:10:18 3.1 C 43 %
1772 31-03-2020 08:20:18 3.3 C 42 %
1773 31-03-2020 08:30:18 3.5 C 41 %
1774 31-03-2020 08:40:18 3.7 C 40 %
1775 31-03-2020 08:50:17 4 C 38 %
Sensor: Nr:Datum:Temp:Feuchte:
Aussen-T/F 1776 31-03-2020 09:00:18 3.9 C 38 %
1777 31-03-2020 09:10:18 3.9 C 37 %
1778 31-03-2020 09:20:18 4 C 36 %
1779 31-03-2020 09:30:17 4 C 36 %
1780 31-03-2020 09:40:17 4.1 C 35 %
1781 31-03-2020 09:50:18 4.3 C 35 %
1782 31-03-2020 10:00:18 4.8 C 34 %
1783 31-03-2020 10:10:18 4.7 C 34 %
1784 31-03-2020 10:20:18 4.5 C 34 %
1785 31-03-2020 10:30:18 4.4 C 34 %
1786 31-03-2020 10:40:18 4.3 C 34 %
1787 31-03-2020 10:50:17 4.3 C 33 %
1788 31-03-2020 11:00:17 4.3 C 33 %
1789 31-03-2020 11:10:17 4.4 C 32 %
1790 31-03-2020 11:20:18 4.7 C 31 %
1791 31-03-2020 11:30:18 5.4 C 30 %
1792 31-03-2020 11:40:18 5.3 C 30 %
1793 31-03-2020 11:50:17 5.3 C 29 %
1794 31-03-2020 12:00:18 5.6 C 27 %
1795 31-03-2020 12:10:18 6.3 C 25 %
1796 31-03-2020 12:20:17 6.4 C 20 %
1797 31-03-2020 12:30:18 9.2 C 20 %
1798 31-03-2020 12:40:18 8.4 C 20 %
1799 31-03-2020 12:50:18 7 C 20 %
1800 31-03-2020 13:00:17 7.5 C 20 %
Sensor: Nr:Datum:Temp:Feuchte:
Aussen-T/F 1801 31-03-2020 13:10:17 7.1 C 20 %
1802 31-03-2020 13:20:17 7.3 C 20 %
1803 31-03-2020 13:30:17 7 C 20 %
1804 31-03-2020 13:40:17 8.1 C 20 %
1805 31-03-2020 13:51:17 8.4 C 20 %
1806 31-03-2020 14:00:17 8.5 C 20 %
1807 31-03-2020 14:10:17 9.7 C 20 %
1808 31-03-2020 14:20:17 11.2 C 20 %
1809 31-03-2020 14:30:17 12.6 C 20 %
1810 31-03-2020 14:40:17 11.7 C 20 %
1811 31-03-2020 14:51:17 12 C 20 %
1812 31-03-2020 15:00:17 12 C 20 %
1813 31-03-2020 15:10:18 13.1 C 20 %
1814 31-03-2020 15:20:17 13.2 C 20 %
1815 31-03-2020 15:30:17 13.5 C 20 %
1816 31-03-2020 15:40:17 14.6 C 20 %
1817 31-03-2020 15:50:18 13.9 C 20 %
1818 31-03-2020 16:00:17 16.8 C 20 %
1819 31-03-2020 16:10:17 14.8 C 20 %
1820 31-03-2020 16:20:17 15.8 C 20 %
1821 31-03-2020 16:31:17 15.1 C 20 %
1822 31-03-2020 16:40:17 14 C 20 %
1823 31-03-2020 16:50:17 13.3 C 20 %
1824 31-03-2020 17:00:17 14.4 C 20 %
1825 31-03-2020 17:10:17 16.2 C 20 %
Sensor: Nr:Datum:Temp:Feuchte:
Aussen-T/F 1826 31-03-2020 17:21:17 15.3 C 20 %
1827 31-03-2020 17:31:17 14.7 C 20 %
1828 31-03-2020 17:40:17 15.5 C 20 %
1829 31-03-2020 17:51:17 10.6 C 20 %
1830 31-03-2020 18:01:17 10.5 C 20 %
1831 31-03-2020 18:11:17 10.2 C 20 %
1832 31-03-2020 18:21:17 9.8 C 20 %
1833 31-03-2020 18:31:17 9.6 C 20 %
1834 31-03-2020 18:40:17 9.4 C 20 %
1835 31-03-2020 18:51:17 9.1 C 20 %
1836 31-03-2020 19:00:17 9.1 C 20 %
1837 31-03-2020 19:10:17 8.8 C 20 %
1838 31-03-2020 19:20:17 8.7 C 20 %
1839 31-03-2020 19:31:17 8.2 C 20 %
1840 31-03-2020 19:41:17 7.7 C 20 %
1841 31-03-2020 19:50:17 6.6 C 20 %
1842 31-03-2020 20:01:17 5.6 C 20 %
1843 31-03-2020 20:11:17 5.5 C 20 %
1844 31-03-2020 20:21:17 5.3 C 20 %
1845 31-03-2020 20:31:17 4.7 C 20 %
1846 31-03-2020 20:41:17 4.4 C 20 %
1847 31-03-2020 20:51:17 4 C 20 %
1848 31-03-2020 21:00:17 3.7 C 20 %
1849 31-03-2020 21:10:18 3.9 C 20 %
1850 31-03-2020 21:21:17 3.7 C 20 %
Sensor: Nr:Datum:Temp:Feuchte:
Aussen-T/F 1851 31-03-2020 21:31:17 3.5 C 20 %
1852 31-03-2020 21:41:17 3.2 C 23 %
1853 31-03-2020 21:51:17 3.2 C 23 %
1854 31-03-2020 22:00:18 3 C 23 %
1855 31-03-2020 22:10:18 2.7 C 25 %
1856 31-03-2020 22:21:17 2.7 C 25 %
1857 31-03-2020 22:31:17 2.6 C 25 %
1858 31-03-2020 22:41:17 1.8 C 30 %
1859 31-03-2020 22:50:18 1.6 C 30 %
1860 31-03-2020 23:01:17 1.6 C 30 %
1861 31-03-2020 23:11:17 1.7 C 30 %
1862 31-03-2020 23:21:17 1.4 C 31 %
1863 31-03-2020 23:30:17 1.3 C 31 %
1864 31-03-2020 23:40:18 1.6 C 31 %
1865 31-03-2020 23:51:17 0.9 C 32 %
1866 01-04-2020 00:01:17 1.2 C 31 %
1867 01-04-2020 00:11:17 0 C 35 %
1868 01-04-2020 00:21:17 0.8 C 33 %
1869 01-04-2020 00:31:17 0.6 C 32 %
1870 01-04-2020 00:41:17 0.5 C 33 %
1871 01-04-2020 00:51:17 -0.3 C 35 %
1872 01-04-2020 01:01:17 -0.1 C 36 %
1873 01-04-2020 01:11:17 -0.3 C 35 %
1874 01-04-2020 01:21:17 -1 C 37 %
1875 01-04-2020 01:30:18 -1.4 C 38 %
Sensor: Nr:Datum:Temp:Feuchte:
Aussen-T/F 1876 01-04-2020 01:40:18 -1.7 C 38 %
1877 01-04-2020 01:51:17 -1.9 C 38 %
1878 01-04-2020 02:01:17 -1.9 C 38 %
1879 01-04-2020 02:11:17 -2 C 38 %
1880 01-04-2020 02:21:17 -2.1 C 38 %
1881 01-04-2020 02:31:17 -2.3 C 39 %
1882 01-04-2020 02:41:17 -2.4 C 38 %
1883 01-04-2020 02:50:18 -2.4 C 39 %
1884 01-04-2020 03:01:17 -2.5 C 38 %
1885 01-04-2020 03:11:17 -2.6 C 38 %
1886 01-04-2020 03:21:17 -2.8 C 39 %
1887 01-04-2020 03:31:17 -2.7 C 38 %
1888 01-04-2020 03:41:18 -3 C 38 %
1889 01-04-2020 03:51:17 -3 C 39 %
1890 01-04-2020 04:01:17 -2.8 C 39 %
1891 01-04-2020 04:11:17 -3.1 C 38 %
1892 01-04-2020 04:21:17 -3.2 C 39 %
1893 01-04-2020 04:31:18 -3.5 C 38 %
1894 01-04-2020 04:41:19 -3.4 C 39 %
1895 01-04-2020 04:51:17 -3.5 C 39 %
1896 01-04-2020 05:01:18 -3.6 C 39 %
1897 01-04-2020 05:11:19 -3.8 C 40 %
1898 01-04-2020 05:21:17 -3.8 C 40 %
1899 01-04-2020 05:31:18 -3.8 C 40 %
1900 01-04-2020 05:41:18 -4 C 40 %
Sensor: Nr:Datum:Temp:Feuchte:
Aussen-T/F 1901 01-04-2020 05:51:17 -4.2 C 40 %
1902 01-04-2020 06:01:18 -4.2 C 40 %
1903 01-04-2020 06:11:18 -4 C 40 %
1904 01-04-2020 06:21:17 -4.2 C 40 %
1905 01-04-2020 06:31:17 -4.2 C 41 %
1906 01-04-2020 06:41:17 -4.3 C 41 %
1907 01-04-2020 06:51:17 -4.5 C 41 %
1908 01-04-2020 07:01:18 -4.6 C 41 %
1909 01-04-2020 07:11:19 -4.7 C 41 %
1910 01-04-2020 07:21:17 -4.5 C 41 %
1911 01-04-2020 07:31:18 -4.4 C 41 %
1912 01-04-2020 07:41:18 -4.5 C 41 %
1913 01-04-2020 07:51:17 -4.3 C 41 %
1914 01-04-2020 08:01:17 -4.2 C 41 %
1915 01-04-2020 08:11:17 -4.2 C 41 %
1916 01-04-2020 08:21:17 -3.7 C 41 %
1917 01-04-2020 08:31:17 -3.8 C 41 %
1918 01-04-2020 08:41:17 -3.7 C 41 %
1919 01-04-2020 08:51:17 -3.4 C 40 %
1920 01-04-2020 09:01:17 -3.4 C 40 %
1921 01-04-2020 09:11:17 -2.7 C 40 %
1922 01-04-2020 09:21:17 -2.6 C 40 %
1923 01-04-2020 09:31:17 -2.5 C 40 %
1924 01-04-2020 09:41:17 -2.1 C 40 %
1925 01-04-2020 09:51:17 -1.5 C 39 %
Sensor: Nr:Datum:Temp:Feuchte:
Aussen-T/F 1926 01-04-2020 10:01:17 -1 C 39 %
1927 01-04-2020 10:11:17 -0.9 C 40 %
1928 01-04-2020 10:21:17 -0.4 C 40 %
1929 01-04-2020 10:31:18 0.5 C 39 %
1930 01-04-2020 10:41:18 1 C 37 %
1931 01-04-2020 10:51:17 1.6 C 36 %
1932 01-04-2020 11:01:17 2.4 C 35 %
1933 01-04-2020 11:11:17 3.2 C 33 %
1934 01-04-2020 11:21:17 4.2 C 29 %
1935 01-04-2020 11:31:17 4.8 C 20 %
1936 01-04-2020 11:41:17 5.3 C 20 %
1937 01-04-2020 11:51:17 6 C 20 %
1938 01-04-2020 12:01:17 6.6 C 20 %
1939 01-04-2020 12:11:18 7.1 C 20 %
1940 01-04-2020 12:21:17 8.9 C 20 %
1941 01-04-2020 12:31:17 10.3 C 20 %
1942 01-04-2020 12:41:17 9.2 C 20 %
1943 01-04-2020 12:51:17 8 C 20 %
1944 01-04-2020 13:01:17 9.3 C 20 %
1945 01-04-2020 13:11:17 9.3 C 20 %
1946 01-04-2020 13:21:16 8.6 C 20 %
1947 01-04-2020 13:31:17 9.2 C 20 %
1948 01-04-2020 13:41:17 9.6 C 20 %
1949 01-04-2020 13:51:17 10 C 20 %
1950 01-04-2020 14:01:17 10.3 C 20 %
Sensor: Nr:Datum:Temp:Feuchte:
Aussen-T/F 1951 01-04-2020 14:11:17 10.7 C 20 %
1952 01-04-2020 14:21:17 13.2 C 20 %
1953 01-04-2020 14:31:16 15.9 C 20 %
1954 01-04-2020 14:41:16 16.3 C 20 %
1955 01-04-2020 14:51:17 13.7 C 20 %
1956 01-04-2020 15:01:17 14.2 C 20 %
1957 01-04-2020 15:11:17 17.2 C 20 %
1958 01-04-2020 15:21:17 16.8 C 20 %
1959 01-04-2020 15:31:16 16.3 C 20 %
1960 01-04-2020 15:41:16 18.2 C 20 %
1961 01-04-2020 15:51:17 19.5 C 20 %
1962 01-04-2020 16:01:16 18.7 C 20 %
1963 01-04-2020 16:11:16 18.7 C 20 %
1964 01-04-2020 16:21:16 19.7 C 20 %
1965 01-04-2020 16:31:17 21.3 C 20 %
1966 01-04-2020 16:41:17 15.5 C 20 %
1967 01-04-2020 16:51:16 18.4 C 20 %
1968 01-04-2020 17:01:16 17.2 C 20 %
1969 01-04-2020 17:11:16 17.4 C 20 %
1970 01-04-2020 17:21:17 17.7 C 20 %
1971 01-04-2020 17:31:17 18.5 C 20 %
1972 01-04-2020 17:41:17 16.8 C 20 %
1973 01-04-2020 17:51:17 15.8 C 20 %
1974 01-04-2020 18:01:17 12.6 C 20 %
1975 01-04-2020 18:11:17 12 C 20 %
Sensor: Nr:Datum:Temp:Feuchte:
Aussen-T/F 1976 01-04-2020 18:21:16 12.1 C 20 %
1977 01-04-2020 18:31:17 11.7 C 20 %
1978 01-04-2020 18:41:17 11.8 C 20 %
1979 01-04-2020 18:51:16 11.6 C 20 %
1980 01-04-2020 19:01:17 11 C 20 %
1981 01-04-2020 19:11:17 10.7 C 20 %
1982 01-04-2020 19:21:17 10.4 C 20 %
1983 01-04-2020 19:31:17 9.9 C 20 %
1984 01-04-2020 19:41:17 9.6 C 20 %
1985 01-04-2020 19:51:16 8.9 C 20 %
1986 01-04-2020 20:01:17 8.1 C 20 %
1987 01-04-2020 20:11:17 7.8 C 20 %
1988 01-04-2020 20:21:16 8.1 C 20 %
1989 01-04-2020 20:31:16 7.1 C 20 %
1990 01-04-2020 20:41:16 6.2 C 20 %
1991 01-04-2020 20:51:16 5.9 C 20 %
1992 01-04-2020 21:01:16 6 C 20 %
1993 01-04-2020 21:11:16 6 C 20 %
1994 01-04-2020 21:21:16 5.7 C 20 %
1995 01-04-2020 21:31:16 5.7 C 20 %
1996 01-04-2020 21:41:16 5.4 C 20 %
1997 01-04-2020 21:51:16 4 C 21 %
1998 01-04-2020 22:01:16 4.2 C 21 %
1999 01-04-2020 22:11:16 3.7 C 26 %
2000 01-04-2020 22:21:16 3.2 C 26 %
Sensor: Nr:Datum:Temp:Feuchte:
Aussen-T/F 2001 01-04-2020 22:31:16 2.5 C 29 %
2002 01-04-2020 22:41:16 2.6 C 28 %
2003 01-04-2020 22:51:16 2 C 30 %
2004 01-04-2020 23:01:17 1.7 C 33 %
2005 01-04-2020 23:11:17 1.7 C 32 %
2006 01-04-2020 23:21:16 1.4 C 34 %
2007 01-04-2020 23:31:16 1.2 C 34 %
2008 01-04-2020 23:41:16 1 C 35 %
2009 01-04-2020 23:51:16 1.1 C 34 %
2010 02-04-2020 00:01:17 1 C 35 %
2011 02-04-2020 00:11:17 0.4 C 36 %
2012 02-04-2020 00:21:16 0.4 C 36 %
2013 02-04-2020 00:31:17 0.2 C 36 %
2014 02-04-2020 00:41:17 0.3 C 37 %
2015 02-04-2020 00:51:16 0.3 C 36 %
2016 02-04-2020 01:01:17 0 C 37 %
2017 02-04-2020 01:11:17 -0.4 C 38 %
2018 02-04-2020 01:21:16 -0.6 C 38 %
2019 02-04-2020 01:31:17 -0.7 C 38 %
2020 02-04-2020 01:41:17 -0.7 C 38 %
2021 02-04-2020 01:51:16 -0.9 C 39 %
2022 02-04-2020 02:01:16 -1 C 39 %
2023 02-04-2020 02:11:16 -1 C 39 %
2024 02-04-2020 02:21:16 -1.2 C 39 %
2025 02-04-2020 02:31:17 -1.3 C 40 %
Sensor: Nr:Datum:Temp:Feuchte:
Aussen-T/F 2026 02-04-2020 02:41:17 -1.6 C 40 %
2027 02-04-2020 02:51:17 -1.5 C 40 %
2028 02-04-2020 03:01:17 -1.5 C 40 %
2029 02-04-2020 03:11:17 -1.5 C 40 %
2030 02-04-2020 03:21:17 -1.3 C 40 %
2031 02-04-2020 03:31:17 -1.4 C 40 %
2032 02-04-2020 03:41:17 -1.6 C 40 %
2033 02-04-2020 03:51:18 -1.7 C 40 %
2034 02-04-2020 04:01:18 -2.1 C 40 %
2035 02-04-2020 04:11:18 -1.7 C 41 %
2036 02-04-2020 04:21:18 -1.6 C 40 %
2037 02-04-2020 04:31:17 -2 C 40 %
2038 02-04-2020 04:41:17 -2.4 C 41 %
2039 02-04-2020 04:51:17 -2.7 C 41 %
2040 02-04-2020 05:01:18 -2.6 C 41 %
2041 02-04-2020 05:11:18 -2.6 C 41 %
2042 02-04-2020 05:21:17 -2.6 C 41 %
2043 02-04-2020 05:31:18 -2.7 C 41 %
2044 02-04-2020 05:41:18 -2.6 C 41 %
2045 02-04-2020 05:51:17 -2.5 C 41 %
2046 02-04-2020 06:01:17 -2.6 C 41 %
2047 02-04-2020 06:11:17 -3 C 41 %
2048 02-04-2020 06:21:17 -3 C 42 %
2049 02-04-2020 06:31:17 -2.6 C 43 %
2050 02-04-2020 06:41:17 -3.1 C 42 %
Sensor: Nr:Datum:Temp:Feuchte:
Aussen-T/F 2051 02-04-2020 06:51:17 -2.9 C 42 %
2052 02-04-2020 07:01:17 -3.3 C 42 %
2053 02-04-2020 07:11:17 -3 C 42 %
2054 02-04-2020 07:21:17 -3.1 C 42 %
2055 02-04-2020 07:31:17 -3 C 43 %
2056 02-04-2020 07:41:18 -2.9 C 42 %
2057 02-04-2020 07:51:17 -3 C 43 %
2058 02-04-2020 08:01:17 -2.7 C 43 %
2059 02-04-2020 08:11:18 -2.5 C 43 %
2060 02-04-2020 08:21:17 -2.2 C 42 %
2061 02-04-2020 08:31:17 -2.2 C 42 %
2062 02-04-2020 08:41:17 -2 C 42 %
2063 02-04-2020 08:51:17 -1.8 C 42 %
2064 02-04-2020 09:01:17 -1.7 C 42 %
2065 02-04-2020 09:11:17 -1.5 C 41 %
2066 02-04-2020 09:21:17 -1.3 C 41 %
2067 02-04-2020 09:31:17 -1 C 41 %
2068 02-04-2020 09:41:17 -0.6 C 41 %
2069 02-04-2020 09:51:18 -0.3 C 41 %
2070 02-04-2020 10:01:18 0.1 C 41 %
2071 02-04-2020 10:11:18 0.6 C 41 %
2072 02-04-2020 10:21:17 0.8 C 41 %
2073 02-04-2020 10:31:17 1.7 C 40 %
2074 02-04-2020 10:41:17 2.2 C 39 %
2075 02-04-2020 10:51:17 3.1 C 37 %
Sensor: Nr:Datum:Temp:Feuchte:
Aussen-T/F 2076 02-04-2020 11:01:17 3.6 C 37 %
2077 02-04-2020 11:11:17 4.6 C 35 %
2078 02-04-2020 11:21:17 5.7 C 30 %
2079 02-04-2020 11:31:18 6.5 C 30 %
2080 02-04-2020 11:41:18 6.9 C 29 %
2081 02-04-2020 11:51:17 7.4 C 27 %
2082 02-04-2020 12:01:17 8.1 C 27 %
2083 02-04-2020 12:11:17 8.5 C 25 %
2084 02-04-2020 12:21:17 10.5 C 20 %
2085 02-04-2020 12:31:18 12.2 C 20 %
2086 02-04-2020 12:41:18 10.8 C 20 %
2087 02-04-2020 12:51:17 10.3 C 20 %
2088 02-04-2020 13:01:17 11 C 20 %
2089 02-04-2020 13:11:18 11.5 C 20 %
2090 02-04-2020 13:21:17 11.6 C 20 %
2091 02-04-2020 13:31:17 11.4 C 20 %
2092 02-04-2020 13:41:17 12.3 C 20 %
2093 02-04-2020 13:51:17 12.5 C 20 %
2094 02-04-2020 14:01:17 11.8 C 20 %
2095 02-04-2020 14:11:17 12.6 C 20 %
2096 02-04-2020 14:21:17 15.5 C 20 %
2097 02-04-2020 14:31:18 18.1 C 20 %
2098 02-04-2020 14:41:18 18.3 C 20 %
2099 02-04-2020 14:51:17 18.3 C 20 %
2100 02-04-2020 15:01:18 19.7 C 20 %
Sensor: Nr:Datum:Temp:Feuchte:
Aussen-T/F 2101 02-04-2020 15:11:18 17.5 C 20 %
2102 02-04-2020 15:21:17 19.2 C 20 %
2103 02-04-2020 15:31:18 19.8 C 20 %
2104 02-04-2020 15:41:18 19.3 C 20 %
2105 02-04-2020 15:51:17 19.4 C 20 %
2106 02-04-2020 16:01:17 21.3 C 20 %
2107 02-04-2020 16:11:17 19.9 C 20 %
2108 02-04-2020 16:21:17 16.6 C 20 %
2109 02-04-2020 16:31:18 18 C 20 %
2110 02-04-2020 16:41:18 17.6 C 20 %
2111 02-04-2020 16:51:17 17.8 C 20 %
2112 02-04-2020 17:01:17 17.3 C 20 %
2113 02-04-2020 17:11:17 16.6 C 20 %
2114 02-04-2020 17:21:17 15.8 C 20 %
2115 02-04-2020 17:31:18 15.5 C 20 %
2116 02-04-2020 17:41:18 14.7 C 20 %
2117 02-04-2020 17:51:17 14.8 C 20 %
2118 02-04-2020 18:01:17 12.8 C 20 %
2119 02-04-2020 18:11:17 12.2 C 20 %
2120 02-04-2020 18:21:17 12.3 C 20 %
2121 02-04-2020 18:31:17 11.8 C 20 %
2122 02-04-2020 18:41:17 11.3 C 20 %
2123 02-04-2020 18:51:17 11.1 C 20 %
2124 02-04-2020 19:01:17 10.7 C 20 %
2125 02-04-2020 19:11:17 10.2 C 20 %
Sensor: Nr:Datum:Temp:Feuchte:
Aussen-T/F 2126 02-04-2020 19:21:17 10 C 20 %
2127 02-04-2020 19:31:17 9.6 C 20 %
2128 02-04-2020 19:41:17 9.5 C 20 %
2129 02-04-2020 19:51:17 8.7 C 20 %
2130 02-04-2020 20:01:17 8.5 C 20 %
2131 02-04-2020 20:11:17 8.5 C 20 %
2132 02-04-2020 20:21:17 7.9 C 20 %
2133 02-04-2020 20:31:17 7.8 C 20 %
2134 02-04-2020 20:41:17 7.2 C 21 %
2135 02-04-2020 20:51:17 6.9 C 25 %
2136 02-04-2020 21:01:17 6.4 C 26 %
2137 02-04-2020 21:11:17 6.3 C 27 %
2138 02-04-2020 21:21:17 5.9 C 28 %
2139 02-04-2020 21:31:18 5.7 C 29 %
2140 02-04-2020 21:41:18 5.6 C 30 %
2141 02-04-2020 21:51:17 5.3 C 30 %
2142 02-04-2020 22:01:17 5.2 C 30 %
2143 02-04-2020 22:11:17 5.5 C 30 %
2144 02-04-2020 22:21:17 5 C 30 %
2145 02-04-2020 22:31:18 5.3 C 31 %
2146 02-04-2020 22:41:18 5.2 C 31 %
2147 02-04-2020 22:51:17 5.1 C 31 %
2148 02-04-2020 23:01:17 4.8 C 32 %
2149 02-04-2020 23:11:17 5 C 31 %
2150 02-04-2020 23:21:17 5 C 31 %
Sensor: Nr:Datum:Temp:Feuchte:
Aussen-T/F 2151 02-04-2020 23:31:18 4.7 C 33 %
2152 02-04-2020 23:41:18 3.9 C 35 %
2153 02-04-2020 23:51:17 3.1 C 36 %
2154 03-04-2020 00:01:18 2.7 C 38 %
2155 03-04-2020 00:11:18 2.3 C 39 %
2156 03-04-2020 00:21:17 2.6 C 40 %
2157 03-04-2020 00:31:17 2.6 C 39 %
2158 03-04-2020 00:41:17 3.2 C 38 %
2159 03-04-2020 00:51:17 2.4 C 39 %
2160 03-04-2020 01:01:18 2.4 C 39 %
2161 03-04-2020 01:11:18 2.4 C 39 %
2162 03-04-2020 01:21:17 2.6 C 39 %
2163 03-04-2020 01:31:18 2.7 C 39 %
2164 03-04-2020 01:41:18 2.5 C 39 %
2165 03-04-2020 01:51:17 2.3 C 39 %
2166 03-04-2020 02:01:18 2.2 C 39 %
2167 03-04-2020 02:11:18 2.3 C 39 %
2168 03-04-2020 02:21:18 3.1 C 38 %
2169 03-04-2020 02:31:18 3.2 C 38 %
2170 03-04-2020 02:41:18 2.6 C 39 %
2171 03-04-2020 02:51:17 2.8 C 39 %
2172 03-04-2020 03:01:18 3 C 38 %
2173 03-04-2020 03:11:18 3.6 C 38 %
2174 03-04-2020 03:21:17 3.9 C 38 %
2175 03-04-2020 03:31:17 4.4 C 36 %
Sensor: Nr:Datum:Temp:Feuchte:
Aussen-T/F 2176 03-04-2020 03:41:17 4.7 C 36 %
2177 03-04-2020 03:51:17 4.6 C 36 %
2178 03-04-2020 04:01:17 5 C 35 %
2179 03-04-2020 04:11:17 5.6 C 35 %
2180 03-04-2020 04:21:17 4.9 C 35 %
2181 03-04-2020 04:31:18 4.7 C 36 %
2182 03-04-2020 04:41:18 4.6 C 36 %
2183 03-04-2020 04:51:18 4.4 C 36 %
2184 03-04-2020 05:01:18 4.3 C 36 %
2185 03-04-2020 05:11:18 4.5 C 36 %
2186 03-04-2020 05:21:17 4.8 C 36 %
2187 03-04-2020 05:31:17 4.8 C 36 %
2188 03-04-2020 05:41:17 5.2 C 35 %
2189 03-04-2020 05:51:17 5.3 C 35 %
2190 03-04-2020 06:01:18 5.4 C 35 %
2191 03-04-2020 06:11:18 5.4 C 35 %
2192 03-04-2020 06:21:17 5.1 C 35 %
2193 03-04-2020 06:31:17 5.1 C 36 %
2194 03-04-2020 06:41:17 5.1 C 35 %
2195 03-04-2020 06:51:17 5.2 C 35 %
2196 03-04-2020 07:01:17 5.7 C 35 %
2197 03-04-2020 07:11:17 5.6 C 35 %
2198 03-04-2020 07:21:18 5.5 C 35 %
2199 03-04-2020 07:31:17 5.7 C 35 %
2200 03-04-2020 07:41:17 5.6 C 35 %
Sensor: Nr:Datum:Temp:Feuchte:
Aussen-T/F 2201 03-04-2020 07:51:17 5.6 C 35 %
2202 03-04-2020 08:01:17 5.7 C 35 %
2203 03-04-2020 08:11:17 5.9 C 35 %
2204 03-04-2020 08:21:18 5.9 C 35 %
2205 03-04-2020 08:31:17 5.9 C 35 %
2206 03-04-2020 08:41:17 6.1 C 35 %
2207 03-04-2020 08:51:18 6.6 C 35 %
2208 03-04-2020 09:01:17 7 C 34 %
2209 03-04-2020 09:11:17 7.1 C 34 %
2210 03-04-2020 09:21:18 7.6 C 34 %
2211 03-04-2020 09:31:18 7.7 C 34 %
2212 03-04-2020 09:41:18 8 C 33 %
2213 03-04-2020 09:51:17 8.4 C 33 %
2214 03-04-2020 10:01:18 8.6 C 32 %
2215 03-04-2020 10:11:18 8.6 C 32 %
2216 03-04-2020 10:21:17 9 C 32 %
2217 03-04-2020 10:31:18 9.4 C 32 %
2218 03-04-2020 10:41:18 9.2 C 32 %
2219 03-04-2020 10:51:17 9.6 C 32 %
2220 03-04-2020 11:01:17 10.6 C 31 %
2221 03-04-2020 11:11:17 11.2 C 29 %
2222 03-04-2020 11:21:17 10.9 C 29 %
2223 03-04-2020 11:31:17 11.1 C 28 %
2224 03-04-2020 11:41:17 11.5 C 26 %
2225 03-04-2020 11:51:17 11.4 C 26 %
Sensor: Nr:Datum:Temp:Feuchte:
Aussen-T/F 2226 03-04-2020 12:01:17 11.1 C 26 %
2227 03-04-2020 12:11:17 11.2 C 26 %
2228 03-04-2020 12:21:17 11.4 C 26 %
2229 03-04-2020 12:31:17 11.6 C 25 %
2230 03-04-2020 12:41:18 11.1 C 25 %
2231 03-04-2020 12:51:17 11.1 C 25 %
2232 03-04-2020 13:01:18 11.2 C 25 %
2233 03-04-2020 13:11:18 11.7 C 25 %
2234 03-04-2020 13:21:17 12.2 C 22 %
2235 03-04-2020 13:31:17 11.8 C 22 %
2236 03-04-2020 13:41:17 11.8 C 23 %
2237 03-04-2020 13:51:17 12.2 C 22 %
2238 03-04-2020 14:01:18 12.3 C 20 %
2239 03-04-2020 14:11:18 11.6 C 21 %
2240 03-04-2020 14:21:17 11.7 C 21 %
2241 03-04-2020 14:31:17 11.6 C 21 %
2242 03-04-2020 14:41:18 11.4 C 23 %
2243 03-04-2020 14:51:17 11.7 C 21 %
2244 03-04-2020 15:01:17 11.8 C 20 %
2245 03-04-2020 15:11:17 11.7 C 20 %
2246 03-04-2020 15:21:18 11.8 C 20 %
2247 03-04-2020 15:31:17 12.1 C 20 %
2248 03-04-2020 15:41:17 12.5 C 20 %
2249 03-04-2020 15:51:17 13.1 C 20 %
2250 03-04-2020 16:01:17 12.6 C 20 %
Sensor: Nr:Datum:Temp:Feuchte:
Aussen-T/F 2251 03-04-2020 16:11:17 12.4 C 20 %
2252 03-04-2020 16:21:17 12.4 C 20 %
2253 03-04-2020 16:31:17 12.3 C 20 %
2254 03-04-2020 16:41:17 12.4 C 20 %
2255 03-04-2020 16:51:17 12.4 C 20 %
2256 03-04-2020 17:01:17 12.2 C 20 %
2257 03-04-2020 17:11:17 12.2 C 20 %
2258 03-04-2020 17:21:17 12.2 C 20 %
2259 03-04-2020 17:31:17 12.2 C 20 %
2260 03-04-2020 17:41:17 12.4 C 20 %
2261 03-04-2020 17:51:17 11.9 C 20 %
2262 03-04-2020 18:01:17 11.5 C 20 %
2263 03-04-2020 18:11:17 11.7 C 20 %
2264 03-04-2020 18:21:17 11.5 C 20 %
2265 03-04-2020 18:31:18 11.4 C 20 %
2266 03-04-2020 18:41:18 11 C 20 %
2267 03-04-2020 18:51:17 11 C 20 %
2268 03-04-2020 19:01:18 10.8 C 20 %
2269 03-04-2020 19:11:18 10.7 C 20 %
2270 03-04-2020 19:21:17 10.5 C 20 %
2271 03-04-2020 19:31:17 10.2 C 20 %
2272 03-04-2020 19:41:17 10.3 C 20 %
2273 03-04-2020 19:51:17 9.9 C 20 %
2274 03-04-2020 20:01:17 9.8 C 20 %
2275 03-04-2020 20:11:17 9.5 C 20 %
Sensor: Nr:Datum:Temp:Feuchte:
Aussen-T/F 2276 03-04-2020 20:21:17 9.1 C 20 %
2277 03-04-2020 20:31:18 9.5 C 20 %
2278 03-04-2020 20:41:18 9.2 C 20 %
2279 03-04-2020 20:51:18 9.1 C 20 %
2280 03-04-2020 21:01:17 9.2 C 20 %
2281 03-04-2020 21:11:17 9.1 C 20 %
2282 03-04-2020 21:21:17 8.9 C 20 %
2283 03-04-2020 21:31:17 8.7 C 20 %
2284 03-04-2020 21:41:17 8.6 C 20 %
2285 03-04-2020 21:51:17 8.3 C 20 %
2286 03-04-2020 22:01:17 8.1 C 20 %
2287 03-04-2020 22:11:17 7.9 C 20 %
2288 03-04-2020 22:21:17 7.2 C 23 %
2289 03-04-2020 22:31:18 6.8 C 25 %
2290 03-04-2020 22:41:18 6.5 C 26 %
2291 03-04-2020 22:51:17 6.3 C 26 %
2292 03-04-2020 23:01:17 6.4 C 26 %
2293 03-04-2020 23:11:18 6.4 C 25 %
2294 03-04-2020 23:21:18 6.2 C 26 %
2295 03-04-2020 23:31:17 5.2 C 28 %
2296 03-04-2020 23:41:18 5 C 29 %
2297 03-04-2020 23:51:17 4.7 C 30 %
2298 04-04-2020 00:01:17 4.8 C 30 %
2299 04-04-2020 00:11:18 4.8 C 30 %
2300 04-04-2020 00:21:17 4.7 C 30 %
Sensor: Nr:Datum:Temp:Feuchte:
Aussen-T/F 2301 04-04-2020 00:31:17 5.2 C 28 %
2302 04-04-2020 00:41:17 4.5 C 29 %
2303 04-04-2020 00:51:17 4 C 30 %
2304 04-04-2020 01:01:17 4.6 C 30 %
2305 04-04-2020 01:11:17 4.3 C 30 %
2306 04-04-2020 01:21:18 3.9 C 31 %
2307 04-04-2020 01:31:17 4 C 32 %
2308 04-04-2020 01:41:17 3.1 C 35 %
2309 04-04-2020 01:51:17 2.2 C 37 %
2310 04-04-2020 02:01:18 1.7 C 39 %
2311 04-04-2020 02:11:18 1.4 C 40 %
2312 04-04-2020 02:21:17 1.2 C 40 %
2313 04-04-2020 02:31:17 0.9 C 41 %
2314 04-04-2020 02:41:17 0.8 C 41 %
2315 04-04-2020 02:51:17 0.8 C 42 %
2316 04-04-2020 03:01:18 0.6 C 42 %
2317 04-04-2020 03:11:18 0.4 C 42 %
2318 04-04-2020 03:21:17 0.3 C 43 %
2319 04-04-2020 03:31:18 0.6 C 43 %
2320 04-04-2020 03:41:18 0.5 C 42 %
2321 04-04-2020 03:51:17 -0.1 C 43 %
2322 04-04-2020 04:01:17 -0.4 C 43 %
2323 04-04-2020 04:11:17 -0.6 C 43 %
2324 04-04-2020 04:21:17 -0.7 C 44 %
2325 04-04-2020 04:31:17 -0.6 C 44 %
Sensor: Nr:Datum:Temp:Feuchte:
Aussen-T/F 2326 04-04-2020 04:41:17 -0.9 C 44 %
2327 04-04-2020 04:51:17 -0.9 C 45 %
2328 04-04-2020 05:01:18 -0.9 C 45 %
2329 04-04-2020 05:11:18 -1.2 C 45 %
2330 04-04-2020 05:21:18 -1.2 C 45 %
2331 04-04-2020 05:31:17 -1 C 45 %
2332 04-04-2020 05:41:17 -1.2 C 45 %
2333 04-04-2020 05:51:17 -1.2 C 45 %
2334 04-04-2020 06:01:18 -1.5 C 45 %
2335 04-04-2020 06:11:18 -1.5 C 45 %
2336 04-04-2020 06:21:17 -1.5 C 45 %
2337 04-04-2020 06:31:17 -1.8 C 45 %
2338 04-04-2020 06:41:17 -1.4 C 46 %
2339 04-04-2020 06:51:17 -1.5 C 45 %
2340 04-04-2020 07:01:18 -1.6 C 45 %
2341 04-04-2020 07:11:18 -1.8 C 45 %
2342 04-04-2020 07:21:17 -1.5 C 46 %
2343 04-04-2020 07:31:18 -1.8 C 45 %
2344 04-04-2020 07:41:18 -1.7 C 46 %
2345 04-04-2020 07:51:17 -1.8 C 45 %
2346 04-04-2020 08:01:17 -1.8 C 46 %
2347 04-04-2020 08:11:18 -1.7 C 46 %
2348 04-04-2020 08:21:17 -1.5 C 46 %
2349 04-04-2020 08:31:17 -1.1 C 46 %
2350 04-04-2020 08:41:18 -1 C 46 %
Sensor: Nr:Datum:Temp:Feuchte:
Aussen-T/F 2351 04-04-2020 08:51:17 -0.7 C 45 %
2352 04-04-2020 09:01:17 -0.3 C 45 %
2353 04-04-2020 09:11:17 0 C 45 %
2354 04-04-2020 09:21:17 -0.2 C 45 %
2355 04-04-2020 09:31:18 0.2 C 45 %
2356 04-04-2020 09:41:18 0.8 C 44 %
2357 04-04-2020 09:51:17 1.1 C 43 %
2358 04-04-2020 10:01:17 1.5 C 43 %
2359 04-04-2020 10:11:18 1.8 C 43 %
2360 04-04-2020 10:21:17 2.2 C 41 %
2361 04-04-2020 10:31:17 2.9 C 41 %
2362 04-04-2020 10:41:17 3.5 C 40 %
2363 04-04-2020 10:51:17 4.5 C 37 %
2364 04-04-2020 11:01:17 5.3 C 36 %
2365 04-04-2020 11:11:17 6.4 C 35 %
2366 04-04-2020 11:21:18 7.1 C 32 %
2367 04-04-2020 11:31:18 7.9 C 32 %
2368 04-04-2020 11:41:18 8.4 C 29 %
2369 04-04-2020 11:51:18 8.7 C 29 %
2370 04-04-2020 12:01:18 9.7 C 26 %
2371 04-04-2020 12:11:18 9.7 C 26 %
2372 04-04-2020 12:21:17 10.6 C 22 %
2373 04-04-2020 12:31:17 10.9 C 20 %
2374 04-04-2020 12:41:17 11.4 C 20 %
2375 04-04-2020 12:51:17 10.8 C 20 %
Sensor: Nr:Datum:Temp:Feuchte:
Aussen-T/F 2376 04-04-2020 13:01:17 11.1 C 20 %
2377 04-04-2020 13:11:17 12.1 C 20 %
2378 04-04-2020 13:21:17 11.6 C 20 %
2379 04-04-2020 13:31:17 11.4 C 20 %
2380 04-04-2020 13:41:17 12.2 C 20 %
2381 04-04-2020 13:51:18 12.5 C 20 %
2382 04-04-2020 14:01:17 12.1 C 20 %
2383 04-04-2020 14:11:17 13.7 C 20 %
2384 04-04-2020 14:21:17 14.6 C 20 %
2385 04-04-2020 14:31:17 16.6 C 20 %
2386 04-04-2020 14:41:17 17 C 20 %
2387 04-04-2020 14:51:17 16.3 C 20 %
2388 04-04-2020 15:01:18 18.1 C 20 %
2389 04-04-2020 15:11:18 18.9 C 20 %
2390 04-04-2020 15:21:17 16.9 C 20 %
2391 04-04-2020 15:31:17 19.1 C 20 %
2392 04-04-2020 15:41:17 19.8 C 20 %
2393 04-04-2020 15:51:17 17.4 C 20 %
2394 04-04-2020 16:01:17 19.9 C 20 %
2395 04-04-2020 16:11:17 19.3 C 20 %
2396 04-04-2020 16:21:17 18.7 C 20 %
2397 04-04-2020 16:31:17 19.3 C 20 %
2398 04-04-2020 16:41:17 20.5 C 20 %
2399 04-04-2020 16:51:17 20.4 C 20 %
2400 04-04-2020 17:01:17 20.3 C 20 %
Sensor: Nr:Datum:Temp:Feuchte:
Aussen-T/F 2401 04-04-2020 17:11:17 20.1 C 20 %
2402 04-04-2020 17:21:17 20.5 C 20 %
2403 04-04-2020 17:31:17 19.2 C 20 %
2404 04-04-2020 17:41:17 18.7 C 20 %
2405 04-04-2020 17:51:18 17.8 C 20 %
2406 04-04-2020 18:01:17 16.8 C 20 %
2407 04-04-2020 18:11:17 16.2 C 20 %
2408 04-04-2020 18:21:17 15.4 C 20 %
2409 04-04-2020 18:31:17 15.4 C 20 %
2410 04-04-2020 18:41:17 15.6 C 20 %
2411 04-04-2020 18:51:17 15.1 C 20 %
2412 04-04-2020 19:01:17 14.9 C 20 %
2413 04-04-2020 19:11:17 14.4 C 20 %
2414 04-04-2020 19:21:17 14 C 20 %
2415 04-04-2020 19:31:17 13.9 C 20 %
2416 04-04-2020 19:41:17 12.6 C 20 %
2417 04-04-2020 19:51:17 11.5 C 20 %
2418 04-04-2020 20:01:17 11.3 C 20 %
2419 04-04-2020 20:11:17 10.7 C 20 %
2420 04-04-2020 20:21:17 10.3 C 21 %
2421 04-04-2020 20:31:17 9.8 C 25 %
2422 04-04-2020 20:41:17 9.5 C 23 %
2423 04-04-2020 20:51:17 9.2 C 25 %
2424 04-04-2020 21:01:17 9.2 C 21 %
2425 04-04-2020 21:11:17 8.7 C 25 %
Sensor: Nr:Datum:Temp:Feuchte:
Aussen-T/F 2426 04-04-2020 21:21:17 8.8 C 25 %
2427 04-04-2020 21:31:17 8.5 C 25 %
2428 04-04-2020 21:41:17 8.2 C 25 %
2429 04-04-2020 21:51:17 7.1 C 28 %
2430 04-04-2020 22:01:18 5.8 C 31 %
2431 04-04-2020 22:11:18 5.5 C 32 %
2432 04-04-2020 22:21:18 5.1 C 32 %
2433 04-04-2020 22:31:17 4.8 C 35 %
2434 04-04-2020 22:41:17 4.7 C 34 %
2435 04-04-2020 22:51:17 4.6 C 34 %
2436 04-04-2020 23:01:17 4.4 C 34 %
2437 04-04-2020 23:11:17 4.1 C 34 %
2438 04-04-2020 23:21:17 3.9 C 35 %
2439 04-04-2020 23:31:17 3.6 C 36 %
2440 04-04-2020 23:41:17 3.5 C 36 %
2441 04-04-2020 23:51:17 3.4 C 37 %
2442 05-04-2020 00:01:17 3 C 37 %
2443 05-04-2020 00:11:17 2.9 C 38 %
2444 05-04-2020 00:21:17 2.8 C 39 %
2445 05-04-2020 00:31:17 2.5 C 39 %
2446 05-04-2020 00:41:17 2.5 C 40 %
2447 05-04-2020 00:51:18 2.4 C 40 %
2448 05-04-2020 01:01:18 2.3 C 40 %
2449 05-04-2020 01:11:18 2.3 C 40 %
2450 05-04-2020 01:21:17 2.2 C 40 %
Sensor: Nr:Datum:Temp:Feuchte:
Aussen-T/F 2451 05-04-2020 01:31:18 2.1 C 41 %
2452 05-04-2020 01:41:18 1.9 C 42 %
2453 05-04-2020 01:51:17 1.8 C 42 %
2454 05-04-2020 02:01:18 1.6 C 42 %
2455 05-04-2020 02:11:18 1.3 C 42 %
2456 05-04-2020 02:21:17 1.4 C 43 %
2457 05-04-2020 02:31:18 1.4 C 43 %
2458 05-04-2020 02:41:18 1.1 C 43 %
2459 05-04-2020 02:51:17 1.1 C 43 %
2460 05-04-2020 03:01:18 1.3 C 43 %
2461 05-04-2020 03:11:18 1.1 C 43 %
2462 05-04-2020 03:21:17 1 C 43 %
2463 05-04-2020 03:31:17 0.7 C 45 %
2464 05-04-2020 03:41:17 0.5 C 45 %
2465 05-04-2020 03:51:17 0.7 C 45 %
2466 05-04-2020 04:01:17 0.6 C 45 %
2467 05-04-2020 04:11:17 0.4 C 45 %
2468 05-04-2020 04:21:17 0.4 C 46 %
2469 05-04-2020 04:31:17 0.2 C 46 %
2470 05-04-2020 04:41:17 0.2 C 46 %
2471 05-04-2020 04:51:17 0.2 C 46 %
2472 05-04-2020 05:01:17 0 C 46 %
2473 05-04-2020 05:11:17 -0.3 C 46 %
2474 05-04-2020 05:21:17 -0.2 C 47 %
2475 05-04-2020 05:31:17 -0.3 C 46 %
Sensor: Nr:Datum:Temp:Feuchte:
Aussen-T/F 2476 05-04-2020 05:41:17 -0.4 C 47 %
2477 05-04-2020 05:51:17 -0.5 C 47 %
2478 05-04-2020 06:01:17 -0.4 C 47 %
2479 05-04-2020 06:11:17 -0.5 C 47 %
2480 05-04-2020 06:21:17 -0.6 C 47 %
2481 05-04-2020 06:31:18 -0.8 C 48 %
2482 05-04-2020 06:41:18 -0.8 C 47 %
2483 05-04-2020 06:51:17 -0.8 C 47 %
2484 05-04-2020 07:01:18 -0.9 C 47 %
2485 05-04-2020 07:11:18 -0.7 C 48 %
2486 05-04-2020 07:21:18 -0.6 C 48 %
2487 05-04-2020 07:31:17 -0.5 C 48 %
2488 05-04-2020 07:41:17 -0.5 C 48 %
2489 05-04-2020 07:51:17 -0.4 C 48 %
2490 05-04-2020 08:01:17 -0.3 C 48 %
2491 05-04-2020 08:11:17 0 C 49 %
2492 05-04-2020 08:21:17 0.1 C 48 %
2493 05-04-2020 08:31:17 0.4 C 48 %
2494 05-04-2020 08:41:17 0.5 C 49 %
2495 05-04-2020 08:51:18 0.8 C 49 %
2496 05-04-2020 09:01:17 1.1 C 47 %
2497 05-04-2020 09:11:17 1.4 C 47 %
2498 05-04-2020 09:21:17 1.8 C 47 %
2499 05-04-2020 09:31:17 2.4 C 46 %
2500 05-04-2020 09:41:17 2.8 C 46 %
Sensor: Nr:Datum:Temp:Feuchte:
Aussen-T/F 2501 05-04-2020 09:51:18 3.4 C 44 %
2502 05-04-2020 10:01:18 3.9 C 43 %
2503 05-04-2020 10:11:18 4.5 C 41 %
2504 05-04-2020 10:21:17 5.4 C 40 %
2505 05-04-2020 10:31:17 5.9 C 40 %
2506 05-04-2020 10:41:17 7 C 38 %
2507 05-04-2020 10:51:17 7.9 C 37 %
2508 05-04-2020 11:01:17 8.6 C 36 %
2509 05-04-2020 11:11:17 10.7 C 32 %
2510 05-04-2020 11:21:17 11.2 C 30 %
2511 05-04-2020 11:31:17 13.1 C 21 %
2512 05-04-2020 11:41:17 13.9 C 20 %
2513 05-04-2020 11:51:17 14.8 C 20 %
2514 05-04-2020 12:01:17 15.6 C 20 %
2515 05-04-2020 12:11:17 15.9 C 20 %
2516 05-04-2020 12:21:17 16.7 C 20 %
2517 05-04-2020 12:31:18 17.6 C 20 %
2518 05-04-2020 12:41:18 17.4 C 20 %
2519 05-04-2020 12:51:17 17.4 C 20 %
2520 05-04-2020 13:01:17 17.2 C 20 %
2521 05-04-2020 13:11:17 18.4 C 20 %
2522 05-04-2020 13:21:17 17.5 C 20 %
2523 05-04-2020 13:31:17 17.1 C 20 %
2524 05-04-2020 13:41:17 17.9 C 20 %
2525 05-04-2020 13:51:17 17.7 C 20 %
Sensor: Nr:Datum:Temp:Feuchte:
Aussen-T/F 2526 05-04-2020 14:01:17 17.9 C 20 %
2527 05-04-2020 14:11:17 19 C 20 %
2528 05-04-2020 14:21:17 19.8 C 20 %
2529 05-04-2020 14:31:18 21.7 C 20 %
2530 05-04-2020 14:41:18 23.4 C 20 %
2531 05-04-2020 14:51:18 23.3 C 20 %
2532 05-04-2020 15:01:17 24.7 C 20 %
2533 05-04-2020 15:11:18 26.9 C 20 %
2534 05-04-2020 15:21:17 24.5 C 20 %
2535 05-04-2020 15:31:17 24.8 C 20 %
2536 05-04-2020 15:41:17 25.1 C 20 %
2537 05-04-2020 15:51:18 26.6 C 20 %
2538 05-04-2020 16:01:17 25 C 20 %
2539 05-04-2020 16:11:17 23.3 C 20 %
2540 05-04-2020 16:21:17 25.5 C 20 %
2541 05-04-2020 16:31:17 24.8 C 20 %
2542 05-04-2020 16:41:17 23.1 C 20 %
2543 05-04-2020 16:51:17 23.4 C 20 %
2544 05-04-2020 17:01:17 23.5 C 20 %
2545 05-04-2020 17:11:17 26.4 C 20 %
2546 05-04-2020 17:21:17 25.9 C 20 %
2547 05-04-2020 17:31:17 24.4 C 20 %
2548 05-04-2020 17:41:17 24.2 C 20 %
2549 05-04-2020 17:51:17 23.6 C 20 %
2550 05-04-2020 18:01:17 20.8 C 20 %
Sensor: Nr:Datum:Temp:Feuchte:
Aussen-T/F 2551 05-04-2020 18:11:17 19.7 C 20 %
2552 05-04-2020 18:21:17 20 C 20 %
2553 05-04-2020 18:31:17 19.7 C 20 %
2554 05-04-2020 18:41:17 19.4 C 20 %
2555 05-04-2020 18:51:17 18.9 C 20 %
2556 05-04-2020 19:01:17 18.8 C 20 %
2557 05-04-2020 19:11:17 18.4 C 20 %
2558 05-04-2020 19:21:17 18 C 20 %
2559 05-04-2020 19:31:18 17.5 C 20 %
2560 05-04-2020 19:41:18 16.3 C 20 %
2561 05-04-2020 19:51:17 15 C 20 %
2562 05-04-2020 20:01:18 14.3 C 20 %
2563 05-04-2020 20:11:18 14.1 C 20 %
2564 05-04-2020 20:21:17 13.5 C 20 %
2565 05-04-2020 20:31:17 13.3 C 20 %
2566 05-04-2020 20:41:17 13 C 20 %
2567 05-04-2020 20:51:17 12.7 C 20 %
2568 05-04-2020 21:01:18 12.3 C 20 %
2569 05-04-2020 21:11:18 12 C 20 %
2570 05-04-2020 21:21:17 12.1 C 20 %
2571 05-04-2020 21:31:17 11.7 C 20 %
2572 05-04-2020 21:41:17 11.5 C 20 %
2573 05-04-2020 21:51:17 10.3 C 20 %
2574 05-04-2020 22:01:17 10.5 C 20 %
2575 05-04-2020 22:11:17 9.2 C 25 %
Sensor: Nr:Datum:Temp:Feuchte:
Aussen-T/F 2576 05-04-2020 22:21:17 8.9 C 26 %
2577 05-04-2020 22:31:17 8.8 C 26 %
2578 05-04-2020 22:41:17 8.4 C 27 %
2579 05-04-2020 22:51:17 8.2 C 27 %
2580 05-04-2020 23:01:17 8 C 28 %
2581 05-04-2020 23:11:17 7.4 C 30 %
2582 05-04-2020 23:21:17 7.4 C 29 %
2583 05-04-2020 23:31:17 7 C 30 %
2584 05-04-2020 23:41:17 6.7 C 31 %
2585 05-04-2020 23:51:17 6.3 C 31 %
2586 06-04-2020 00:01:17 6.2 C 32 %
2587 06-04-2020 00:11:17 6.3 C 32 %
2588 06-04-2020 00:21:17 6.3 C 32 %
2589 06-04-2020 00:31:18 6 C 32 %
2590 06-04-2020 00:41:18 5.6 C 33 %
2591 06-04-2020 00:51:17 5.6 C 34 %
2592 06-04-2020 01:01:18 5.4 C 35 %
2593 06-04-2020 01:11:18 5.3 C 35 %
2594 06-04-2020 01:21:17 5.1 C 35 %
2595 06-04-2020 01:31:17 4.8 C 36 %
2596 06-04-2020 01:41:17 4.7 C 36 %
2597 06-04-2020 01:51:17 4.6 C 36 %
2598 06-04-2020 02:01:17 4.5 C 37 %
2599 06-04-2020 02:11:17 4.1 C 37 %
2600 06-04-2020 02:21:17 4.2 C 37 %
Sensor: Nr:Datum:Temp:Feuchte:
Aussen-T/F 2601 06-04-2020 02:31:17 4 C 37 %
2602 06-04-2020 02:41:17 4.1 C 37 %
2603 06-04-2020 02:51:17 3.8 C 38 %
2604 06-04-2020 03:01:17 3.9 C 39 %
2605 06-04-2020 03:11:17 3.6 C 39 %
2606 06-04-2020 03:21:17 3.3 C 39 %
2607 06-04-2020 03:31:18 3.3 C 40 %
2608 06-04-2020 03:41:18 3.2 C 40 %
2609 06-04-2020 03:51:17 3.3 C 40 %
2610 06-04-2020 04:01:17 3.2 C 40 %
2611 06-04-2020 04:11:17 3.3 C 40 %
2612 06-04-2020 04:21:17 3.1 C 40 %
2613 06-04-2020 04:31:17 2.8 C 40 %
2614 06-04-2020 04:41:17 2.6 C 41 %
2615 06-04-2020 04:51:17 2.5 C 41 %
2616 06-04-2020 05:01:17 2.4 C 41 %
2617 06-04-2020 05:11:17 2.3 C 41 %
2618 06-04-2020 05:21:18 2.2 C 41 %
2619 06-04-2020 05:31:17 1.9 C 42 %
2620 06-04-2020 05:41:17 1.8 C 43 %
2621 06-04-2020 05:51:17 1.7 C 43 %
2622 06-04-2020 06:01:17 1.6 C 44 %
2623 06-04-2020 06:11:17 1.5 C 44 %
2624 06-04-2020 06:21:18 1.3 C 45 %
2625 06-04-2020 06:31:17 1.2 C 45 %
Sensor: Nr:Datum:Temp:Feuchte:
Aussen-T/F 2626 06-04-2020 06:41:18 1.3 C 45 %
2627 06-04-2020 06:51:17 1.3 C 45 %
2628 06-04-2020 07:01:17 1.4 C 45 %
2629 06-04-2020 07:11:17 1.5 C 45 %
2630 06-04-2020 07:21:17 1.6 C 45 %
2631 06-04-2020 07:31:18 1.5 C 45 %
2632 06-04-2020 07:41:18 1.6 C 45 %
2633 06-04-2020 07:51:17 2 C 45 %
2634 06-04-2020 08:01:17 1.9 C 45 %
2635 06-04-2020 08:11:17 2.2 C 44 %
2636 06-04-2020 08:21:17 2.5 C 44 %
2637 06-04-2020 08:31:17 3 C 42 %
2638 06-04-2020 08:41:17 3.2 C 42 %
2639 06-04-2020 08:51:17 3.4 C 41 %
2640 06-04-2020 09:01:18 3.5 C 41 %
2641 06-04-2020 09:11:18 3.4 C 41 %
2642 06-04-2020 09:21:17 3.9 C 41 %
2643 06-04-2020 09:31:17 4.3 C 40 %
2644 06-04-2020 09:41:17 4.8 C 40 %
2645 06-04-2020 09:51:18 5.2 C 40 %
2646 06-04-2020 10:01:18 6 C 38 %
2647 06-04-2020 10:11:18 6.5 C 37 %
2648 06-04-2020 10:21:17 7.2 C 36 %
2649 06-04-2020 10:31:17 7.9 C 36 %
2650 06-04-2020 10:41:17 8.8 C 35 %
Sensor: Nr:Datum:Temp:Feuchte:
Aussen-T/F 2651 06-04-2020 10:51:17 9.8 C 34 %
2652 06-04-2020 11:01:17 11.1 C 31 %
2653 06-04-2020 11:11:18 12.2 C 29 %
2654 06-04-2020 11:21:17 13.3 C 26 %
2655 06-04-2020 11:31:17 16 C 20 %
2656 06-04-2020 11:41:17 17.1 C 20 %
2657 06-04-2020 11:51:18 17.6 C 20 %
2658 06-04-2020 12:01:18 18.1 C 20 %
2659 06-04-2020 12:11:18 18.6 C 20 %
2660 06-04-2020 12:21:17 20.3 C 20 %
2661 06-04-2020 12:31:17 21 C 20 %
2662 06-04-2020 12:41:17 19.4 C 20 %
2663 06-04-2020 12:51:17 20.2 C 20 %
2664 06-04-2020 13:01:17 20.6 C 20 %
2665 06-04-2020 13:11:17 20.8 C 20 %
2666 06-04-2020 13:21:17 20.4 C 20 %
2667 06-04-2020 13:31:18 20.3 C 20 %
2668 06-04-2020 13:41:18 21.2 C 20 %
2669 06-04-2020 13:51:17 21.3 C 20 %
2670 06-04-2020 14:01:18 22.3 C 20 %
2671 06-04-2020 14:11:18 22.3 C 20 %
2672 06-04-2020 14:21:17 23.7 C 20 %
2673 06-04-2020 14:31:17 26.8 C 20 %
2674 06-04-2020 14:41:17 27.4 C 20 %
2675 06-04-2020 14:51:18 28.3 C 20 %
Sensor: Nr:Datum:Temp:Feuchte:
Aussen-T/F 2676 06-04-2020 15:01:17 28 C 20 %
2677 06-04-2020 15:11:17 26.6 C 20 %
2678 06-04-2020 15:21:17 27.1 C 20 %
2679 06-04-2020 15:31:17 25.8 C 20 %
2680 06-04-2020 15:41:17 26.9 C 20 %
2681 06-04-2020 15:51:17 27.9 C 20 %
2682 06-04-2020 16:01:17 29.7 C 20 %
2683 06-04-2020 16:11:17 27.4 C 20 %
2684 06-04-2020 16:21:18 27.4 C 20 %
2685 06-04-2020 16:31:18 28.3 C 20 %
2686 06-04-2020 16:41:18 28.5 C 20 %
2687 06-04-2020 16:51:17 27.1 C 20 %
2688 06-04-2020 17:01:17 27.6 C 20 %
2689 06-04-2020 17:11:17 26 C 20 %
2690 06-04-2020 17:21:17 26.7 C 20 %
2691 06-04-2020 17:31:17 25.7 C 20 %
2692 06-04-2020 17:41:17 25.5 C 20 %
2693 06-04-2020 17:51:17 24.2 C 20 %
2694 06-04-2020 18:01:17 23.3 C 20 %
2695 06-04-2020 18:11:17 23.1 C 20 %
2696 06-04-2020 18:21:17 22.6 C 20 %
2697 06-04-2020 18:31:18 22.6 C 20 %
2698 06-04-2020 18:41:18 22.3 C 20 %
2699 06-04-2020 18:51:17 22 C 20 %
2700 06-04-2020 19:01:17 21.7 C 20 %
Sensor: Nr:Datum:Temp:Feuchte:
Aussen-T/F 2701 06-04-2020 19:11:17 21.1 C 20 %
2702 06-04-2020 19:21:17 20.5 C 20 %
2703 06-04-2020 19:31:17 20.2 C 20 %
2704 06-04-2020 19:41:17 19.1 C 20 %
2705 06-04-2020 19:51:17 18.3 C 20 %
2706 06-04-2020 20:01:18 16.4 C 20 %
2707 06-04-2020 20:11:18 16.3 C 20 %
2708 06-04-2020 20:21:17 15.8 C 20 %
2709 06-04-2020 20:31:17 15.3 C 20 %
2710 06-04-2020 20:41:18 15.1 C 20 %
2711 06-04-2020 20:51:17 13.7 C 20 %
2712 06-04-2020 21:01:18 13.2 C 20 %
2713 06-04-2020 21:11:18 12.9 C 20 %
2714 06-04-2020 21:21:17 12 C 20 %
2715 06-04-2020 21:31:18 11.8 C 22 %
2716 06-04-2020 21:41:18 11.6 C 22 %
2717 06-04-2020 21:51:17 11.1 C 22 %
2718 06-04-2020 22:01:17 10.8 C 25 %
2719 06-04-2020 22:11:17 10.6 C 25 %
2720 06-04-2020 22:21:17 10.2 C 25 %
2721 06-04-2020 22:31:17 10 C 26 %
2722 06-04-2020 22:41:17 10 C 26 %
2723 06-04-2020 22:51:17 9.9 C 26 %
2724 06-04-2020 23:01:18 9.8 C 26 %
2725 06-04-2020 23:11:18 9.6 C 26 %
Sensor: Nr:Datum:Temp:Feuchte:
Aussen-T/F 2726 06-04-2020 23:21:17 9.5 C 27 %
2727 06-04-2020 23:31:17 9.4 C 27 %
2728 06-04-2020 23:41:17 9.2 C 27 %
2729 06-04-2020 23:51:17 9.5 C 29 %
2730 07-04-2020 00:01:17 10.2 C 26 %
2731 07-04-2020 00:11:17 9.1 C 29 %
2732 07-04-2020 00:21:18 8.7 C 30 %
2733 07-04-2020 00:31:17 8.8 C 30 %
2734 07-04-2020 00:41:17 9 C 30 %
2735 07-04-2020 00:51:17 8.6 C 30 %
2736 07-04-2020 01:01:17 8.7 C 30 %
2737 07-04-2020 01:11:17 9.1 C 30 %
2738 07-04-2020 01:21:17 9.4 C 30 %
2739 07-04-2020 01:31:17 9.8 C 30 %
2740 07-04-2020 01:41:17 10.1 C 30 %
2741 07-04-2020 01:51:18 10 C 29 %
2742 07-04-2020 02:01:18 9.2 C 30 %
2743 07-04-2020 02:11:18 8.8 C 31 %
2744 07-04-2020 02:21:17 8.2 C 33 %
2745 07-04-2020 02:31:17 7.9 C 34 %
2746 07-04-2020 02:41:17 7.5 C 34 %
2747 07-04-2020 02:51:17 7.2 C 35 %
2748 07-04-2020 03:01:17 7.3 C 35 %
2749 07-04-2020 03:11:17 7.6 C 35 %
2750 07-04-2020 03:21:17 7.9 C 35 %
Sensor: Nr:Datum:Temp:Feuchte:
Aussen-T/F 2751 07-04-2020 03:31:17 8 C 35 %
2752 07-04-2020 03:41:17 7.7 C 36 %
2753 07-04-2020 03:51:17 7.8 C 35 %
2754 07-04-2020 04:01:17 7.8 C 36 %
2755 07-04-2020 04:11:17 7.6 C 36 %
2756 07-04-2020 04:21:17 7.4 C 36 %
2757 07-04-2020 04:31:17 7.2 C 36 %
2758 07-04-2020 04:41:18 6.9 C 37 %
2759 07-04-2020 04:51:17 6.8 C 37 %
2760 07-04-2020 05:01:17 6.3 C 38 %
2761 07-04-2020 05:11:17 6.1 C 38 %
2762 07-04-2020 05:21:18 5.9 C 40 %
2763 07-04-2020 05:31:17 5.8 C 40 %
2764 07-04-2020 05:41:17 5.7 C 40 %
2765 07-04-2020 05:51:17 5.6 C 41 %
2766 07-04-2020 06:01:17 5.6 C 41 %
2767 07-04-2020 06:11:17 5.2 C 40 %
2768 07-04-2020 06:21:17 5.3 C 41 %
2769 07-04-2020 06:31:17 5.2 C 41 %
2770 07-04-2020 06:41:17 5 C 41 %
2771 07-04-2020 06:51:17 4.8 C 42 %
2772 07-04-2020 07:01:18 4.8 C 43 %
2773 07-04-2020 07:11:18 4.7 C 43 %
2774 07-04-2020 07:21:18 4.8 C 44 %
2775 07-04-2020 07:31:17 5 C 43 %
Sensor: Nr:Datum:Temp:Feuchte:
Aussen-T/F 2776 07-04-2020 07:41:18 5.7 C 43 %
2777 07-04-2020 07:51:17 5.8 C 42 %
2778 07-04-2020 08:01:17 5.7 C 41 %
2779 07-04-2020 08:11:18 5.8 C 41 %
2780 07-04-2020 08:21:17 6 C 41 %
2781 07-04-2020 08:31:17 6 C 41 %
2782 07-04-2020 08:41:17 6.3 C 41 %
2783 07-04-2020 08:51:17 6.6 C 41 %
2784 07-04-2020 09:01:17 7.1 C 40 %
2785 07-04-2020 09:11:17 7.3 C 40 %
2786 07-04-2020 09:21:17 7.5 C 40 %
2787 07-04-2020 09:31:17 8 C 39 %
2788 07-04-2020 09:41:18 8.9 C 39 %
2789 07-04-2020 09:51:17 9.3 C 37 %
2790 07-04-2020 10:01:17 9.4 C 38 %
2791 07-04-2020 10:11:18 10 C 37 %
2792 07-04-2020 10:21:17 10.7 C 37 %
2793 07-04-2020 10:31:18 11.4 C 36 %
2794 07-04-2020 10:41:18 12.3 C 35 %
2795 07-04-2020 10:51:17 13.1 C 33 %
2796 07-04-2020 11:01:17 14 C 31 %
2797 07-04-2020 11:11:17 14.6 C 31 %
2798 07-04-2020 11:21:17 15.2 C 30 %
2799 07-04-2020 11:31:17 16 C 28 %
2800 07-04-2020 11:41:17 16.5 C 27 %
Sensor: Nr:Datum:Temp:Feuchte:
Aussen-T/F 2801 07-04-2020 11:51:17 16.9 C 27 %
2802 07-04-2020 12:01:17 17.2 C 26 %
2803 07-04-2020 12:11:17 17.7 C 25 %
2804 07-04-2020 12:21:18 18.7 C 23 %
2805 07-04-2020 12:31:17 20.9 C 21 %
2806 07-04-2020 12:41:17 19.6 C 20 %
2807 07-04-2020 12:51:18 19.6 C 20 %
2808 07-04-2020 13:01:17 20.7 C 20 %
2809 07-04-2020 13:11:17 21.3 C 20 %
2810 07-04-2020 13:21:17 20.8 C 20 %
2811 07-04-2020 13:31:17 19.8 C 20 %
2812 07-04-2020 13:41:17 20.4 C 20 %
2813 07-04-2020 13:51:18 20.6 C 20 %
2814 07-04-2020 14:01:17 21.1 C 20 %
2815 07-04-2020 14:11:17 22 C 20 %
2816 07-04-2020 14:21:17 23.6 C 20 %
2817 07-04-2020 14:31:17 26.2 C 20 %
2818 07-04-2020 14:41:17 22.9 C 20 %
2819 07-04-2020 14:51:17 26.7 C 20 %
2820 07-04-2020 15:01:17 26.4 C 20 %
2821 07-04-2020 15:11:17 27.1 C 20 %
2822 07-04-2020 15:21:17 30.1 C 20 %
2823 07-04-2020 15:31:17 28.4 C 20 %
2824 07-04-2020 15:41:18 27.2 C 20 %
2825 07-04-2020 15:51:17 26.6 C 20 %
Sensor: Nr:Datum:Temp:Feuchte:
Aussen-T/F 2826 07-04-2020 16:01:17 27.4 C 20 %
2827 07-04-2020 16:11:17 25.1 C 20 %
2828 07-04-2020 16:21:17 27.8 C 20 %
2829 07-04-2020 16:31:17 23.9 C 20 %
2830 07-04-2020 16:41:18 24.3 C 20 %
2831 07-04-2020 16:51:18 29.2 C 20 %
2832 07-04-2020 17:01:17 31 C 20 %
2833 07-04-2020 17:11:17 25 C 20 %
2834 07-04-2020 17:21:17 24.2 C 20 %
2835 07-04-2020 17:31:18 24.2 C 20 %
2836 07-04-2020 17:41:18 26.9 C 20 %
2837 07-04-2020 17:51:18 24.6 C 20 %
2838 07-04-2020 18:01:17 23.7 C 20 %
2839 07-04-2020 18:11:17 23.7 C 20 %
2840 07-04-2020 18:21:17 22.9 C 20 %
2841 07-04-2020 18:31:17 22.7 C 20 %
2842 07-04-2020 18:41:17 22.3 C 20 %
2843 07-04-2020 18:51:17 22 C 20 %
2844 07-04-2020 19:01:17 21.8 C 20 %
2845 07-04-2020 19:11:18 21 C 20 %
2846 07-04-2020 19:21:17 20 C 20 %
2847 07-04-2020 19:31:17 19.1 C 20 %
2848 07-04-2020 19:41:17 18.4 C 20 %
2849 07-04-2020 19:51:17 18.3 C 20 %
2850 07-04-2020 20:01:18 17.6 C 20 %
Sensor: Nr:Datum:Temp:Feuchte:
Aussen-T/F 2851 07-04-2020 20:11:18 17.3 C 20 %
2852 07-04-2020 20:21:17 17.1 C 20 %
2853 07-04-2020 20:31:17 16.8 C 20 %
2854 07-04-2020 20:41:17 16.5 C 20 %
2855 07-04-2020 20:51:17 16.3 C 20 %
2856 07-04-2020 21:01:17 16.1 C 20 %
2857 07-04-2020 21:11:17 15.9 C 20 %
2858 07-04-2020 21:21:18 15.8 C 20 %
2859 07-04-2020 21:31:17 15.4 C 21 %
2860 07-04-2020 21:41:17 15.2 C 21 %
2861 07-04-2020 21:51:17 15.1 C 22 %
2862 07-04-2020 22:01:18 14.6 C 25 %
2863 07-04-2020 22:11:18 13.1 C 27 %
2864 07-04-2020 22:21:17 12.9 C 29 %
2865 07-04-2020 22:31:17 12.7 C 30 %
2866 07-04-2020 22:41:17 12.7 C 30 %
2867 07-04-2020 22:51:18 12.7 C 30 %
2868 07-04-2020 23:01:18 12.7 C 30 %
2869 07-04-2020 23:11:18 12.6 C 30 %
2870 07-04-2020 23:21:17 13.1 C 29 %
2871 07-04-2020 23:31:17 12.8 C 30 %
2872 07-04-2020 23:41:17 12.8 C 30 %
2873 07-04-2020 23:51:17 12.3 C 31 %
2874 08-04-2020 00:01:17 11.7 C 33 %
2875 08-04-2020 00:11:17 11.7 C 33 %
Sensor: Nr:Datum:Temp:Feuchte:
Aussen-T/F 2876 08-04-2020 00:21:17 11.5 C 33 %
2877 08-04-2020 00:31:17 11.5 C 33 %
2878 08-04-2020 00:41:17 11.2 C 34 %
2879 08-04-2020 00:51:18 10.8 C 35 %
2880 08-04-2020 01:01:17 10.8 C 36 %
2881 08-04-2020 01:11:17 10.9 C 35 %
2882 08-04-2020 01:21:17 10.4 C 36 %
2883 08-04-2020 01:31:18 10.2 C 36 %
2884 08-04-2020 01:41:18 9.9 C 37 %
2885 08-04-2020 01:51:17 9.6 C 38 %
2886 08-04-2020 02:01:18 9.2 C 38 %
2887 08-04-2020 02:11:18 8.7 C 39 %
2888 08-04-2020 02:21:17 8.5 C 40 %
2889 08-04-2020 02:31:17 8.2 C 40 %
2890 08-04-2020 02:41:18 8 C 40 %
2891 08-04-2020 02:51:17 7.7 C 41 %
2892 08-04-2020 03:01:18 7.4 C 41 %
2893 08-04-2020 03:11:18 7.1 C 41 %
2894 08-04-2020 03:21:17 7.1 C 42 %
2895 08-04-2020 03:31:17 7.1 C 42 %
2896 08-04-2020 03:41:17 6.8 C 43 %
2897 08-04-2020 03:51:17 6.7 C 43 %
2898 08-04-2020 04:01:17 6.6 C 44 %
2899 08-04-2020 04:11:18 6.7 C 44 %
2900 08-04-2020 04:21:17 6.3 C 44 %
Sensor: Nr:Datum:Temp:Feuchte:
Aussen-T/F 2901 08-04-2020 04:31:17 6.3 C 45 %
2902 08-04-2020 04:41:17 6.4 C 45 %
2903 08-04-2020 04:51:17 6.3 C 45 %
2904 08-04-2020 05:01:18 6.1 C 44 %
2905 08-04-2020 05:11:18 5.9 C 45 %
2906 08-04-2020 05:21:17 5.6 C 45 %
2907 08-04-2020 05:31:17 5.4 C 45 %
2908 08-04-2020 05:41:18 5.4 C 45 %
2909 08-04-2020 05:51:17 5.4 C 46 %
2910 08-04-2020 06:01:17 5.3 C 46 %
2911 08-04-2020 06:11:17 5.4 C 46 %
2912 08-04-2020 06:21:17 5.3 C 46 %
2913 08-04-2020 06:31:17 5.3 C 46 %
2914 08-04-2020 06:41:17 5.1 C 46 %
2915 08-04-2020 06:51:18 5 C 46 %
2916 08-04-2020 07:01:18 5 C 46 %
2917 08-04-2020 07:11:18 5.1 C 46 %
2918 08-04-2020 07:21:17 5.2 C 46 %
2919 08-04-2020 07:31:17 5.3 C 46 %
2920 08-04-2020 07:41:17 5.4 C 46 %
2921 08-04-2020 07:51:17 5.8 C 46 %
2922 08-04-2020 08:01:17 5.7 C 46 %
2923 08-04-2020 08:11:17 6 C 46 %
2924 08-04-2020 08:21:17 6.3 C 46 %
2925 08-04-2020 08:31:18 6.3 C 46 %
Sensor: Nr:Datum:Temp:Feuchte:
Aussen-T/F 2926 08-04-2020 08:41:18 6.5 C 46 %
2927 08-04-2020 08:51:18 6.7 C 46 %
2928 08-04-2020 09:01:18 7 C 45 %
2929 08-04-2020 09:11:18 7.1 C 45 %
2930 08-04-2020 09:21:17 7.6 C 45 %
2931 08-04-2020 09:31:17 7.9 C 45 %
2932 08-04-2020 09:41:17 8.3 C 45 %
2933 08-04-2020 09:51:17 8.7 C 44 %
2934 08-04-2020 10:01:17 9.1 C 43 %
2935 08-04-2020 10:11:17 9.7 C 43 %
2936 08-04-2020 10:21:17 10.2 C 41 %
2937 08-04-2020 10:31:18 11 C 40 %
2938 08-04-2020 10:41:18 11.8 C 39 %
2939 08-04-2020 10:51:18 12.6 C 38 %
2940 08-04-2020 11:01:18 13.7 C 36 %
2941 08-04-2020 11:11:18 14.5 C 35 %
2942 08-04-2020 11:21:17 15.5 C 34 %
2943 08-04-2020 11:31:18 16.2 C 32 %
2944 08-04-2020 11:41:18 17.6 C 27 %
2945 08-04-2020 11:51:17 18.6 C 25 %
2946 08-04-2020 12:01:18 19.2 C 22 %
2947 08-04-2020 12:11:18 20.1 C 21 %
2948 08-04-2020 12:21:17 21.2 C 20 %
2949 08-04-2020 12:31:17 22.4 C 20 %
2950 08-04-2020 12:41:17 22.9 C 20 %
Sensor: Nr:Datum:Temp:Feuchte:
Aussen-T/F 2951 08-04-2020 12:51:17 21.8 C 20 %
2952 08-04-2020 13:01:18 22.9 C 20 %
2953 08-04-2020 13:11:18 22.4 C 20 %
2954 08-04-2020 13:21:17 22.1 C 20 %
2955 08-04-2020 13:31:18 22.3 C 20 %
2956 08-04-2020 13:41:18 23.3 C 20 %
2957 08-04-2020 13:51:17 22.6 C 20 %
2958 08-04-2020 14:01:18 23 C 20 %
2959 08-04-2020 14:11:18 23.7 C 20 %
2960 08-04-2020 14:21:17 24.8 C 20 %
2961 08-04-2020 14:31:18 28.3 C 20 %
2962 08-04-2020 14:41:18 28.9 C 20 %
2963 08-04-2020 14:51:17 28.7 C 20 %
2964 08-04-2020 15:01:17 28.7 C 20 %
2965 08-04-2020 15:11:17 30.1 C 20 %
2966 08-04-2020 15:21:18 29.3 C 20 %
2967 08-04-2020 15:31:17 29.5 C 20 %
2968 08-04-2020 15:41:17 29.1 C 20 %
2969 08-04-2020 15:51:17 32.2 C 20 %
2970 08-04-2020 16:01:17 31.1 C 20 %
2971 08-04-2020 16:11:17 29.7 C 20 %
2972 08-04-2020 16:21:18 30.7 C 20 %
2973 08-04-2020 16:31:17 29 C 20 %
2974 08-04-2020 16:41:17 32.6 C 20 %
2975 08-04-2020 16:51:17 29.7 C 20 %
Sensor: Nr:Datum:Temp:Feuchte:
Aussen-T/F 2976 08-04-2020 17:01:17 29.4 C 20 %
2977 08-04-2020 17:11:17 29.7 C 20 %
2978 08-04-2020 17:21:17 30.1 C 20 %
2979 08-04-2020 17:31:17 30.1 C 20 %
2980 08-04-2020 17:41:17 29 C 20 %
2981 08-04-2020 17:51:17 28.1 C 20 %
2982 08-04-2020 18:01:17 26.6 C 20 %
2983 08-04-2020 18:11:17 25.2 C 20 %
2984 08-04-2020 18:21:17 24.7 C 20 %
2985 08-04-2020 18:31:18 24.3 C 20 %
2986 08-04-2020 18:41:18 24.1 C 20 %
2987 08-04-2020 18:51:17 23.8 C 20 %
2988 08-04-2020 19:01:17 23.2 C 20 %
2989 08-04-2020 19:11:17 22.6 C 20 %
2990 08-04-2020 19:21:17 21.4 C 20 %
2991 08-04-2020 19:31:17 20.1 C 20 %
2992 08-04-2020 19:41:17 19.7 C 20 %
2993 08-04-2020 19:51:17 19.2 C 20 %
2994 08-04-2020 20:01:17 18.5 C 20 %
2995 08-04-2020 20:11:17 18 C 20 %
2996 08-04-2020 20:21:18 17.5 C 20 %
2997 08-04-2020 20:31:17 17 C 20 %
2998 08-04-2020 20:41:18 16.2 C 20 %
2999 08-04-2020 20:51:17 15.6 C 20 %
3000 08-04-2020 21:01:18 14.6 C 20 %
Sensor: Nr:Datum:Temp:Feuchte:
Aussen-T/F 3001 08-04-2020 21:11:18 13.9 C 20 %
3002 08-04-2020 21:21:17 14.2 C 20 %
3003 08-04-2020 21:31:17 13.7 C 20 %
3004 08-04-2020 21:41:17 13.5 C 20 %
3005 08-04-2020 21:51:17 13.4 C 20 %
3006 08-04-2020 22:01:17 12.9 C 21 %
3007 08-04-2020 22:11:18 12.7 C 21 %
3008 08-04-2020 22:21:17 12.5 C 24 %
3009 08-04-2020 22:31:17 12.2 C 25 %
3010 08-04-2020 22:41:17 11.8 C 26 %
3011 08-04-2020 22:51:18 11.6 C 26 %
3012 08-04-2020 23:01:17 12 C 25 %
3013 08-04-2020 23:11:17 11.5 C 26 %
3014 08-04-2020 23:21:17 10.9 C 28 %
3015 08-04-2020 23:31:17 10.5 C 29 %
3016 08-04-2020 23:41:17 10.7 C 28 %
3017 08-04-2020 23:51:17 11.2 C 28 %
3018 09-04-2020 00:01:18 10.7 C 29 %
3019 09-04-2020 00:11:18 10.7 C 29 %
3020 09-04-2020 00:21:17 10.3 C 30 %
3021 09-04-2020 00:31:18 10 C 30 %
3022 09-04-2020 00:41:18 10.5 C 30 %
3023 09-04-2020 00:51:17 10.5 C 30 %
3024 09-04-2020 01:01:17 10 C 30 %
3025 09-04-2020 01:11:17 9.6 C 31 %
Sensor: Nr:Datum:Temp:Feuchte:
Aussen-T/F 3026 09-04-2020 01:21:17 9.2 C 32 %
3027 09-04-2020 01:31:17 9.9 C 33 %
3028 09-04-2020 01:41:17 9.3 C 33 %
3029 09-04-2020 01:51:17 9.6 C 33 %
3030 09-04-2020 02:01:17 8.8 C 35 %
3031 09-04-2020 02:11:17 9.1 C 34 %
3032 09-04-2020 02:21:18 9 C 34 %
3033 09-04-2020 02:31:18 8.8 C 35 %
3034 09-04-2020 02:41:18 8.7 C 35 %
3035 09-04-2020 02:51:17 8.8 C 35 %
3036 09-04-2020 03:01:17 9.2 C 34 %
3037 09-04-2020 03:11:17 9.7 C 33 %
3038 09-04-2020 03:21:17 9.5 C 33 %
3039 09-04-2020 03:31:17 9.4 C 34 %
3040 09-04-2020 03:41:17 9.5 C 34 %
3041 09-04-2020 03:51:17 10.2 C 32 %
3042 09-04-2020 04:01:17 9.9 C 34 %
3043 09-04-2020 04:11:17 10.1 C 33 %
3044 09-04-2020 04:21:17 10 C 33 %
3045 09-04-2020 04:31:18 9.4 C 34 %
3046 09-04-2020 04:41:18 9.3 C 35 %
3047 09-04-2020 04:51:17 8.9 C 35 %
3048 09-04-2020 05:01:17 8.7 C 36 %
3049 09-04-2020 05:11:17 8.6 C 35 %
3050 09-04-2020 05:21:17 8.5 C 36 %
Sensor: Nr:Datum:Temp:Feuchte:
Aussen-T/F 3051 09-04-2020 05:31:18 8.2 C 36 %
3052 09-04-2020 05:41:18 8.1 C 36 %
3053 09-04-2020 05:51:17 8.1 C 37 %
3054 09-04-2020 06:01:18 8.1 C 37 %
3055 09-04-2020 06:11:18 7.7 C 38 %
3056 09-04-2020 06:21:17 7.1 C 38 %
3057 09-04-2020 06:31:17 7 C 38 %
3058 09-04-2020 06:41:17 6.6 C 39 %
3059 09-04-2020 06:51:17 6.8 C 40 %
3060 09-04-2020 07:01:17 6.9 C 40 %
3061 09-04-2020 07:11:17 7.3 C 39 %
3062 09-04-2020 07:21:17 7.3 C 39 %
3063 09-04-2020 07:31:17 7 C 39 %
3064 09-04-2020 07:41:17 6.9 C 40 %
3065 09-04-2020 07:51:17 7 C 40 %
3066 09-04-2020 08:01:17 7 C 40 %
3067 09-04-2020 08:11:17 7.3 C 40 %
3068 09-04-2020 08:21:18 7.4 C 40 %
3069 09-04-2020 08:31:17 7.6 C 40 %
3070 09-04-2020 08:41:17 8 C 39 %
3071 09-04-2020 08:51:17 8.3 C 39 %
3072 09-04-2020 09:01:17 8.5 C 38 %
3073 09-04-2020 09:11:17 8.7 C 39 %
3074 09-04-2020 09:21:17 9 C 38 %
3075 09-04-2020 09:31:17 9.3 C 38 %
Sensor: Nr:Datum:Temp:Feuchte:
Aussen-T/F 3076 09-04-2020 09:41:17 9.8 C 37 %
3077 09-04-2020 09:51:17 10.4 C 36 %
3078 09-04-2020 10:01:17 10.8 C 36 %
3079 09-04-2020 10:11:17 11.2 C 35 %
3080 09-04-2020 10:21:17 11.8 C 35 %
3081 09-04-2020 10:31:17 12.6 C 34 %
3082 09-04-2020 10:41:17 13.3 C 32 %
3083 09-04-2020 10:51:18 14.6 C 31 %
3084 09-04-2020 11:01:17 15.4 C 30 %
3085 09-04-2020 11:11:18 16.2 C 28 %
3086 09-04-2020 11:21:17 17 C 25 %
3087 09-04-2020 11:31:17 17.9 C 23 %
3088 09-04-2020 11:41:17 18.5 C 21 %
3089 09-04-2020 11:51:18 19 C 20 %
3090 09-04-2020 12:01:17 19.3 C 20 %
3091 09-04-2020 12:11:17 19.8 C 20 %
3092 09-04-2020 12:21:17 20.7 C 20 %
3093 09-04-2020 12:31:17 22 C 20 %
3094 09-04-2020 12:41:17 23 C 20 %
3095 09-04-2020 12:51:18 22.3 C 20 %
3096 09-04-2020 13:01:17 23.2 C 20 %
3097 09-04-2020 13:11:17 23.3 C 20 %
3098 09-04-2020 13:21:17 22.9 C 20 %
3099 09-04-2020 13:31:17 22.4 C 20 %
3100 09-04-2020 13:41:18 22.6 C 20 %
Sensor: Nr:Datum:Temp:Feuchte:
Aussen-T/F 3101 09-04-2020 13:51:17 22.8 C 20 %
3102 09-04-2020 14:01:17 24.1 C 20 %
3103 09-04-2020 14:11:17 23.8 C 20 %
3104 09-04-2020 14:21:17 24.3 C 20 %
3105 09-04-2020 14:31:17 26.8 C 20 %
3106 09-04-2020 14:41:17 28 C 20 %
3107 09-04-2020 14:51:17 29.2 C 20 %
3108 09-04-2020 15:01:17 28.6 C 20 %
3109 09-04-2020 15:11:17 31.7 C 20 %
3110 09-04-2020 15:21:17 28.2 C 20 %
3111 09-04-2020 15:31:18 28.7 C 20 %
3112 09-04-2020 15:41:18 28.4 C 20 %
3113 09-04-2020 15:51:17 30.1 C 20 %
3114 09-04-2020 16:01:18 29.2 C 20 %
3115 09-04-2020 16:11:18 29.3 C 20 %
3116 09-04-2020 16:21:17 31.4 C 20 %
3117 09-04-2020 16:31:17 28.8 C 20 %
3118 09-04-2020 16:41:17 28.8 C 20 %
3119 09-04-2020 16:51:17 29.2 C 20 %
3120 09-04-2020 17:01:17 28.7 C 20 %
3121 09-04-2020 17:11:17 28.4 C 20 %
3122 09-04-2020 17:21:17 29.8 C 20 %
3123 09-04-2020 17:31:17 28 C 20 %
3124 09-04-2020 17:41:17 27.6 C 20 %
3125 09-04-2020 17:51:18 27.1 C 20 %
Sensor: Nr:Datum:Temp:Feuchte:
Aussen-T/F 3126 09-04-2020 18:01:18 25.2 C 20 %
3127 09-04-2020 18:11:18 24 C 20 %
3128 09-04-2020 18:21:17 23.7 C 20 %
3129 09-04-2020 18:31:17 23.4 C 20 %
3130 09-04-2020 18:41:17 23.5 C 20 %
3131 09-04-2020 18:51:17 22.9 C 20 %
3132 09-04-2020 19:01:18 22.7 C 20 %
3133 09-04-2020 19:11:18 22.4 C 20 %
3134 09-04-2020 19:21:17 21.8 C 20 %
3135 09-04-2020 19:31:17 21.1 C 20 %
3136 09-04-2020 19:41:17 20.6 C 20 %
3137 09-04-2020 19:51:17 20.1 C 20 %
3138 09-04-2020 20:01:17 19.7 C 20 %
3139 09-04-2020 20:11:17 17.9 C 20 %
3140 09-04-2020 20:21:17 16.6 C 20 %
3141 09-04-2020 20:31:17 16.6 C 20 %
3142 09-04-2020 20:41:17 16.1 C 21 %
3143 09-04-2020 20:51:17 16.4 C 20 %
3144 09-04-2020 21:01:17 16.2 C 20 %
3145 09-04-2020 21:11:17 16.4 C 20 %
3146 09-04-2020 21:21:17 16.5 C 20 %
3147 09-04-2020 21:31:17 15.9 C 21 %
3148 09-04-2020 21:41:17 15.4 C 22 %
3149 09-04-2020 21:51:17 15.5 C 22 %
3150 09-04-2020 22:01:17 15.5 C 22 %
Sensor: Nr:Datum:Temp:Feuchte:
Aussen-T/F 3151 09-04-2020 22:11:17 15.2 C 22 %
3152 09-04-2020 22:21:17 15.1 C 22 %
3153 09-04-2020 22:31:18 14.8 C 24 %
3154 09-04-2020 22:41:18 14.6 C 25 %
3155 09-04-2020 22:51:17 14.3 C 25 %
3156 09-04-2020 23:01:18 14.2 C 25 %
3157 09-04-2020 23:11:18 14.2 C 25 %
3158 09-04-2020 23:21:17 13.6 C 26 %
3159 09-04-2020 23:31:17 13.8 C 26 %
3160 09-04-2020 23:41:18 13.7 C 26 %
3161 09-04-2020 23:51:17 12.7 C 28 %
3162 10-04-2020 00:01:17 12.7 C 29 %
3163 10-04-2020 00:11:17 11.7 C 31 %
3164 10-04-2020 00:21:18 11.8 C 31 %
3165 10-04-2020 00:31:18 11.1 C 32 %
3166 10-04-2020 00:41:18 10.7 C 34 %
3167 10-04-2020 00:51:17 10.5 C 34 %
3168 10-04-2020 01:01:17 10.1 C 35 %
3169 10-04-2020 01:11:17 10 C 35 %
3170 10-04-2020 01:21:17 9.7 C 36 %
3171 10-04-2020 01:31:17 9.6 C 36 %
3172 10-04-2020 01:41:17 9.5 C 36 %
3173 10-04-2020 01:51:17 9 C 36 %
3174 10-04-2020 02:01:17 9.2 C 36 %
3175 10-04-2020 02:11:17 8.9 C 37 %
Sensor: Nr:Datum:Temp:Feuchte:
Aussen-T/F 3176 10-04-2020 02:21:18 8.7 C 37 %
3177 10-04-2020 02:31:18 8.6 C 37 %
3178 10-04-2020 02:41:18 8.3 C 38 %
3179 10-04-2020 02:51:17 8.2 C 38 %
3180 10-04-2020 03:01:18 8.3 C 38 %
3181 10-04-2020 03:11:18 7.9 C 39 %
3182 10-04-2020 03:21:17 7.6 C 39 %
3183 10-04-2020 03:31:17 7.4 C 40 %
3184 10-04-2020 03:41:17 7.2 C 40 %
3185 10-04-2020 03:51:17 7.1 C 40 %
3186 10-04-2020 04:01:18 7 C 40 %
3187 10-04-2020 04:11:18 6.8 C 41 %
3188 10-04-2020 04:21:17 6.9 C 41 %
3189 10-04-2020 04:31:17 6.6 C 41 %
3190 10-04-2020 04:41:17 6.6 C 41 %
3191 10-04-2020 04:51:18 6.6 C 41 %
3192 10-04-2020 05:01:17 6.3 C 41 %
3193 10-04-2020 05:11:17 6.3 C 42 %
3194 10-04-2020 05:21:18 6.4 C 42 %
3195 10-04-2020 05:31:17 6.2 C 42 %
3196 10-04-2020 05:41:17 5.9 C 43 %
3197 10-04-2020 05:51:17 5.7 C 43 %
3198 10-04-2020 06:01:17 5.8 C 44 %
3199 10-04-2020 06:11:17 5.8 C 44 %
3200 10-04-2020 06:21:17 5.6 C 44 %
Sensor: Nr:Datum:Temp:Feuchte:
Aussen-T/F 3201 10-04-2020 06:31:18 5.4 C 44 %
3202 10-04-2020 06:41:18 5.4 C 44 %
3203 10-04-2020 06:51:17 5.4 C 44 %
3204 10-04-2020 07:01:18 5.3 C 44 %
3205 10-04-2020 07:11:18 5.3 C 45 %
3206 10-04-2020 07:21:17 5.3 C 45 %
3207 10-04-2020 07:31:18 5.3 C 45 %
3208 10-04-2020 07:41:18 5.3 C 45 %
3209 10-04-2020 07:51:17 5.9 C 46 %
3210 10-04-2020 08:01:17 5.8 C 45 %
3211 10-04-2020 08:11:17 5.8 C 45 %
3212 10-04-2020 08:21:17 6 C 44 %
3213 10-04-2020 08:31:17 6.1 C 45 %
3214 10-04-2020 08:41:17 6.2 C 44 %
3215 10-04-2020 08:51:17 6.5 C 45 %
3216 10-04-2020 09:01:17 6.9 C 45 %
3217 10-04-2020 09:11:17 7.8 C 42 %
3218 10-04-2020 09:21:18 8.2 C 41 %
3219 10-04-2020 09:31:18 8.5 C 40 %
3220 10-04-2020 09:41:18 9.1 C 39 %
3221 10-04-2020 09:51:17 9.4 C 39 %
3222 10-04-2020 10:01:17 9.9 C 38 %
3223 10-04-2020 10:11:17 10.2 C 37 %
3224 10-04-2020 10:21:17 10.8 C 37 %
3225 10-04-2020 10:31:17 11.6 C 36 %
Sensor: Nr:Datum:Temp:Feuchte:
Aussen-T/F 3226 10-04-2020 10:41:17 12.3 C 35 %
3227 10-04-2020 10:51:17 13.4 C 33 %
3228 10-04-2020 11:01:17 14 C 31 %
3229 10-04-2020 11:11:17 14.7 C 31 %
3230 10-04-2020 11:21:17 15.9 C 28 %
3231 10-04-2020 11:31:17 16.3 C 27 %
3232 10-04-2020 11:41:17 16.8 C 26 %
3233 10-04-2020 11:51:17 17.5 C 25 %
3234 10-04-2020 12:01:17 17.9 C 24 %
3235 10-04-2020 12:11:17 18.4 C 21 %
3236 10-04-2020 12:21:17 19.2 C 20 %
3237 10-04-2020 12:31:17 19.7 C 20 %
3238 10-04-2020 12:41:17 20.6 C 20 %
3239 10-04-2020 12:51:17 20.4 C 20 %
3240 10-04-2020 13:01:17 20.8 C 20 %
3241 10-04-2020 13:11:17 20.2 C 20 %
3242 10-04-2020 13:21:17 20.4 C 20 %
3243 10-04-2020 13:31:17 20.2 C 20 %
3244 10-04-2020 13:41:17 20.4 C 20 %
3245 10-04-2020 13:51:17 20.7 C 20 %
3246 10-04-2020 14:01:17 21.7 C 20 %
3247 10-04-2020 14:11:17 21.6 C 20 %
3248 10-04-2020 14:21:18 22 C 20 %
3249 10-04-2020 14:31:18 25.1 C 20 %
3250 10-04-2020 14:41:18 29.1 C 20 %
Sensor: Nr:Datum:Temp:Feuchte:
Aussen-T/F 3251 10-04-2020 14:51:17 27.6 C 20 %
3252 10-04-2020 15:01:17 27.9 C 20 %
3253 10-04-2020 15:11:17 31.6 C 20 %
3254 10-04-2020 15:21:17 30.1 C 20 %
3255 10-04-2020 15:31:17 30.5 C 20 %
3256 10-04-2020 15:41:17 30.2 C 20 %
3257 10-04-2020 15:51:17 29.1 C 20 %
3258 10-04-2020 16:01:17 29.8 C 20 %
3259 10-04-2020 16:11:17 30.3 C 20 %
3260 10-04-2020 16:21:17 28.8 C 20 %
3261 10-04-2020 16:31:17 29.1 C 20 %
3262 10-04-2020 16:41:17 28.3 C 20 %
3263 10-04-2020 16:51:17 30.8 C 20 %
3264 10-04-2020 17:01:17 29.6 C 20 %
3265 10-04-2020 17:11:17 28.8 C 20 %
3266 10-04-2020 17:21:17 26.8 C 20 %
3267 10-04-2020 17:31:17 28.5 C 20 %
3268 10-04-2020 17:41:17 27.6 C 20 %
3269 10-04-2020 17:51:18 26.4 C 20 %
3270 10-04-2020 18:01:17 23.6 C 20 %
3271 10-04-2020 18:11:17 23 C 20 %
3272 10-04-2020 18:21:18 22.5 C 20 %
3273 10-04-2020 18:31:18 22.2 C 20 %
3274 10-04-2020 18:41:18 22.3 C 20 %
3275 10-04-2020 18:51:17 22 C 20 %
Sensor: Nr:Datum:Temp:Feuchte:
Aussen-T/F 3276 10-04-2020 19:01:17 21.6 C 20 %
3277 10-04-2020 19:11:17 21.4 C 20 %
3278 10-04-2020 19:21:17 21.1 C 20 %
3279 10-04-2020 19:31:17 20.9 C 20 %
3280 10-04-2020 19:41:17 20.7 C 20 %
3281 10-04-2020 19:51:18 20.2 C 20 %
3282 10-04-2020 20:01:17 19.6 C 20 %
3283 10-04-2020 20:11:17 18.5 C 20 %
3284 10-04-2020 20:21:18 16 C 20 %
3285 10-04-2020 20:31:17 15.9 C 20 %
3286 10-04-2020 20:41:17 15.3 C 20 %
3287 10-04-2020 20:51:17 15 C 20 %
3288 10-04-2020 21:01:17 15.3 C 20 %
3289 10-04-2020 21:11:17 14.7 C 20 %
3290 10-04-2020 21:21:17 14.3 C 21 %
3291 10-04-2020 21:31:17 13.8 C 21 %
3292 10-04-2020 21:41:17 14.2 C 21 %
3293 10-04-2020 21:51:17 14.3 C 21 %
3294 10-04-2020 22:01:18 14.5 C 21 %
3295 10-04-2020 22:11:18 14.9 C 20 %
3296 10-04-2020 22:21:18 14.5 C 22 %
3297 10-04-2020 22:31:17 14.5 C 22 %
3298 10-04-2020 22:41:17 13.9 C 24 %
3299 10-04-2020 22:51:17 13.1 C 25 %
3300 10-04-2020 23:01:17 12.7 C 25 %
Sensor: Nr:Datum:Temp:Feuchte:
Aussen-T/F 3301 10-04-2020 23:11:17 12.8 C 25 %
3302 10-04-2020 23:21:17 12 C 26 %
3303 10-04-2020 23:31:17 12.2 C 26 %
3304 10-04-2020 23:41:17 11.2 C 28 %
3305 10-04-2020 23:51:17 11.1 C 29 %
3306 11-04-2020 00:01:18 10.5 C 30 %
3307 11-04-2020 00:11:18 10.8 C 30 %
3308 11-04-2020 00:21:17 10.8 C 30 %
3309 11-04-2020 00:31:17 10.1 C 31 %
3310 11-04-2020 00:41:18 9.9 C 32 %
3311 11-04-2020 00:51:18 10 C 31 %
3312 11-04-2020 01:01:17 9.6 C 31 %
3313 11-04-2020 01:11:17 9.6 C 32 %
3314 11-04-2020 01:21:17 9.1 C 32 %
3315 11-04-2020 01:31:18 9.2 C 32 %
3316 11-04-2020 01:41:18 9 C 32 %
3317 11-04-2020 01:51:18 8.7 C 32 %
3318 11-04-2020 02:01:17 8.4 C 32 %
3319 11-04-2020 02:11:17 8.2 C 32 %
3320 11-04-2020 02:21:18 8.1 C 32 %
3321 11-04-2020 02:31:17 8.3 C 32 %
3322 11-04-2020 02:41:17 8.1 C 32 %
3323 11-04-2020 02:51:17 7.9 C 33 %
3324 11-04-2020 03:01:17 8.5 C 31 %
3325 11-04-2020 03:11:17 8.7 C 31 %
Sensor: Nr:Datum:Temp:Feuchte:
Aussen-T/F 3326 11-04-2020 03:21:17 8.8 C 30 %
3327 11-04-2020 03:31:18 8.8 C 30 %
3328 11-04-2020 03:41:18 8.2 C 30 %
3329 11-04-2020 03:51:17 8.6 C 30 %
3330 11-04-2020 04:01:17 8.3 C 30 %
3331 11-04-2020 04:11:17 8.3 C 30 %
3332 11-04-2020 04:21:17 7.7 C 30 %
3333 11-04-2020 04:31:17 7.4 C 30 %
3334 11-04-2020 04:41:17 7.5 C 30 %
3335 11-04-2020 04:51:17 7.6 C 29 %
3336 11-04-2020 05:01:17 7.4 C 29 %
3337 11-04-2020 05:11:17 6.9 C 30 %
3338 11-04-2020 05:21:17 6.8 C 30 %
3339 11-04-2020 05:31:18 6.1 C 31 %
3340 11-04-2020 05:41:18 5.8 C 32 %
3341 11-04-2020 05:51:17 5.7 C 32 %
3342 11-04-2020 06:01:17 5.6 C 32 %
3343 11-04-2020 06:11:17 5 C 33 %
3344 11-04-2020 06:21:17 4.9 C 35 %
3345 11-04-2020 06:31:18 5 C 33 %
3346 11-04-2020 06:41:18 4.6 C 35 %
3347 11-04-2020 06:51:17 4.6 C 35 %
3348 11-04-2020 07:01:18 4.4 C 35 %
3349 11-04-2020 07:11:18 4.5 C 35 %
3350 11-04-2020 07:21:17 4.4 C 35 %
Sensor: Nr:Datum:Temp:Feuchte:
Aussen-T/F 3351 11-04-2020 07:31:18 4.4 C 36 %
3352 11-04-2020 07:41:18 4.7 C 35 %
3353 11-04-2020 07:51:17 5 C 34 %
3354 11-04-2020 08:01:18 5 C 34 %
3355 11-04-2020 08:11:18 5 C 35 %
3356 11-04-2020 08:21:18 5.1 C 35 %
3357 11-04-2020 08:31:18 5.5 C 34 %
3358 11-04-2020 08:41:18 6 C 33 %
3359 11-04-2020 08:51:18 6.4 C 32 %
3360 11-04-2020 09:01:17 6.5 C 33 %
3361 11-04-2020 09:11:18 7.1 C 31 %
3362 11-04-2020 09:21:17 7.3 C 31 %
3363 11-04-2020 09:31:18 7.8 C 31 %
3364 11-04-2020 09:41:18 8.2 C 30 %
3365 11-04-2020 09:51:17 8.6 C 30 %
3366 11-04-2020 10:01:17 9.1 C 29 %
3367 11-04-2020 10:11:17 9.5 C 29 %
3368 11-04-2020 10:21:17 10.2 C 26 %
3369 11-04-2020 10:31:17 10.7 C 27 %
3370 11-04-2020 10:41:17 11.5 C 25 %
3371 11-04-2020 10:51:17 12.3 C 21 %
3372 11-04-2020 11:01:18 12.9 C 20 %
3373 11-04-2020 11:11:18 13.7 C 20 %
3374 11-04-2020 11:21:17 14.5 C 20 %
3375 11-04-2020 11:31:17 15.3 C 20 %
Sensor: Nr:Datum:Temp:Feuchte:
Aussen-T/F 3376 11-04-2020 11:41:18 16 C 20 %
3377 11-04-2020 11:51:17 16.5 C 20 %
3378 11-04-2020 12:01:17 17.2 C 20 %
3379 11-04-2020 12:11:17 17.5 C 20 %
3380 11-04-2020 12:21:18 18.1 C 20 %
3381 11-04-2020 12:31:17 19.1 C 20 %
3382 11-04-2020 12:41:17 19.4 C 20 %
3383 11-04-2020 12:51:17 19.5 C 20 %
3384 11-04-2020 13:01:17 19.6 C 20 %
3385 11-04-2020 13:11:17 19.5 C 20 %
3386 11-04-2020 13:21:17 19.5 C 20 %
3387 11-04-2020 13:31:17 19.6 C 20 %
3388 11-04-2020 13:41:17 19.9 C 20 %
3389 11-04-2020 13:51:17 20.2 C 20 %
3390 11-04-2020 14:01:18 20.9 C 20 %
3391 11-04-2020 14:11:18 21.3 C 20 %
3392 11-04-2020 14:21:17 21.5 C 20 %
3393 11-04-2020 14:31:17 24.4 C 20 %
3394 11-04-2020 14:41:17 27.5 C 20 %
3395 11-04-2020 14:51:18 27.4 C 20 %
3396 11-04-2020 15:01:18 28.6 C 20 %
3397 11-04-2020 15:11:18 30.4 C 20 %
3398 11-04-2020 15:21:17 29.9 C 20 %
3399 11-04-2020 15:31:17 30.4 C 20 %
3400 11-04-2020 15:41:17 31.2 C 20 %
Sensor: Nr:Datum:Temp:Feuchte:
Aussen-T/F 3401 11-04-2020 15:51:18 31.8 C 20 %
3402 11-04-2020 16:01:17 28.5 C 20 %
3403 11-04-2020 16:11:17 31.4 C 20 %
3404 11-04-2020 16:21:18 30.7 C 20 %
3405 11-04-2020 16:31:17 31.5 C 20 %
3406 11-04-2020 16:41:17 31.3 C 20 %
3407 11-04-2020 16:51:17 32.1 C 20 %
3408 11-04-2020 17:01:17 31.8 C 20 %
3409 11-04-2020 17:11:17 29.5 C 20 %
3410 11-04-2020 17:21:17 29.8 C 20 %
3411 11-04-2020 17:31:17 28.7 C 20 %
3412 11-04-2020 17:41:17 26.5 C 20 %
3413 11-04-2020 17:51:17 27.5 C 20 %
3414 11-04-2020 18:01:17 24.2 C 20 %
3415 11-04-2020 18:11:17 23.4 C 20 %
3416 11-04-2020 18:21:17 23.6 C 20 %
3417 11-04-2020 18:31:17 23.6 C 20 %
3418 11-04-2020 18:41:17 23.3 C 20 %
3419 11-04-2020 18:51:17 22.9 C 20 %
3420 11-04-2020 19:01:17 22.9 C 20 %
3421 11-04-2020 19:11:17 22.7 C 20 %
3422 11-04-2020 19:21:18 22 C 20 %
3423 11-04-2020 19:31:17 21.7 C 20 %
3424 11-04-2020 19:41:17 21.2 C 20 %
3425 11-04-2020 19:51:17 18.9 C 20 %
Sensor: Nr:Datum:Temp:Feuchte:
Aussen-T/F 3426 11-04-2020 20:01:17 18 C 20 %
3427 11-04-2020 20:11:17 17.1 C 20 %
3428 11-04-2020 20:21:17 16.6 C 20 %
3429 11-04-2020 20:31:17 16.5 C 20 %
3430 11-04-2020 20:41:17 16.5 C 20 %
3431 11-04-2020 20:51:17 16.2 C 20 %
3432 11-04-2020 21:01:18 16 C 20 %
3433 11-04-2020 21:11:18 15.5 C 20 %
3434 11-04-2020 21:21:18 15.4 C 20 %
3435 11-04-2020 21:31:17 15.1 C 20 %
3436 11-04-2020 21:41:17 14.8 C 20 %
3437 11-04-2020 21:51:17 14.5 C 20 %
3438 11-04-2020 22:01:17 14.3 C 20 %
3439 11-04-2020 22:11:17 14.4 C 20 %
3440 11-04-2020 22:21:17 14 C 20 %
3441 11-04-2020 22:31:18 14 C 21 %
3442 11-04-2020 22:41:18 14.4 C 21 %
3443 11-04-2020 22:51:17 14.4 C 22 %
3444 11-04-2020 23:01:17 13.7 C 23 %
3445 11-04-2020 23:11:17 13 C 24 %
3446 11-04-2020 23:21:18 12.3 C 26 %
3447 11-04-2020 23:31:18 12.1 C 26 %
3448 11-04-2020 23:41:18 11.8 C 27 %
3449 11-04-2020 23:51:17 11.7 C 28 %
3450 12-04-2020 00:01:17 11.6 C 29 %
Sensor: Nr:Datum:Temp:Feuchte:
Aussen-T/F 3451 12-04-2020 00:11:17 11.3 C 28 %
3452 12-04-2020 00:21:17 11.3 C 29 %
3453 12-04-2020 00:31:17 11.5 C 29 %
3454 12-04-2020 00:41:17 11.6 C 29 %
3455 12-04-2020 00:51:17 11.4 C 28 %
3456 12-04-2020 01:01:17 11.3 C 28 %
3457 12-04-2020 01:11:17 11 C 28 %
3458 12-04-2020 01:21:17 10.6 C 29 %
3459 12-04-2020 01:31:18 10.3 C 29 %
3460 12-04-2020 01:41:18 10.2 C 30 %
3461 12-04-2020 01:51:17 10.6 C 29 %
3462 12-04-2020 02:01:18 10.8 C 30 %
3463 12-04-2020 02:11:18 10.7 C 31 %
3464 12-04-2020 02:21:18 10.3 C 31 %
3465 12-04-2020 02:31:17 10.4 C 30 %
3466 12-04-2020 02:41:17 10.2 C 31 %
3467 12-04-2020 02:51:17 10.1 C 31 %
3468 12-04-2020 03:01:17 10.3 C 31 %
3469 12-04-2020 03:11:17 10.2 C 31 %
3470 12-04-2020 03:21:17 10.1 C 32 %
3471 12-04-2020 03:31:17 10 C 32 %
3472 12-04-2020 03:41:18 9.9 C 33 %
3473 12-04-2020 03:51:17 10 C 32 %
3474 12-04-2020 04:01:17 9.8 C 33 %
3475 12-04-2020 04:11:17 9.7 C 33 %
Sensor: Nr:Datum:Temp:Feuchte:
Aussen-T/F 3476 12-04-2020 04:21:17 8.9 C 35 %
3477 12-04-2020 04:31:17 8.8 C 34 %
3478 12-04-2020 04:41:17 8.9 C 35 %
3479 12-04-2020 04:51:17 8.5 C 35 %
3480 12-04-2020 05:01:18 8.2 C 36 %
3481 12-04-2020 05:11:18 8.4 C 36 %
3482 12-04-2020 05:21:17 8.5 C 36 %
3483 12-04-2020 05:31:17 8.2 C 36 %
3484 12-04-2020 05:41:17 8 C 36 %
3485 12-04-2020 05:51:17 7.6 C 37 %
3486 12-04-2020 06:01:17 7.7 C 37 %
3487 12-04-2020 06:11:17 7.5 C 38 %
3488 12-04-2020 06:21:17 7.2 C 38 %
3489 12-04-2020 06:31:17 7.1 C 39 %
3490 12-04-2020 06:41:17 7.2 C 39 %
3491 12-04-2020 06:51:17 7.3 C 39 %
3492 12-04-2020 07:01:17 6.9 C 39 %
3493 12-04-2020 07:11:17 6.7 C 40 %
3494 12-04-2020 07:21:17 6.5 C 40 %
3495 12-04-2020 07:31:17 6.7 C 40 %
3496 12-04-2020 07:41:17 7.1 C 40 %
3497 12-04-2020 07:51:18 7 C 40 %
3498 12-04-2020 08:01:17 7.3 C 40 %
3499 12-04-2020 08:11:17 7.5 C 40 %
3500 12-04-2020 08:21:17 7.5 C 40 %
Sensor: Nr:Datum:Temp:Feuchte:
Aussen-T/F 3501 12-04-2020 08:31:17 7.6 C 40 %
3502 12-04-2020 08:41:18 7.9 C 40 %
3503 12-04-2020 08:51:17 8.2 C 40 %
3504 12-04-2020 09:01:18 8.8 C 39 %
3505 12-04-2020 09:11:18 9.2 C 38 %
3506 12-04-2020 09:21:17 9.5 C 38 %
3507 12-04-2020 09:31:17 10 C 37 %
3508 12-04-2020 09:41:17 10.1 C 37 %
3509 12-04-2020 09:51:17 11 C 36 %
3510 12-04-2020 10:01:17 11.3 C 36 %
3511 12-04-2020 10:11:17 11.7 C 35 %
3512 12-04-2020 10:21:17 12.2 C 35 %
3513 12-04-2020 10:31:18 13.2 C 33 %
3514 12-04-2020 10:41:18 14.4 C 31 %
3515 12-04-2020 10:51:17 14.9 C 31 %
3516 12-04-2020 11:01:17 15.6 C 30 %
3517 12-04-2020 11:11:17 17 C 27 %
3518 12-04-2020 11:21:17 17.6 C 27 %
3519 12-04-2020 11:31:17 18 C 26 %
3520 12-04-2020 11:41:17 18.5 C 24 %
3521 12-04-2020 11:51:17 19.1 C 20 %
3522 12-04-2020 12:01:17 20.6 C 20 %
3523 12-04-2020 12:11:17 20.8 C 20 %
3524 12-04-2020 12:21:17 21.7 C 20 %
3525 12-04-2020 12:31:17 21.6 C 20 %
Sensor: Nr:Datum:Temp:Feuchte:
Aussen-T/F 3526 12-04-2020 12:41:17 21.8 C 20 %
3527 12-04-2020 12:51:18 21.2 C 20 %
3528 12-04-2020 13:01:17 21.7 C 20 %
3529 12-04-2020 13:11:17 21.7 C 20 %
3530 12-04-2020 13:21:17 22 C 20 %
3531 12-04-2020 13:31:17 21.7 C 20 %
3532 12-04-2020 13:41:17 22 C 20 %
3533 12-04-2020 13:51:17 22.1 C 20 %
3534 12-04-2020 14:01:17 22.4 C 20 %
3535 12-04-2020 14:11:17 22.8 C 20 %
3536 12-04-2020 14:21:17 22.9 C 20 %
3537 12-04-2020 14:31:17 26.2 C 20 %
3538 12-04-2020 14:41:17 28.6 C 20 %
3539 12-04-2020 14:51:17 28.5 C 20 %
3540 12-04-2020 15:01:17 30.3 C 20 %
3541 12-04-2020 15:11:17 27.7 C 20 %
3542 12-04-2020 15:21:17 27.9 C 20 %
3543 12-04-2020 15:31:18 30.7 C 20 %
3544 12-04-2020 15:41:18 30.5 C 20 %
3545 12-04-2020 15:51:18 28.3 C 20 %
3546 12-04-2020 16:01:17 30.5 C 20 %
3547 12-04-2020 16:11:17 33.2 C 20 %
3548 12-04-2020 16:21:17 32.8 C 20 %
3549 12-04-2020 16:31:17 27.8 C 20 %
3550 12-04-2020 16:41:17 26 C 20 %
Sensor: Nr:Datum:Temp:Feuchte:
Aussen-T/F 3551 12-04-2020 16:51:17 24.7 C 20 %
3552 12-04-2020 17:01:17 29.6 C 20 %
3553 12-04-2020 17:11:18 29.6 C 20 %
3554 12-04-2020 17:21:17 29.5 C 20 %
3555 12-04-2020 17:31:17 26.5 C 20 %
3556 12-04-2020 17:41:17 29.3 C 20 %
3557 12-04-2020 17:51:17 29.8 C 20 %
3558 12-04-2020 18:01:18 24.6 C 20 %
3559 12-04-2020 18:11:18 24 C 20 %
3560 12-04-2020 18:21:17 24 C 20 %
3561 12-04-2020 18:31:17 23.6 C 20 %
3562 12-04-2020 18:41:17 22.9 C 20 %
3563 12-04-2020 18:51:17 22.4 C 20 %
3564 12-04-2020 19:01:17 22.5 C 20 %
3565 12-04-2020 19:11:17 22.4 C 20 %
3566 12-04-2020 19:21:17 22 C 20 %
3567 12-04-2020 19:31:17 21.6 C 20 %
3568 12-04-2020 19:41:17 20.3 C 20 %
3569 12-04-2020 19:51:18 19.1 C 20 %
3570 12-04-2020 20:01:18 18.2 C 20 %
3571 12-04-2020 20:11:18 17.9 C 20 %
3572 12-04-2020 20:21:17 17.5 C 20 %
3573 12-04-2020 20:31:18 17 C 20 %
3574 12-04-2020 20:41:18 16.8 C 20 %
3575 12-04-2020 20:51:17 16 C 20 %
Sensor: Nr:Datum:Temp:Feuchte:
Aussen-T/F 3576 12-04-2020 21:01:17 15.5 C 20 %
3577 12-04-2020 21:11:17 14 C 20 %
3578 12-04-2020 21:22:17 13.5 C 20 %
3579 12-04-2020 21:31:17 13.2 C 21 %
3580 12-04-2020 21:41:17 13.2 C 20 %
3581 12-04-2020 21:51:17 13.3 C 21 %
3582 12-04-2020 22:01:17 13.4 C 20 %
3583 12-04-2020 22:11:17 13 C 21 %
3584 12-04-2020 22:22:17 12.9 C 22 %
3585 12-04-2020 22:32:17 12.2 C 23 %
3586 12-04-2020 22:42:17 11.8 C 26 %
3587 12-04-2020 22:51:17 11.7 C 25 %
3588 12-04-2020 23:01:18 11.5 C 25 %
3589 12-04-2020 23:11:18 11.1 C 26 %
3590 12-04-2020 23:21:17 10.9 C 27 %
3591 12-04-2020 23:32:17 10.7 C 28 %
3592 12-04-2020 23:41:17 10.3 C 28 %
3593 12-04-2020 23:52:17 10.5 C 28 %
3594 13-04-2020 00:01:17 10.6 C 28 %
3595 13-04-2020 00:11:17 10.4 C 29 %
3596 13-04-2020 00:21:18 10.4 C 30 %
3597 13-04-2020 00:31:17 10.1 C 30 %
3598 13-04-2020 00:41:17 9.9 C 31 %
3599 13-04-2020 00:51:17 9.7 C 31 %
3600 13-04-2020 01:01:18 9.5 C 31 %
Sensor: Nr:Datum:Temp:Feuchte:
Aussen-T/F 3601 13-04-2020 01:11:18 9.4 C 32 %
3602 13-04-2020 01:21:18 9 C 32 %
3603 13-04-2020 01:31:18 9.3 C 32 %
3604 13-04-2020 01:41:18 9.2 C 32 %
3605 13-04-2020 01:51:18 9.3 C 32 %
3606 13-04-2020 02:02:17 9.2 C 32 %
3607 13-04-2020 02:12:17 9.2 C 32 %
3608 13-04-2020 02:21:17 9.1 C 32 %
3609 13-04-2020 02:31:18 9 C 33 %
3610 13-04-2020 02:41:18 8.6 C 34 %
3611 13-04-2020 02:51:17 8.6 C 34 %
3612 13-04-2020 03:01:18 8.4 C 34 %
3613 13-04-2020 03:11:18 8.2 C 35 %
3614 13-04-2020 03:22:17 7.9 C 35 %
3615 13-04-2020 03:32:17 8.1 C 35 %
3616 13-04-2020 03:42:17 8 C 35 %
3617 13-04-2020 03:51:17 7.8 C 35 %
3618 13-04-2020 04:02:17 7.5 C 36 %
3619 13-04-2020 04:12:17 7.2 C 36 %
3620 13-04-2020 04:21:18 6.8 C 38 %
3621 13-04-2020 04:32:17 6.8 C 38 %
3622 13-04-2020 04:41:17 6.7 C 39 %
3623 13-04-2020 04:52:17 7.7 C 37 %
3624 13-04-2020 05:02:17 7.3 C 37 %
3625 13-04-2020 05:12:17 7.5 C 38 %
Sensor: Nr:Datum:Temp:Feuchte:
Aussen-T/F 3626 13-04-2020 05:22:17 7.8 C 38 %
3627 13-04-2020 05:32:17 7.6 C 37 %
3628 13-04-2020 05:42:17 7.4 C 37 %
3629 13-04-2020 05:52:17 7.2 C 38 %
3630 13-04-2020 06:02:17 7.2 C 38 %
3631 13-04-2020 06:12:17 6.6 C 39 %
3632 13-04-2020 06:22:17 6.2 C 39 %
3633 13-04-2020 06:32:17 6.3 C 40 %
3634 13-04-2020 06:42:17 6.3 C 40 %
3635 13-04-2020 06:52:17 6.4 C 40 %
3636 13-04-2020 07:02:17 6.5 C 40 %
3637 13-04-2020 07:12:17 7.2 C 39 %
3638 13-04-2020 07:22:17 7.6 C 38 %
3639 13-04-2020 07:32:17 8.1 C 37 %
3640 13-04-2020 07:42:17 8.3 C 37 %
3641 13-04-2020 07:52:17 8.5 C 37 %
3642 13-04-2020 08:02:17 8.6 C 36 %
3643 13-04-2020 08:12:18 8.9 C 36 %
3644 13-04-2020 08:22:17 9 C 36 %
3645 13-04-2020 08:32:17 9.4 C 36 %
3646 13-04-2020 08:42:17 10.7 C 37 %
3647 13-04-2020 08:52:17 11.1 C 36 %
3648 13-04-2020 09:02:17 10.7 C 37 %
3649 13-04-2020 09:12:17 10.7 C 37 %
3650 13-04-2020 09:22:17 11 C 36 %
Sensor: Nr:Datum:Temp:Feuchte:
Aussen-T/F 3651 13-04-2020 09:32:17 11.5 C 36 %
3652 13-04-2020 09:42:17 11.9 C 35 %
3653 13-04-2020 09:52:17 11.4 C 35 %
3654 13-04-2020 10:02:17 11.2 C 35 %
3655 13-04-2020 10:12:17 11.1 C 35 %
3656 13-04-2020 10:22:17 11 C 34 %
3657 13-04-2020 10:32:17 11.1 C 34 %
3658 13-04-2020 10:42:17 11.3 C 34 %
3659 13-04-2020 10:52:17 11.6 C 33 %
3660 13-04-2020 11:02:17 11.6 C 33 %
3661 13-04-2020 11:12:17 11.4 C 32 %
3662 13-04-2020 11:22:17 11.8 C 32 %
3663 13-04-2020 11:32:17 11.5 C 31 %
3664 13-04-2020 11:42:17 11.1 C 31 %
3665 13-04-2020 11:52:16 10.8 C 32 %
3666 13-04-2020 12:02:17 10.9 C 32 %
3667 13-04-2020 12:12:17 10.5 C 33 %
3668 13-04-2020 12:22:17 10.4 C 33 %
3669 13-04-2020 12:32:17 10.7 C 32 %
3670 13-04-2020 12:42:17 11.1 C 32 %
3671 13-04-2020 12:52:17 10.6 C 32 %
3672 13-04-2020 13:02:16 10.3 C 32 %
3673 13-04-2020 13:12:16 10.2 C 32 %
3674 13-04-2020 13:22:17 10.2 C 32 %
3675 13-04-2020 13:32:17 9.6 C 33 %
Sensor: Nr:Datum:Temp:Feuchte:
Aussen-T/F 3676 13-04-2020 13:42:17 8.6 C 35 %
3677 13-04-2020 13:52:17 7.6 C 39 %
3678 13-04-2020 14:02:17 7.5 C 40 %
3679 13-04-2020 14:12:17 7.7 C 38 %
3680 13-04-2020 14:22:16 8.7 C 36 %
3681 13-04-2020 14:32:17 9.2 C 35 %
3682 13-04-2020 14:42:17 9.6 C 34 %
3683 13-04-2020 14:52:16 10.9 C 31 %
3684 13-04-2020 15:02:17 12.4 C 26 %
3685 13-04-2020 15:12:17 12.3 C 25 %
3686 13-04-2020 15:22:17 12.7 C 20 %
3687 13-04-2020 15:32:17 11.8 C 20 %
3688 13-04-2020 15:42:17 12.4 C 20 %
3689 13-04-2020 15:52:16 13.2 C 20 %
3690 13-04-2020 16:02:16 12.2 C 20 %
3691 13-04-2020 16:12:16 14.4 C 20 %
3692 13-04-2020 16:22:16 15 C 20 %
3693 13-04-2020 16:32:17 16 C 20 %
3694 13-04-2020 16:42:17 14.9 C 20 %
3695 13-04-2020 16:52:16 16.5 C 20 %
3696 13-04-2020 17:02:17 15.2 C 20 %
3697 13-04-2020 17:12:17 15.6 C 20 %
3698 13-04-2020 17:22:16 15 C 20 %
3699 13-04-2020 17:32:16 15 C 20 %
3700 13-04-2020 17:42:16 14.5 C 20 %
Sensor: Nr:Datum:Temp:Feuchte:
Aussen-T/F 3701 13-04-2020 17:52:16 15.4 C 20 %
3702 13-04-2020 18:02:16 13.2 C 20 %
3703 13-04-2020 18:12:16 12.5 C 20 %
3704 13-04-2020 18:22:17 12.1 C 20 %
3705 13-04-2020 18:32:17 11.9 C 20 %
3706 13-04-2020 18:42:18 11.1 C 20 %
3707 13-04-2020 18:52:16 11.1 C 20 %
3708 13-04-2020 19:02:16 10.8 C 20 %
3709 13-04-2020 19:12:16 10.5 C 20 %
3710 13-04-2020 19:22:16 10.2 C 20 %
3711 13-04-2020 19:32:17 10 C 20 %
3712 13-04-2020 19:42:17 9.8 C 20 %
3713 13-04-2020 19:52:16 9.6 C 20 %
3714 13-04-2020 20:02:16 9 C 20 %
3715 13-04-2020 20:12:16 8.6 C 20 %
3716 13-04-2020 20:22:16 8.5 C 20 %
3717 13-04-2020 20:32:16 8.4 C 20 %
3718 13-04-2020 20:42:16 8.2 C 20 %
3719 13-04-2020 20:52:16 7.5 C 20 %
3720 13-04-2020 21:02:16 7.5 C 20 %
3721 13-04-2020 21:12:16 7.4 C 20 %
3722 13-04-2020 21:22:16 7.3 C 20 %
3723 13-04-2020 21:32:17 7.2 C 20 %
3724 13-04-2020 21:42:17 6.7 C 20 %
3725 13-04-2020 21:52:16 6.5 C 20 %
Sensor: Nr:Datum:Temp:Feuchte:
Aussen-T/F 3726 13-04-2020 22:02:16 6.1 C 20 %
3727 13-04-2020 22:12:16 5.5 C 20 %
3728 13-04-2020 22:22:16 5.1 C 20 %
3729 13-04-2020 22:32:16 4.6 C 23 %
3730 13-04-2020 22:42:16 4.4 C 25 %
3731 13-04-2020 22:52:16 4.1 C 25 %
3732 13-04-2020 23:02:16 3.9 C 26 %
3733 13-04-2020 23:12:16 3.8 C 27 %
3734 13-04-2020 23:22:16 3.5 C 30 %
3735 13-04-2020 23:32:17 3.3 C 29 %
3736 13-04-2020 23:42:17 4 C 26 %
3737 13-04-2020 23:52:16 4 C 25 %
3738 14-04-2020 00:02:16 3.3 C 28 %
3739 14-04-2020 00:12:16 4.1 C 25 %
3740 14-04-2020 00:22:16 3.2 C 27 %
3741 14-04-2020 00:32:16 3.3 C 27 %
3742 14-04-2020 00:42:16 2.8 C 29 %
3743 14-04-2020 00:52:16 2.9 C 29 %
3744 14-04-2020 01:02:16 3.1 C 27 %
3745 14-04-2020 01:12:16 3.4 C 27 %
3746 14-04-2020 01:22:16 2.8 C 28 %
3747 14-04-2020 01:32:16 2.1 C 30 %
3748 14-04-2020 01:42:16 1.9 C 33 %
3749 14-04-2020 01:52:16 1.2 C 35 %
3750 14-04-2020 02:02:16 1.6 C 35 %
Sensor: Nr:Datum:Temp:Feuchte:
Aussen-T/F 3751 14-04-2020 02:12:16 1.3 C 35 %
3752 14-04-2020 02:22:16 0.9 C 36 %
3753 14-04-2020 02:32:16 0.8 C 36 %
3754 14-04-2020 02:42:16 1.1 C 35 %
3755 14-04-2020 02:52:18 1 C 35 %
3756 14-04-2020 03:02:18 1.1 C 35 %
3757 14-04-2020 03:12:18 1.1 C 35 %
3758 14-04-2020 03:22:17 0.7 C 36 %
3759 14-04-2020 03:32:18 1.1 C 36 %
3760 14-04-2020 03:42:18 0.9 C 36 %
3761 14-04-2020 03:52:17 1 C 35 %
3762 14-04-2020 04:02:18 0.9 C 36 %
3763 14-04-2020 04:12:18 0.9 C 36 %
3764 14-04-2020 04:22:17 0.6 C 36 %
3765 14-04-2020 04:32:17 0.7 C 36 %
3766 14-04-2020 04:42:17 0.7 C 36 %
3767 14-04-2020 04:52:18 0.6 C 36 %
3768 14-04-2020 05:02:17 0 C 37 %
3769 14-04-2020 05:12:17 0 C 38 %
3770 14-04-2020 05:22:17 0.6 C 38 %
3771 14-04-2020 05:32:17 0.6 C 39 %
3772 14-04-2020 05:42:17 0.7 C 39 %
3773 14-04-2020 05:52:17 0 C 39 %
3774 14-04-2020 06:02:17 -0.2 C 40 %
3775 14-04-2020 06:12:17 -0.7 C 41 %
Sensor: Nr:Datum:Temp:Feuchte:
Aussen-T/F 3776 14-04-2020 06:22:17 -0.9 C 41 %
3777 14-04-2020 06:32:17 -0.4 C 41 %
3778 14-04-2020 06:42:17 -0.1 C 41 %
3779 14-04-2020 06:52:17 0.5 C 41 %
3780 14-04-2020 07:02:17 0.7 C 41 %
3781 14-04-2020 07:12:17 1.1 C 40 %
3782 14-04-2020 07:22:17 1.3 C 39 %
3783 14-04-2020 07:32:17 1.6 C 39 %
3784 14-04-2020 07:42:17 1.8 C 39 %
3785 14-04-2020 07:52:18 2.1 C 37 %
3786 14-04-2020 08:02:17 2.2 C 38 %
3787 14-04-2020 08:12:17 2.3 C 37 %
3788 14-04-2020 08:22:18 1.7 C 39 %
3789 14-04-2020 08:32:17 1.7 C 40 %
3790 14-04-2020 08:42:17 2.2 C 38 %
3791 14-04-2020 08:52:17 2.4 C 38 %
3792 14-04-2020 09:02:18 3 C 37 %
3793 14-04-2020 09:12:18 3.8 C 36 %
3794 14-04-2020 09:22:17 4.7 C 34 %
3795 14-04-2020 09:32:18 5.7 C 32 %
3796 14-04-2020 09:42:18 5.3 C 31 %
3797 14-04-2020 09:52:17 6 C 31 %
3798 14-04-2020 10:02:17 6.6 C 30 %
3799 14-04-2020 10:12:17 5.8 C 30 %
3800 14-04-2020 10:22:17 5.9 C 30 %
Sensor: Nr:Datum:Temp:Feuchte:
Aussen-T/F 3801 14-04-2020 10:32:17 6.7 C 30 %
3802 14-04-2020 10:42:17 7.4 C 26 %
3803 14-04-2020 10:52:18 8.4 C 23 %
3804 14-04-2020 11:02:17 8.2 C 21 %
3805 14-04-2020 11:12:17 8 C 20 %
3806 14-04-2020 11:22:17 7.9 C 20 %
3807 14-04-2020 11:32:17 8.2 C 20 %
3808 14-04-2020 11:42:17 9.1 C 20 %
3809 14-04-2020 11:52:18 8.4 C 20 %
3810 14-04-2020 12:02:17 8.5 C 20 %
3811 14-04-2020 12:12:17 8.6 C 20 %
3812 14-04-2020 12:22:17 8.9 C 20 %
3813 14-04-2020 12:32:17 8.6 C 20 %
3814 14-04-2020 12:42:17 9.8 C 20 %
3815 14-04-2020 12:52:17 10.6 C 20 %
3816 14-04-2020 13:02:18 10.2 C 20 %
3817 14-04-2020 13:12:18 10 C 20 %
3818 14-04-2020 13:22:17 10.4 C 20 %
3819 14-04-2020 13:32:17 10.7 C 20 %
3820 14-04-2020 13:42:17 10 C 20 %
3821 14-04-2020 13:52:18 9.5 C 20 %
3822 14-04-2020 14:02:17 9.8 C 20 %
3823 14-04-2020 14:12:18 10.3 C 20 %
3824 14-04-2020 14:22:18 11.8 C 20 %
3825 14-04-2020 14:32:18 14.5 C 20 %
Sensor: Nr:Datum:Temp:Feuchte:
Aussen-T/F 3826 14-04-2020 14:42:18 17.4 C 20 %
3827 14-04-2020 14:52:17 16.8 C 20 %
3828 14-04-2020 15:02:17 17.6 C 20 %
3829 14-04-2020 15:12:18 21 C 20 %
3830 14-04-2020 15:22:17 14.7 C 20 %
3831 14-04-2020 15:32:17 16.7 C 20 %
3832 14-04-2020 15:42:17 14 C 20 %
3833 14-04-2020 15:52:17 14 C 20 %
3834 14-04-2020 16:02:17 15 C 20 %
3835 14-04-2020 16:12:17 17.2 C 20 %
3836 14-04-2020 16:22:17 17.7 C 20 %
3837 14-04-2020 16:32:18 16.3 C 20 %
3838 14-04-2020 16:42:18 14 C 20 %
3839 14-04-2020 16:52:17 14.5 C 20 %
3840 14-04-2020 17:02:18 12.2 C 20 %
3841 14-04-2020 17:12:18 14.2 C 20 %
3842 14-04-2020 17:22:17 19.2 C 20 %
3843 14-04-2020 17:32:17 16.8 C 20 %
3844 14-04-2020 17:42:18 15.5 C 20 %
3845 14-04-2020 17:52:17 16 C 20 %
3846 14-04-2020 18:02:18 13.4 C 20 %
3847 14-04-2020 18:12:18 12.4 C 20 %
3848 14-04-2020 18:22:17 12.1 C 20 %
3849 14-04-2020 18:32:18 11.9 C 20 %
3850 14-04-2020 18:42:18 11.7 C 20 %
Sensor: Nr:Datum:Temp:Feuchte:
Aussen-T/F 3851 14-04-2020 18:52:17 11.3 C 20 %
3852 14-04-2020 19:02:17 11.2 C 20 %
3853 14-04-2020 19:12:18 11 C 20 %
3854 14-04-2020 19:22:18 10.6 C 20 %
3855 14-04-2020 19:32:18 10.3 C 20 %
3856 14-04-2020 19:42:18 10.1 C 20 %
3857 14-04-2020 19:52:17 9.7 C 20 %
3858 14-04-2020 20:02:17 9.3 C 20 %
3859 14-04-2020 20:12:17 8.9 C 20 %
3860 14-04-2020 20:22:17 7.7 C 20 %
3861 14-04-2020 20:32:17 7 C 23 %
3862 14-04-2020 20:42:18 6.7 C 25 %
3863 14-04-2020 20:52:17 6.8 C 25 %
3864 14-04-2020 21:02:17 6.5 C 25 %
3865 14-04-2020 21:12:17 6.3 C 25 %
3866 14-04-2020 21:22:17 6 C 26 %
3867 14-04-2020 21:32:17 6.1 C 26 %
3868 14-04-2020 21:42:17 5.8 C 27 %
3869 14-04-2020 21:52:17 5.6 C 27 %
3870 14-04-2020 22:02:18 5.6 C 27 %
3871 14-04-2020 22:12:18 5.1 C 29 %
3872 14-04-2020 22:22:17 5.2 C 28 %
3873 14-04-2020 22:32:18 5 C 29 %
3874 14-04-2020 22:42:18 4.7 C 30 %
3875 14-04-2020 22:52:18 4.7 C 30 %
Sensor: Nr:Datum:Temp:Feuchte:
Aussen-T/F 3876 14-04-2020 23:02:18 4.3 C 32 %
3877 14-04-2020 23:12:18 3.6 C 34 %
3878 14-04-2020 23:22:17 3.2 C 35 %
3879 14-04-2020 23:32:17 3 C 35 %
3880 14-04-2020 23:42:17 2.8 C 36 %
3881 14-04-2020 23:52:17 2.6 C 36 %
3882 15-04-2020 00:02:18 2.4 C 37 %
3883 15-04-2020 00:12:18 2.1 C 37 %
3884 15-04-2020 00:22:17 1.7 C 39 %
3885 15-04-2020 00:32:18 1.6 C 39 %
3886 15-04-2020 00:42:18 1.6 C 40 %
3887 15-04-2020 00:52:17 1.6 C 39 %
3888 15-04-2020 01:02:17 1.5 C 40 %
3889 15-04-2020 01:12:17 1.3 C 40 %
3890 15-04-2020 01:22:17 1.2 C 40 %
3891 15-04-2020 01:32:17 1.3 C 40 %
3892 15-04-2020 01:42:17 1.2 C 40 %
3893 15-04-2020 01:52:17 1 C 40 %
3894 15-04-2020 02:02:17 0.8 C 41 %
3895 15-04-2020 02:12:17 0.8 C 42 %
3896 15-04-2020 02:22:17 0.8 C 42 %
3897 15-04-2020 02:32:17 0.7 C 42 %
3898 15-04-2020 02:42:17 0.6 C 42 %
3899 15-04-2020 02:52:17 0.1 C 42 %
3900 15-04-2020 03:02:17 0.2 C 43 %
Sensor: Nr:Datum:Temp:Feuchte:
Aussen-T/F 3901 15-04-2020 03:12:17 0.3 C 43 %
3902 15-04-2020 03:22:17 0.2 C 43 %
3903 15-04-2020 03:32:18 0.5 C 43 %
3904 15-04-2020 03:42:18 0.1 C 43 %
3905 15-04-2020 03:52:18 0 C 43 %
3906 15-04-2020 04:02:18 0.2 C 43 %
3907 15-04-2020 04:12:18 -0.2 C 43 %
3908 15-04-2020 04:22:17 0 C 44 %
3909 15-04-2020 04:32:18 -0.2 C 43 %
3910 15-04-2020 04:42:18 -0.3 C 44 %
3911 15-04-2020 04:52:17 -0.4 C 44 %
3912 15-04-2020 05:02:18 -0.4 C 44 %
3913 15-04-2020 05:12:18 -0.3 C 44 %
3914 15-04-2020 05:22:17 -0.4 C 45 %
3915 15-04-2020 05:32:17 -0.5 C 45 %
3916 15-04-2020 05:42:17 -0.4 C 45 %
3917 15-04-2020 05:52:17 -0.7 C 45 %
3918 15-04-2020 06:02:17 -0.7 C 45 %
3919 15-04-2020 06:12:17 -0.7 C 45 %
3920 15-04-2020 06:22:17 -0.7 C 45 %
3921 15-04-2020 06:32:17 -0.6 C 45 %
3922 15-04-2020 06:42:17 -0.7 C 45 %
3923 15-04-2020 06:52:17 -0.9 C 45 %
3924 15-04-2020 07:02:17 -0.7 C 45 %
3925 15-04-2020 07:12:17 -0.6 C 45 %
Sensor: Nr:Datum:Temp:Feuchte:
Aussen-T/F 3926 15-04-2020 07:22:17 -0.5 C 45 %
3927 15-04-2020 07:32:17 -0.1 C 46 %
3928 15-04-2020 07:42:17 0.1 C 45 %
3929 15-04-2020 07:52:18 0.4 C 45 %
3930 15-04-2020 08:02:17 0.7 C 45 %
3931 15-04-2020 08:12:17 1 C 43 %
3932 15-04-2020 08:22:18 1.4 C 42 %
3933 15-04-2020 08:32:18 1.6 C 41 %
3934 15-04-2020 08:42:18 1.9 C 41 %
3935 15-04-2020 08:52:18 2.4 C 40 %
3936 15-04-2020 09:02:17 2.8 C 40 %
3937 15-04-2020 09:12:17 3 C 38 %
3938 15-04-2020 09:22:18 3.4 C 38 %
3939 15-04-2020 09:32:18 3.5 C 37 %
3940 15-04-2020 09:42:18 4.2 C 36 %
3941 15-04-2020 09:52:17 4.4 C 36 %
3942 15-04-2020 10:02:18 4.9 C 35 %
3943 15-04-2020 10:12:18 5.4 C 35 %
3944 15-04-2020 10:22:18 6.2 C 34 %
3945 15-04-2020 10:32:18 6.9 C 33 %
3946 15-04-2020 10:42:18 7.4 C 31 %
3947 15-04-2020 10:52:18 8.1 C 30 %
3948 15-04-2020 11:02:17 8.5 C 30 %
3949 15-04-2020 11:12:17 9.2 C 29 %
3950 15-04-2020 11:22:18 9.9 C 28 %
Sensor: Nr:Datum:Temp:Feuchte:
Aussen-T/F 3951 15-04-2020 11:32:17 10.4 C 26 %
3952 15-04-2020 11:42:17 11 C 22 %
3953 15-04-2020 11:52:18 11.6 C 20 %
3954 15-04-2020 12:02:17 12.3 C 20 %
3955 15-04-2020 12:12:17 12.2 C 20 %
3956 15-04-2020 12:22:18 13.3 C 20 %
3957 15-04-2020 12:32:18 13.2 C 20 %
3958 15-04-2020 12:42:18 13.3 C 20 %
3959 15-04-2020 12:52:17 13.2 C 20 %
3960 15-04-2020 13:02:17 13.4 C 20 %
3961 15-04-2020 13:12:17 13.5 C 20 %
3962 15-04-2020 13:22:18 13.4 C 20 %
3963 15-04-2020 13:32:18 14.2 C 20 %
3964 15-04-2020 13:42:18 14.4 C 20 %
3965 15-04-2020 13:52:17 14.7 C 20 %
3966 15-04-2020 14:02:17 15.2 C 20 %
3967 15-04-2020 14:12:17 15.5 C 20 %
3968 15-04-2020 14:22:17 16.9 C 20 %
3969 15-04-2020 14:32:17 21.6 C 20 %
3970 15-04-2020 14:42:17 23.9 C 20 %
3971 15-04-2020 14:52:17 25.2 C 20 %
3972 15-04-2020 15:02:18 24.8 C 20 %
3973 15-04-2020 15:12:18 23.5 C 20 %
3974 15-04-2020 15:22:18 24.4 C 20 %
3975 15-04-2020 15:32:18 23.9 C 20 %
Sensor: Nr:Datum:Temp:Feuchte:
Aussen-T/F 3976 15-04-2020 15:42:18 24.5 C 20 %
3977 15-04-2020 15:52:17 24.4 C 20 %
3978 15-04-2020 16:02:18 24.8 C 20 %
3979 15-04-2020 16:12:18 24.6 C 20 %
3980 15-04-2020 16:22:17 23.3 C 20 %
3981 15-04-2020 16:32:18 23.7 C 20 %
3982 15-04-2020 16:42:18 25.4 C 20 %
3983 15-04-2020 16:52:18 25.9 C 20 %
3984 15-04-2020 17:02:17 25.4 C 20 %
3985 15-04-2020 17:12:17 26.8 C 20 %
3986 15-04-2020 17:22:18 24.8 C 20 %
3987 15-04-2020 17:32:17 24 C 20 %
3988 15-04-2020 17:42:17 22.4 C 20 %
3989 15-04-2020 17:52:18 24.4 C 20 %
3990 15-04-2020 18:02:18 20.6 C 20 %
3991 15-04-2020 18:12:18 20.2 C 20 %
3992 15-04-2020 18:22:18 19.7 C 20 %
3993 15-04-2020 18:32:18 19.1 C 20 %
3994 15-04-2020 18:42:18 19.4 C 20 %
3995 15-04-2020 18:52:17 19.4 C 20 %
3996 15-04-2020 19:02:17 18.8 C 20 %
3997 15-04-2020 19:12:17 18.7 C 20 %
3998 15-04-2020 19:22:17 18.2 C 20 %
3999 15-04-2020 19:32:17 18 C 20 %
4000 15-04-2020 19:42:18 17.3 C 20 %
Sensor: Nr:Datum:Temp:Feuchte:
Aussen-T/F 4001 15-04-2020 19:52:17 15.3 C 20 %
4002 15-04-2020 20:02:18 14 C 20 %
4003 15-04-2020 20:12:18 13.6 C 20 %
4004 15-04-2020 20:22:18 13.4 C 20 %
4005 15-04-2020 20:32:17 13.1 C 20 %
4006 15-04-2020 20:42:18 12.7 C 20 %
4007 15-04-2020 20:52:17 12 C 20 %
4008 15-04-2020 21:02:18 12 C 20 %
4009 15-04-2020 21:12:18 11 C 20 %
4010 15-04-2020 21:22:17 11 C 20 %
4011 15-04-2020 21:32:17 10.5 C 20 %
4012 15-04-2020 21:42:17 9.4 C 25 %
4013 15-04-2020 21:52:17 9 C 26 %
4014 15-04-2020 22:02:17 8.9 C 27 %
4015 15-04-2020 22:12:17 8.6 C 28 %
4016 15-04-2020 22:22:17 8.8 C 28 %
4017 15-04-2020 22:32:18 8.1 C 28 %
4018 15-04-2020 22:42:18 7.7 C 29 %
4019 15-04-2020 22:52:17 7.3 C 30 %
4020 15-04-2020 23:02:17 7.1 C 30 %
4021 15-04-2020 23:12:17 7.2 C 30 %
4022 15-04-2020 23:22:17 7 C 30 %
4023 15-04-2020 23:32:17 6.6 C 31 %
4024 15-04-2020 23:42:18 6.4 C 32 %
4025 15-04-2020 23:52:17 6.2 C 32 %
Sensor: Nr:Datum:Temp:Feuchte:
Aussen-T/F 4026 16-04-2020 00:02:17 6.2 C 32 %
4027 16-04-2020 00:12:17 6 C 33 %
4028 16-04-2020 00:22:17 5.8 C 34 %
4029 16-04-2020 00:32:18 5.5 C 35 %
4030 16-04-2020 00:42:18 5.3 C 35 %
4031 16-04-2020 00:52:17 5.2 C 35 %
4032 16-04-2020 01:02:17 4.8 C 35 %
4033 16-04-2020 01:12:17 4.8 C 35 %
4034 16-04-2020 01:22:17 5.1 C 35 %
4035 16-04-2020 01:32:18 5.1 C 35 %
4036 16-04-2020 01:42:18 4.7 C 36 %
4037 16-04-2020 01:52:17 4.8 C 36 %
4038 16-04-2020 02:02:18 4.6 C 36 %
4039 16-04-2020 02:12:18 4.3 C 36 %
4040 16-04-2020 02:22:18 3.9 C 38 %
4041 16-04-2020 02:32:17 4.1 C 38 %
4042 16-04-2020 02:42:17 4 C 38 %
4043 16-04-2020 02:52:17 3.7 C 39 %
4044 16-04-2020 03:02:17 3.6 C 40 %
4045 16-04-2020 03:12:17 3.6 C 39 %
4046 16-04-2020 03:22:17 3.5 C 39 %
4047 16-04-2020 03:32:17 3.3 C 39 %
4048 16-04-2020 03:42:17 3 C 40 %
4049 16-04-2020 03:52:17 2.9 C 41 %
4050 16-04-2020 04:02:17 3.2 C 40 %
Sensor: Nr:Datum:Temp:Feuchte:
Aussen-T/F 4051 16-04-2020 04:12:17 3.2 C 40 %
4052 16-04-2020 04:22:17 2.7 C 41 %
4053 16-04-2020 04:32:18 2.6 C 41 %
4054 16-04-2020 04:42:18 3 C 41 %
4055 16-04-2020 04:52:17 2.6 C 42 %
4056 16-04-2020 05:02:17 2.7 C 42 %
4057 16-04-2020 05:12:17 2.7 C 42 %
4058 16-04-2020 05:22:17 2.6 C 42 %
4059 16-04-2020 05:32:17 2.3 C 42 %
4060 16-04-2020 05:42:17 2 C 42 %
4061 16-04-2020 05:52:17 2.1 C 43 %
4062 16-04-2020 06:02:18 2.4 C 43 %
4063 16-04-2020 06:12:18 2 C 42 %
4064 16-04-2020 06:22:17 1.6 C 44 %
4065 16-04-2020 06:32:17 1.4 C 44 %
4066 16-04-2020 06:42:17 1.8 C 45 %
4067 16-04-2020 06:52:17 1.8 C 45 %
4068 16-04-2020 07:02:17 1.8 C 45 %
4069 16-04-2020 07:12:17 1.8 C 45 %
4070 16-04-2020 07:22:17 2.2 C 44 %
4071 16-04-2020 07:32:17 2.1 C 44 %
4072 16-04-2020 07:42:17 2.1 C 44 %
4073 16-04-2020 07:52:17 2.5 C 44 %
4074 16-04-2020 08:02:17 2.5 C 44 %
4075 16-04-2020 08:12:17 2.6 C 44 %
Sensor: Nr:Datum:Temp:Feuchte:
Aussen-T/F 4076 16-04-2020 08:22:17 3 C 43 %
4077 16-04-2020 08:32:18 3.2 C 42 %
4078 16-04-2020 08:42:18 3.5 C 42 %
4079 16-04-2020 08:52:17 3.6 C 41 %
4080 16-04-2020 09:02:18 3.9 C 41 %
4081 16-04-2020 09:12:18 4.2 C 41 %
4082 16-04-2020 09:22:17 4.5 C 40 %
4083 16-04-2020 09:32:17 5.1 C 40 %
4084 16-04-2020 09:42:17 5.8 C 39 %
4085 16-04-2020 09:52:17 6.6 C 37 %
4086 16-04-2020 10:02:18 7 C 36 %
4087 16-04-2020 10:12:18 7.5 C 36 %
4088 16-04-2020 10:22:17 8.1 C 35 %
4089 16-04-2020 10:32:17 9.4 C 34 %
4090 16-04-2020 10:42:18 10.4 C 31 %
4091 16-04-2020 10:52:17 11.2 C 30 %
4092 16-04-2020 11:02:18 12.2 C 29 %
4093 16-04-2020 11:12:18 14.2 C 25 %
4094 16-04-2020 11:22:17 15.5 C 20 %
4095 16-04-2020 11:32:17 16.8 C 20 %
4096 16-04-2020 11:42:17 17.6 C 20 %
4097 16-04-2020 11:52:17 18 C 20 %
4098 16-04-2020 12:02:18 18.4 C 20 %
4099 16-04-2020 12:12:18 18.7 C 20 %
4100 16-04-2020 12:22:17 19.1 C 20 %
Sensor: Nr:Datum:Temp:Feuchte:
Aussen-T/F 4101 16-04-2020 12:32:18 19.3 C 20 %
4102 16-04-2020 12:42:18 19.5 C 20 %
4103 16-04-2020 12:52:17 19.6 C 20 %
4104 16-04-2020 13:02:18 20.1 C 20 %
4105 16-04-2020 13:12:18 20.5 C 20 %
4106 16-04-2020 13:22:17 20.8 C 20 %
4107 16-04-2020 13:32:18 21.1 C 20 %
4108 16-04-2020 13:42:18 21.5 C 20 %
4109 16-04-2020 13:52:17 21.7 C 20 %
4110 16-04-2020 14:02:17 22 C 20 %
4111 16-04-2020 14:12:17 22.4 C 20 %
4112 16-04-2020 14:22:17 22.8 C 20 %
4113 16-04-2020 14:32:17 26.2 C 20 %
4114 16-04-2020 14:42:17 28 C 20 %
4115 16-04-2020 14:52:17 29.6 C 20 %
4116 16-04-2020 15:02:17 29.8 C 20 %
4117 16-04-2020 15:12:17 29.5 C 20 %
4118 16-04-2020 15:22:17 28.5 C 20 %
4119 16-04-2020 15:32:18 30.1 C 20 %
4120 16-04-2020 15:42:18 25.8 C 20 %
4121 16-04-2020 15:52:17 27.1 C 20 %
4122 16-04-2020 16:02:17 29.5 C 20 %
4123 16-04-2020 16:12:17 28.4 C 20 %
4124 16-04-2020 16:22:17 26.5 C 20 %
4125 16-04-2020 16:32:17 26.6 C 20 %
Sensor: Nr:Datum:Temp:Feuchte:
Aussen-T/F 4126 16-04-2020 16:42:18 27.2 C 20 %
4127 16-04-2020 16:52:17 24.9 C 20 %
4128 16-04-2020 17:02:17 25 C 20 %
4129 16-04-2020 17:12:17 26.1 C 20 %
4130 16-04-2020 17:22:18 28.3 C 20 %
4131 16-04-2020 17:32:17 27.6 C 20 %
4132 16-04-2020 17:42:17 27.3 C 20 %
4133 16-04-2020 17:52:17 26.5 C 20 %
4134 16-04-2020 18:02:17 25.6 C 20 %
4135 16-04-2020 18:12:17 24.3 C 20 %
4136 16-04-2020 18:22:17 24.4 C 20 %
4137 16-04-2020 18:32:17 24.2 C 20 %
4138 16-04-2020 18:42:17 23.9 C 20 %
4139 16-04-2020 18:52:17 24 C 20 %
4140 16-04-2020 19:02:17 23.2 C 20 %
4141 16-04-2020 19:12:17 22.9 C 20 %
4142 16-04-2020 19:22:17 22.2 C 20 %
4143 16-04-2020 19:32:18 21.9 C 20 %
4144 16-04-2020 19:42:18 21.2 C 20 %
4145 16-04-2020 19:52:17 20.5 C 20 %
4146 16-04-2020 20:02:17 19.5 C 20 %
4147 16-04-2020 20:12:17 19.2 C 20 %
4148 16-04-2020 20:22:17 19.3 C 20 %
4149 16-04-2020 20:32:18 19.1 C 20 %
4150 16-04-2020 20:42:18 18.9 C 20 %
Sensor: Nr:Datum:Temp:Feuchte:
Aussen-T/F 4151 16-04-2020 20:52:18 18.5 C 20 %
4152 16-04-2020 21:02:17 17.9 C 20 %
4153 16-04-2020 21:12:17 16.5 C 20 %
4154 16-04-2020 21:22:17 16.1 C 20 %
4155 16-04-2020 21:32:18 15.5 C 20 %
4156 16-04-2020 21:42:18 14.7 C 21 %
4157 16-04-2020 21:52:17 14.4 C 22 %
4158 16-04-2020 22:02:17 14.5 C 22 %
4159 16-04-2020 22:12:17 13.5 C 25 %
4160 16-04-2020 22:22:17 14.1 C 25 %
4161 16-04-2020 22:32:17 13.8 C 25 %
4162 16-04-2020 22:42:18 13.1 C 26 %
4163 16-04-2020 22:52:17 12.4 C 28 %
4164 16-04-2020 23:02:17 12.5 C 29 %
4165 16-04-2020 23:12:17 12.2 C 30 %
4166 16-04-2020 23:22:17 11.7 C 30 %
4167 16-04-2020 23:32:18 11.6 C 31 %
4168 16-04-2020 23:42:18 11.6 C 31 %
4169 16-04-2020 23:52:17 11.8 C 31 %
Sensor: Nr:Datum:Temp:Feuchte:
G-T/H 1 19-03-2020 00:09:17 11.8 C 72 %
2 19-03-2020 00:19:18 11.8 C 72 %
3 19-03-2020 00:29:18 11.8 C 72 %
4 19-03-2020 00:39:18 11.9 C 72 %
5 19-03-2020 00:49:17 11.9 C 72 %
6 19-03-2020 00:59:17 11.8 C 72 %
7 19-03-2020 01:09:18 11.8 C 72 %
8 19-03-2020 01:19:17 11.8 C 72 %
9 19-03-2020 01:29:17 11.8 C 72 %
10 19-03-2020 01:39:17 11.8 C 72 %
11 19-03-2020 01:49:17 11.8 C 72 %
12 19-03-2020 01:59:17 11.8 C 72 %
13 19-03-2020 02:09:18 11.8 C 72 %
14 19-03-2020 02:19:17 11.8 C 72 %
15 19-03-2020 02:29:17 11.8 C 72 %
16 19-03-2020 02:39:17 11.8 C 72 %
17 19-03-2020 02:49:18 11.8 C 72 %
18 19-03-2020 02:59:18 11.8 C 72 %
19 19-03-2020 03:09:18 11.8 C 72 %
20 19-03-2020 03:19:18 11.8 C 72 %
21 19-03-2020 03:29:18 11.8 C 72 %
22 19-03-2020 03:39:17 11.8 C 72 %
23 19-03-2020 03:49:18 11.8 C 72 %
24 19-03-2020 03:59:18 11.8 C 72 %
25 19-03-2020 04:09:18 11.8 C 71 %
Sensor: Nr:Datum:Temp:Feuchte:
G-T/H 26 19-03-2020 04:19:17 11.8 C 71 %
27 19-03-2020 04:29:17 11.8 C 71 %
28 19-03-2020 04:39:17 11.8 C 71 %
29 19-03-2020 04:49:18 11.8 C 71 %
30 19-03-2020 04:59:18 11.8 C 71 %
31 19-03-2020 05:09:18 11.8 C 71 %
32 19-03-2020 05:19:18 11.8 C 71 %
33 19-03-2020 05:29:18 11.8 C 71 %
34 19-03-2020 05:39:18 11.8 C 71 %
35 19-03-2020 05:49:17 11.8 C 71 %
36 19-03-2020 05:59:18 11.8 C 71 %
37 19-03-2020 06:09:18 11.8 C 71 %
38 19-03-2020 06:19:17 11.8 C 71 %
39 19-03-2020 06:29:17 11.8 C 71 %
40 19-03-2020 06:39:17 11.8 C 71 %
41 19-03-2020 06:49:17 11.8 C 71 %
42 19-03-2020 06:59:17 11.8 C 71 %
43 19-03-2020 07:09:17 11.8 C 71 %
44 19-03-2020 07:19:17 11.8 C 71 %
45 19-03-2020 07:29:17 11.8 C 71 %
46 19-03-2020 07:39:18 11.8 C 71 %
47 19-03-2020 07:49:18 11.8 C 71 %
48 19-03-2020 07:59:18 11.8 C 71 %
49 19-03-2020 08:09:18 11.8 C 71 %
50 19-03-2020 08:19:17 11.8 C 71 %
Sensor: Nr:Datum:Temp:Feuchte:
G-T/H 51 19-03-2020 08:29:17 11.8 C 71 %
52 19-03-2020 08:39:17 11.8 C 71 %
53 19-03-2020 08:49:18 11.8 C 71 %
54 19-03-2020 08:59:18 11.8 C 71 %
55 19-03-2020 09:09:17 11.8 C 72 %
56 19-03-2020 09:19:17 11.8 C 72 %
57 19-03-2020 09:29:17 11.8 C 72 %
58 19-03-2020 09:39:18 11.8 C 72 %
59 19-03-2020 09:49:17 11.8 C 72 %
60 19-03-2020 09:59:17 11.8 C 72 %
61 19-03-2020 10:09:18 11.8 C 72 %
62 19-03-2020 10:19:18 11.8 C 72 %
63 19-03-2020 10:29:18 11.8 C 72 %
64 19-03-2020 10:39:17 11.8 C 72 %
65 19-03-2020 10:49:17 11.8 C 72 %
66 19-03-2020 10:59:17 11.8 C 72 %
67 19-03-2020 11:09:17 11.8 C 72 %
68 19-03-2020 11:19:17 11.9 C 72 %
69 19-03-2020 11:29:17 11.9 C 72 %
70 19-03-2020 11:39:17 11.9 C 72 %
71 19-03-2020 11:49:17 11.9 C 72 %
72 19-03-2020 11:59:17 11.9 C 72 %
73 19-03-2020 12:09:17 11.9 C 72 %
74 19-03-2020 12:19:17 11.9 C 72 %
75 19-03-2020 12:29:17 11.9 C 72 %
Sensor: Nr:Datum:Temp:Feuchte:
G-T/H 76 19-03-2020 12:39:18 11.9 C 72 %
77 19-03-2020 12:49:17 11.9 C 72 %
78 19-03-2020 12:59:17 11.9 C 72 %
79 19-03-2020 13:09:18 12 C 71 %
80 19-03-2020 13:19:18 12 C 71 %
81 19-03-2020 13:29:18 12 C 71 %
82 19-03-2020 13:39:18 12 C 71 %
83 19-03-2020 13:49:17 12 C 71 %
84 19-03-2020 13:59:17 12.1 C 71 %
85 19-03-2020 14:09:17 12.1 C 71 %
86 19-03-2020 14:19:17 12.1 C 71 %
87 19-03-2020 14:29:17 12.2 C 71 %
88 19-03-2020 14:39:17 12.6 C 69 %
89 19-03-2020 14:49:17 12.8 C 67 %
90 19-03-2020 14:59:17 13 C 64 %
91 19-03-2020 15:09:18 13.2 C 63 %
92 19-03-2020 15:19:18 13.2 C 62 %
93 19-03-2020 15:29:18 13.3 C 61 %
94 19-03-2020 15:39:18 13.4 C 61 %
95 19-03-2020 15:49:17 13.4 C 60 %
96 19-03-2020 15:59:18 13.5 C 60 %
97 19-03-2020 16:09:18 13.5 C 60 %
98 19-03-2020 16:20:17 13.6 C 59 %
99 19-03-2020 16:29:17 13.7 C 58 %
100 19-03-2020 16:39:17 13.8 C 57 %
Sensor: Nr:Datum:Temp:Feuchte:
G-T/H 101 19-03-2020 16:49:17 13.8 C 57 %
102 19-03-2020 16:59:17 13.9 C 56 %
103 19-03-2020 17:09:18 13.8 C 56 %
104 19-03-2020 17:19:18 13.8 C 56 %
105 19-03-2020 17:29:18 13.8 C 56 %
106 19-03-2020 17:39:18 13.8 C 56 %
107 19-03-2020 17:49:18 13.8 C 56 %
108 19-03-2020 17:59:18 13.9 C 57 %
109 19-03-2020 18:09:18 13.9 C 57 %
110 19-03-2020 18:20:17 13.9 C 58 %
111 19-03-2020 18:30:17 13.8 C 58 %
112 19-03-2020 18:40:17 13.7 C 59 %
113 19-03-2020 18:50:17 13.6 C 59 %
114 19-03-2020 18:59:18 13.5 C 60 %
115 19-03-2020 19:09:18 13.4 C 60 %
116 19-03-2020 19:20:17 13.2 C 60 %
117 19-03-2020 19:30:17 13.1 C 60 %
118 19-03-2020 19:40:17 12.9 C 61 %
119 19-03-2020 19:50:17 12.8 C 61 %
120 19-03-2020 19:59:17 12.8 C 61 %
121 19-03-2020 20:09:17 12.7 C 61 %
122 19-03-2020 20:29:17 12.7 C 61 %
123 19-03-2020 20:29:17 12.7 C 62 %
124 19-03-2020 20:39:17 12.7 C 62 %
125 19-03-2020 20:49:17 12.7 C 62 %
Sensor: Nr:Datum:Temp:Feuchte:
G-T/H 126 19-03-2020 20:59:17 12.7 C 62 %
127 19-03-2020 21:09:18 12.7 C 63 %
128 19-03-2020 21:20:17 12.8 C 63 %
129 19-03-2020 21:30:17 12.8 C 63 %
130 19-03-2020 21:40:17 12.8 C 63 %
131 19-03-2020 21:50:17 12.8 C 63 %
132 19-03-2020 21:59:18 12.8 C 64 %
133 19-03-2020 22:09:18 12.8 C 64 %
134 19-03-2020 22:19:18 12.8 C 64 %
135 19-03-2020 22:29:18 12.8 C 64 %
136 19-03-2020 22:39:18 12.8 C 64 %
137 19-03-2020 22:49:18 12.8 C 64 %
138 19-03-2020 22:59:18 12.8 C 65 %
139 19-03-2020 23:09:18 12.8 C 65 %
140 19-03-2020 23:20:17 12.8 C 65 %
141 19-03-2020 23:30:17 12.8 C 65 %
142 19-03-2020 23:40:17 12.8 C 65 %
143 19-03-2020 23:50:17 12.8 C 65 %
144 19-03-2020 23:59:18 12.8 C 65 %
145 20-03-2020 00:09:18 12.8 C 66 %
146 20-03-2020 00:19:18 12.8 C 66 %
147 20-03-2020 00:29:18 12.8 C 66 %
148 20-03-2020 00:39:18 12.8 C 66 %
149 20-03-2020 00:59:17 12.8 C 66 %
150 20-03-2020 01:00:18 12.8 C 66 %
Sensor: Nr:Datum:Temp:Feuchte:
G-T/H 151 20-03-2020 01:10:18 12.8 C 66 %
152 20-03-2020 01:20:17 12.8 C 66 %
153 20-03-2020 01:30:18 12.8 C 66 %
154 20-03-2020 01:40:18 12.8 C 66 %
155 20-03-2020 01:50:17 12.8 C 66 %
156 20-03-2020 02:00:18 12.8 C 66 %
157 20-03-2020 02:10:18 12.8 C 66 %
158 20-03-2020 02:20:17 12.8 C 67 %
159 20-03-2020 02:30:17 12.8 C 67 %
160 20-03-2020 02:40:17 12.7 C 67 %
161 20-03-2020 02:50:17 12.8 C 67 %
162 20-03-2020 03:00:17 12.7 C 67 %
163 20-03-2020 03:10:17 12.7 C 67 %
164 20-03-2020 03:20:17 12.7 C 67 %
165 20-03-2020 03:30:18 12.7 C 67 %
166 20-03-2020 03:40:18 12.7 C 67 %
167 20-03-2020 03:50:17 12.7 C 67 %
168 20-03-2020 04:00:18 12.7 C 67 %
169 20-03-2020 04:10:18 12.7 C 67 %
170 20-03-2020 04:20:18 12.7 C 67 %
171 20-03-2020 04:30:18 12.7 C 67 %
172 20-03-2020 04:40:18 12.7 C 67 %
173 20-03-2020 04:50:17 12.6 C 67 %
174 20-03-2020 05:00:18 12.6 C 67 %
175 20-03-2020 05:10:18 12.7 C 67 %
Sensor: Nr:Datum:Temp:Feuchte:
G-T/H 176 20-03-2020 05:20:17 12.6 C 67 %
177 20-03-2020 05:30:17 12.6 C 67 %
178 20-03-2020 05:40:17 12.6 C 67 %
179 20-03-2020 05:50:17 12.5 C 67 %
180 20-03-2020 06:00:17 12.5 C 67 %
181 20-03-2020 06:10:17 12.5 C 67 %
182 20-03-2020 06:20:17 12.5 C 67 %
183 20-03-2020 06:30:17 12.5 C 67 %
184 20-03-2020 06:40:17 12.5 C 67 %
185 20-03-2020 06:50:17 12.5 C 67 %
186 20-03-2020 07:00:17 12.5 C 67 %
187 20-03-2020 07:10:17 12.5 C 67 %
188 20-03-2020 07:20:17 12.4 C 67 %
189 20-03-2020 07:30:17 12.5 C 67 %
190 20-03-2020 07:40:17 12.4 C 67 %
191 20-03-2020 07:50:18 12.4 C 67 %
192 20-03-2020 08:00:17 12.4 C 67 %
193 20-03-2020 08:10:17 12.4 C 67 %
194 20-03-2020 08:20:17 12.4 C 67 %
195 20-03-2020 08:30:17 12.4 C 67 %
196 20-03-2020 08:40:17 12.4 C 67 %
197 20-03-2020 08:50:17 12.4 C 67 %
198 20-03-2020 09:00:17 12.4 C 67 %
199 20-03-2020 09:10:17 12.3 C 67 %
200 20-03-2020 09:20:17 12.4 C 67 %
Sensor: Nr:Datum:Temp:Feuchte:
G-T/H 201 20-03-2020 09:30:17 12.4 C 67 %
202 20-03-2020 09:40:17 12.4 C 68 %
203 20-03-2020 09:50:17 12.4 C 68 %
204 20-03-2020 10:00:18 12.3 C 68 %
205 20-03-2020 10:10:18 12.3 C 68 %
206 20-03-2020 10:20:18 12.3 C 68 %
207 20-03-2020 10:30:18 12.3 C 68 %
208 20-03-2020 10:40:18 12.3 C 68 %
209 20-03-2020 10:50:18 12.3 C 68 %
210 20-03-2020 11:00:17 12.3 C 68 %
211 20-03-2020 11:10:18 12.3 C 68 %
212 20-03-2020 11:20:18 12.3 C 68 %
213 20-03-2020 11:30:18 12.3 C 68 %
214 20-03-2020 11:40:18 12.3 C 68 %
215 20-03-2020 11:50:18 12.3 C 68 %
216 20-03-2020 12:00:17 12.3 C 68 %
217 20-03-2020 12:10:17 12.3 C 68 %
218 20-03-2020 12:20:17 12.3 C 68 %
219 20-03-2020 12:30:18 12.3 C 68 %
220 20-03-2020 12:40:18 12.3 C 68 %
221 20-03-2020 12:50:18 12.3 C 68 %
222 20-03-2020 13:00:18 12.3 C 68 %
223 20-03-2020 13:10:18 12.4 C 68 %
224 20-03-2020 13:20:18 12.4 C 69 %
225 20-03-2020 13:30:18 12.4 C 69 %
Sensor: Nr:Datum:Temp:Feuchte:
G-T/H 226 20-03-2020 13:40:18 12.4 C 69 %
227 20-03-2020 13:50:17 12.4 C 69 %
228 20-03-2020 14:00:17 12.4 C 69 %
229 20-03-2020 14:10:17 12.4 C 69 %
230 20-03-2020 14:20:17 12.4 C 69 %
231 20-03-2020 14:30:18 12.4 C 69 %
232 20-03-2020 14:40:18 12.4 C 69 %
233 20-03-2020 14:50:18 12.4 C 69 %
234 20-03-2020 15:00:17 12.4 C 69 %
235 20-03-2020 15:10:17 12.4 C 69 %
236 20-03-2020 15:20:17 12.5 C 69 %
237 20-03-2020 15:30:18 12.5 C 69 %
238 20-03-2020 15:40:18 12.5 C 69 %
239 20-03-2020 15:50:18 12.4 C 69 %
240 20-03-2020 16:00:17 12.5 C 69 %
241 20-03-2020 16:10:17 12.5 C 69 %
242 20-03-2020 16:20:17 12.5 C 69 %
243 20-03-2020 16:30:18 12.5 C 69 %
244 20-03-2020 16:40:18 12.5 C 69 %
245 20-03-2020 16:50:18 12.5 C 69 %
246 20-03-2020 17:00:18 12.6 C 69 %
247 20-03-2020 17:10:18 12.7 C 69 %
248 20-03-2020 17:20:18 12.8 C 69 %
249 20-03-2020 17:30:18 12.8 C 68 %
250 20-03-2020 17:40:18 12.7 C 68 %
Sensor: Nr:Datum:Temp:Feuchte:
G-T/H 251 20-03-2020 17:50:17 12.7 C 68 %
252 20-03-2020 18:00:17 12.6 C 68 %
253 20-03-2020 18:10:17 12.7 C 68 %
254 20-03-2020 18:20:17 12.6 C 68 %
255 20-03-2020 18:30:17 12.6 C 68 %
256 20-03-2020 18:40:17 12.6 C 68 %
257 20-03-2020 18:50:18 12.6 C 68 %
258 20-03-2020 19:00:17 12.6 C 68 %
259 20-03-2020 19:10:17 12.6 C 68 %
260 20-03-2020 19:20:17 12.6 C 68 %
261 20-03-2020 19:30:17 12.6 C 68 %
262 20-03-2020 19:40:17 12.6 C 68 %
263 20-03-2020 19:50:17 12.6 C 68 %
264 20-03-2020 20:00:17 12.6 C 68 %
265 20-03-2020 20:10:17 12.6 C 68 %
266 20-03-2020 20:20:17 12.6 C 68 %
267 20-03-2020 20:30:17 12.6 C 68 %
268 20-03-2020 20:40:17 12.6 C 68 %
269 20-03-2020 20:50:18 12.6 C 68 %
270 20-03-2020 21:00:18 12.6 C 68 %
271 20-03-2020 21:10:18 12.6 C 68 %
272 20-03-2020 21:20:17 12.6 C 68 %
273 20-03-2020 21:30:17 12.6 C 68 %
274 20-03-2020 21:40:17 12.5 C 68 %
275 20-03-2020 21:50:17 12.5 C 68 %
Sensor: Nr:Datum:Temp:Feuchte:
G-T/H 276 20-03-2020 22:00:17 12.5 C 67 %
277 20-03-2020 22:10:17 12.5 C 67 %
278 20-03-2020 22:20:18 12.5 C 67 %
279 20-03-2020 22:30:17 12.5 C 67 %
280 20-03-2020 22:40:18 12.5 C 67 %
281 20-03-2020 22:50:17 12.5 C 67 %
282 20-03-2020 23:00:18 12.5 C 67 %
283 20-03-2020 23:10:18 12.5 C 67 %
284 20-03-2020 23:20:17 12.5 C 67 %
285 20-03-2020 23:30:18 12.5 C 67 %
286 20-03-2020 23:40:18 12.5 C 67 %
287 20-03-2020 23:50:18 12.4 C 66 %
288 21-03-2020 00:00:17 12.5 C 66 %
289 21-03-2020 00:10:17 12.4 C 66 %
290 21-03-2020 00:20:17 12.5 C 66 %
291 21-03-2020 00:30:17 12.4 C 66 %
292 21-03-2020 00:40:17 12.4 C 66 %
293 21-03-2020 00:50:17 12.4 C 66 %
294 21-03-2020 01:00:17 12.4 C 66 %
295 21-03-2020 01:10:17 12.4 C 66 %
296 21-03-2020 01:20:17 12.4 C 66 %
297 21-03-2020 01:30:18 12.4 C 66 %
298 21-03-2020 01:40:18 12.4 C 66 %
299 21-03-2020 01:50:17 12.4 C 66 %
300 21-03-2020 02:00:18 12.3 C 66 %
Sensor: Nr:Datum:Temp:Feuchte:
G-T/H 301 21-03-2020 02:10:18 12.3 C 66 %
302 21-03-2020 02:20:17 12.3 C 66 %
303 21-03-2020 02:30:18 12.3 C 66 %
304 21-03-2020 02:40:18 12.3 C 66 %
305 21-03-2020 02:50:18 12.3 C 66 %
306 21-03-2020 03:00:17 12.3 C 66 %
307 21-03-2020 03:10:17 12.3 C 66 %
308 21-03-2020 03:20:17 12.2 C 66 %
309 21-03-2020 03:30:18 12.2 C 66 %
310 21-03-2020 03:40:18 12.2 C 66 %
311 21-03-2020 03:50:17 12.2 C 66 %
312 21-03-2020 04:00:18 12.2 C 66 %
313 21-03-2020 04:10:18 12.2 C 66 %
314 21-03-2020 04:20:17 12.2 C 66 %
315 21-03-2020 04:30:18 12.1 C 66 %
316 21-03-2020 04:40:18 12.1 C 66 %
317 21-03-2020 04:50:18 12.1 C 66 %
318 21-03-2020 05:00:18 12.1 C 65 %
319 21-03-2020 05:10:18 12 C 65 %
320 21-03-2020 05:20:18 12 C 65 %
321 21-03-2020 05:30:18 12 C 65 %
322 21-03-2020 05:40:18 12 C 65 %
323 21-03-2020 05:50:17 11.9 C 66 %
324 21-03-2020 06:00:18 11.9 C 66 %
325 21-03-2020 06:10:18 12 C 65 %
Sensor: Nr:Datum:Temp:Feuchte:
G-T/H 326 21-03-2020 06:20:17 11.9 C 66 %
327 21-03-2020 06:30:18 11.9 C 66 %
328 21-03-2020 06:40:18 11.9 C 67 %
329 21-03-2020 06:50:17 11.9 C 67 %
330 21-03-2020 07:00:17 11.9 C 67 %
331 21-03-2020 07:10:18 11.9 C 67 %
332 21-03-2020 07:20:18 11.8 C 67 %
333 21-03-2020 07:30:18 11.8 C 66 %
334 21-03-2020 07:40:18 11.8 C 66 %
335 21-03-2020 07:50:17 11.8 C 66 %
336 21-03-2020 08:00:18 11.7 C 66 %
337 21-03-2020 08:10:18 11.7 C 66 %
338 21-03-2020 08:20:17 11.7 C 67 %
339 21-03-2020 08:30:17 11.7 C 67 %
340 21-03-2020 08:40:17 11.7 C 67 %
341 21-03-2020 08:50:18 11.7 C 67 %
342 21-03-2020 09:00:18 11.7 C 67 %
343 21-03-2020 09:10:18 11.7 C 67 %
344 21-03-2020 09:20:18 11.7 C 67 %
345 21-03-2020 09:30:18 11.7 C 67 %
346 21-03-2020 09:40:18 11.6 C 67 %
347 21-03-2020 09:50:17 11.6 C 67 %
348 21-03-2020 10:00:17 11.6 C 67 %
349 21-03-2020 10:10:18 11.6 C 67 %
350 21-03-2020 10:20:18 11.6 C 67 %
Sensor: Nr:Datum:Temp:Feuchte:
G-T/H 351 21-03-2020 10:30:18 11.5 C 67 %
352 21-03-2020 10:40:18 11.5 C 67 %
353 21-03-2020 10:50:17 11.5 C 67 %
354 21-03-2020 11:00:17 11.6 C 67 %
355 21-03-2020 11:10:18 11.5 C 67 %
356 21-03-2020 11:20:18 11.5 C 67 %
357 21-03-2020 11:30:18 11.5 C 67 %
358 21-03-2020 11:40:18 11.5 C 67 %
359 21-03-2020 11:50:18 11.5 C 67 %
360 21-03-2020 12:00:18 11.6 C 67 %
361 21-03-2020 12:10:18 11.5 C 67 %
362 21-03-2020 12:20:17 11.5 C 66 %
363 21-03-2020 12:30:17 11.5 C 66 %
364 21-03-2020 12:40:17 11.5 C 66 %
365 21-03-2020 12:50:17 11.4 C 65 %
366 21-03-2020 13:00:17 11.4 C 65 %
367 21-03-2020 13:10:17 11.4 C 65 %
368 21-03-2020 13:20:18 11.4 C 64 %
369 21-03-2020 13:30:18 11.4 C 64 %
370 21-03-2020 13:40:18 11.4 C 64 %
371 21-03-2020 13:50:17 11.3 C 63 %
372 21-03-2020 14:00:18 11.3 C 63 %
373 21-03-2020 14:10:18 11.3 C 63 %
374 21-03-2020 14:20:18 11.3 C 63 %
375 21-03-2020 14:30:18 11.3 C 62 %
Sensor: Nr:Datum:Temp:Feuchte:
G-T/H 376 21-03-2020 14:40:18 11.3 C 62 %
377 21-03-2020 14:50:17 11.3 C 62 %
378 21-03-2020 15:00:18 11.3 C 62 %
379 21-03-2020 15:10:18 11.3 C 62 %
380 21-03-2020 15:20:17 11.2 C 61 %
381 21-03-2020 15:30:17 11.3 C 61 %
382 21-03-2020 15:40:17 11.3 C 61 %
383 21-03-2020 15:50:17 11.2 C 61 %
384 21-03-2020 16:00:18 11.2 C 60 %
385 21-03-2020 16:10:18 11.2 C 60 %
386 21-03-2020 16:20:17 11.2 C 60 %
387 21-03-2020 16:30:17 11.2 C 60 %
388 21-03-2020 16:40:17 11.2 C 60 %
389 21-03-2020 16:50:17 11.2 C 61 %
390 21-03-2020 17:00:17 11.2 C 61 %
391 21-03-2020 17:10:17 11.2 C 61 %
392 21-03-2020 17:20:17 11.2 C 61 %
393 21-03-2020 17:30:18 11.2 C 61 %
394 21-03-2020 17:40:18 11.2 C 60 %
395 21-03-2020 17:50:17 11.2 C 60 %
396 21-03-2020 18:00:17 11.2 C 60 %
397 21-03-2020 18:10:17 11.2 C 60 %
398 21-03-2020 18:20:17 11.1 C 60 %
399 21-03-2020 18:30:17 11.1 C 60 %
400 21-03-2020 18:40:17 11.1 C 60 %
Sensor: Nr:Datum:Temp:Feuchte:
G-T/H 401 21-03-2020 18:50:17 11.1 C 61 %
402 21-03-2020 19:00:17 11.2 C 61 %
403 21-03-2020 19:10:17 11.1 C 61 %
404 21-03-2020 19:20:17 11.1 C 61 %
405 21-03-2020 19:30:18 11.1 C 61 %
406 21-03-2020 19:40:18 11.1 C 61 %
407 21-03-2020 19:50:17 11.1 C 61 %
408 21-03-2020 20:00:18 11.1 C 61 %
409 21-03-2020 20:10:18 11 C 60 %
410 21-03-2020 20:20:18 11.1 C 60 %
411 21-03-2020 20:30:18 11 C 60 %
412 21-03-2020 20:40:18 11 C 60 %
413 21-03-2020 20:50:17 11 C 60 %
414 21-03-2020 21:00:18 11 C 60 %
415 21-03-2020 21:10:18 11 C 60 %
416 21-03-2020 21:20:18 11 C 60 %
417 21-03-2020 21:30:18 11 C 61 %
418 21-03-2020 21:40:18 11 C 61 %
419 21-03-2020 21:50:17 11 C 61 %
420 21-03-2020 22:00:17 10.9 C 62 %
421 21-03-2020 22:10:17 10.9 C 61 %
422 21-03-2020 22:20:17 10.8 C 61 %
423 21-03-2020 22:30:18 10.8 C 61 %
424 21-03-2020 22:40:18 10.8 C 61 %
425 21-03-2020 22:50:18 10.8 C 61 %
Sensor: Nr:Datum:Temp:Feuchte:
G-T/H 426 21-03-2020 23:00:18 10.8 C 61 %
427 21-03-2020 23:10:18 10.8 C 60 %
428 21-03-2020 23:20:18 10.8 C 61 %
429 21-03-2020 23:30:18 10.7 C 60 %
430 21-03-2020 23:40:18 10.7 C 60 %
431 21-03-2020 23:50:17 10.7 C 60 %
432 22-03-2020 00:00:18 10.7 C 60 %
433 22-03-2020 00:10:18 10.6 C 60 %
434 22-03-2020 00:20:17 10.6 C 60 %
435 22-03-2020 00:30:17 10.6 C 60 %
436 22-03-2020 00:40:17 10.5 C 60 %
437 22-03-2020 00:50:17 10.5 C 60 %
438 22-03-2020 01:00:18 10.5 C 59 %
439 22-03-2020 01:10:18 10.5 C 59 %
440 22-03-2020 01:20:18 10.4 C 59 %
441 22-03-2020 01:30:18 10.4 C 59 %
442 22-03-2020 01:40:18 10.4 C 59 %
443 22-03-2020 01:50:18 10.4 C 59 %
444 22-03-2020 02:00:18 10.4 C 59 %
445 22-03-2020 02:10:18 10.3 C 59 %
446 22-03-2020 02:20:17 10.3 C 58 %
447 22-03-2020 02:30:18 10.3 C 58 %
448 22-03-2020 02:40:18 10.2 C 58 %
449 22-03-2020 02:50:18 10.2 C 58 %
450 22-03-2020 03:00:18 10.2 C 58 %
Sensor: Nr:Datum:Temp:Feuchte:
G-T/H 451 22-03-2020 03:10:18 10.2 C 58 %
452 22-03-2020 03:20:18 10.1 C 58 %
453 22-03-2020 03:30:18 10.1 C 58 %
454 22-03-2020 03:40:18 10.1 C 58 %
455 22-03-2020 03:50:17 10.1 C 58 %
456 22-03-2020 04:00:17 10.1 C 58 %
457 22-03-2020 04:10:17 10 C 58 %
458 22-03-2020 04:20:17 10 C 58 %
459 22-03-2020 04:30:17 10 C 58 %
460 22-03-2020 04:40:17 10 C 59 %
461 22-03-2020 04:50:17 10 C 59 %
462 22-03-2020 05:00:18 10 C 59 %
463 22-03-2020 05:10:18 10 C 59 %
464 22-03-2020 05:20:17 9.9 C 60 %
465 22-03-2020 05:30:18 9.9 C 60 %
466 22-03-2020 05:40:18 9.9 C 61 %
467 22-03-2020 05:50:17 9.8 C 61 %
468 22-03-2020 06:00:17 9.9 C 61 %
469 22-03-2020 06:10:17 9.8 C 61 %
470 22-03-2020 06:20:17 9.8 C 61 %
471 22-03-2020 06:30:17 9.8 C 61 %
472 22-03-2020 06:40:17 9.8 C 61 %
473 22-03-2020 06:50:18 9.8 C 61 %
474 22-03-2020 07:00:18 9.8 C 61 %
475 22-03-2020 07:10:18 9.7 C 61 %
Sensor: Nr:Datum:Temp:Feuchte:
G-T/H 476 22-03-2020 07:20:18 9.7 C 61 %
477 22-03-2020 07:30:18 9.7 C 61 %
478 22-03-2020 07:40:18 9.7 C 61 %
479 22-03-2020 07:50:17 9.7 C 61 %
480 22-03-2020 08:00:18 9.7 C 61 %
481 22-03-2020 08:10:18 9.6 C 61 %
482 22-03-2020 08:20:18 9.6 C 61 %
483 22-03-2020 08:30:18 9.6 C 61 %
484 22-03-2020 08:40:18 9.6 C 61 %
485 22-03-2020 08:50:18 9.5 C 61 %
486 22-03-2020 09:00:18 9.5 C 61 %
487 22-03-2020 09:10:18 9.5 C 62 %
488 22-03-2020 09:20:18 9.5 C 62 %